<?xml version="1.0" encoding="UTF-8"?>
<gpx xmlns="http://www.topografix.com/GPX/1/1" xmlns:xsi="http://www.w3.org/2001/XMLSchema-instance" version="1.1" creator="Trace de Trail" xsi:schemaLocation="http://www.topografix.com/GPX/1/1 http://www.topografix.com/GPX/1/1/gpx.xsd">
  <metadata>
    <name>NEW GTL35 - GTLC Lux 2027</name>
    <desc>Parcours créé sur Trace de Trail</desc>
    <link href="https://tracedetrail.fr/fr/trace/356601">
      <text>Cartographie du parcours</text>
    </link>
    <time>2026-08-25T14:33:54+00:00</time>
  </metadata>
  <wpt lat="49.93772" lon="6.20484">
    <ele>207</ele>
    <type>depart</type>
  </wpt>
  <wpt lat="49.93318" lon="6.20612">
    <ele>216</ele>
    <type>arrivee</type>
  </wpt>
  <wpt lat="49.96177" lon="6.16739">
    <ele>254</ele>
    <name>Keppeshausen</name>
    <type>bh_ravitoc_toilettes</type>
  </wpt>
  <wpt lat="49.91181" lon="6.13683">
    <ele>272</ele>
    <name>Bradenbourg</name>
    <type>bh_ravitoc_toilettes</type>
  </wpt>
  <wpt lat="49.91748" lon="6.17822">
    <ele>285</ele>
    <name>Walsdorf</name>
    <type>bh_ravitoc_toilettes</type>
  </wpt>
  <trk>
    <name>NEW GTL35 - GTLC Lux 2027 sur TraceDeTrail.fr</name>
    <src>Trace de Trail</src>
    <trkseg>
      <trkpt lat="49.93772" lon="6.20484">
        <ele>207</ele>
        <time>2026-08-25T14:33:54+00:00</time>
      </trkpt>
      <trkpt lat="49.93806" lon="6.20476">
        <ele>207</ele>
        <time>2026-08-25T14:33:57+00:00</time>
      </trkpt>
      <trkpt lat="49.93844" lon="6.20482">
        <ele>205</ele>
        <time>2026-08-25T14:34:00+00:00</time>
      </trkpt>
      <trkpt lat="49.93853" lon="6.20481">
        <ele>208</ele>
        <time>2026-08-25T14:34:03+00:00</time>
      </trkpt>
      <trkpt lat="49.93857" lon="6.20481">
        <ele>208</ele>
        <time>2026-08-25T14:34:06+00:00</time>
      </trkpt>
      <trkpt lat="49.93849" lon="6.20468">
        <ele>204</ele>
        <time>2026-08-25T14:34:09+00:00</time>
      </trkpt>
      <trkpt lat="49.93834" lon="6.20443">
        <ele>205</ele>
        <time>2026-08-25T14:34:12+00:00</time>
      </trkpt>
      <trkpt lat="49.93819" lon="6.20419">
        <ele>207</ele>
        <time>2026-08-25T14:34:15+00:00</time>
      </trkpt>
      <trkpt lat="49.93811" lon="6.20407">
        <ele>208</ele>
        <time>2026-08-25T14:34:18+00:00</time>
      </trkpt>
      <trkpt lat="49.9381" lon="6.20405">
        <ele>207</ele>
        <time>2026-08-25T14:34:21+00:00</time>
      </trkpt>
      <trkpt lat="49.93824" lon="6.20393">
        <ele>209</ele>
        <time>2026-08-25T14:34:24+00:00</time>
      </trkpt>
      <trkpt lat="49.9383" lon="6.20403">
        <ele>209</ele>
        <time>2026-08-25T14:34:27+00:00</time>
      </trkpt>
      <trkpt lat="49.93839" lon="6.20408">
        <ele>212</ele>
        <time>2026-08-25T14:34:30+00:00</time>
      </trkpt>
      <trkpt lat="49.9384" lon="6.20413">
        <ele>208</ele>
        <time>2026-08-25T14:34:33+00:00</time>
      </trkpt>
      <trkpt lat="49.93844" lon="6.20412">
        <ele>210</ele>
        <time>2026-08-25T14:34:36+00:00</time>
      </trkpt>
      <trkpt lat="49.93863" lon="6.2042">
        <ele>212</ele>
        <time>2026-08-25T14:34:39+00:00</time>
      </trkpt>
      <trkpt lat="49.93872" lon="6.20422">
        <ele>209</ele>
        <time>2026-08-25T14:34:42+00:00</time>
      </trkpt>
      <trkpt lat="49.93902" lon="6.20437">
        <ele>208</ele>
        <time>2026-08-25T14:34:45+00:00</time>
      </trkpt>
      <trkpt lat="49.93915" lon="6.2045">
        <ele>208</ele>
        <time>2026-08-25T14:34:48+00:00</time>
      </trkpt>
      <trkpt lat="49.93924" lon="6.20453">
        <ele>209</ele>
        <time>2026-08-25T14:34:51+00:00</time>
      </trkpt>
      <trkpt lat="49.93932" lon="6.20453">
        <ele>208</ele>
        <time>2026-08-25T14:34:54+00:00</time>
      </trkpt>
      <trkpt lat="49.9394" lon="6.20452">
        <ele>208</ele>
        <time>2026-08-25T14:34:57+00:00</time>
      </trkpt>
      <trkpt lat="49.93941" lon="6.20452">
        <ele>208</ele>
        <time>2026-08-25T14:35:00+00:00</time>
      </trkpt>
      <trkpt lat="49.93951" lon="6.20452">
        <ele>209</ele>
        <time>2026-08-25T14:35:03+00:00</time>
      </trkpt>
      <trkpt lat="49.93969" lon="6.20462">
        <ele>209</ele>
        <time>2026-08-25T14:35:06+00:00</time>
      </trkpt>
      <trkpt lat="49.93971" lon="6.20461">
        <ele>210</ele>
        <time>2026-08-25T14:35:09+00:00</time>
      </trkpt>
      <trkpt lat="49.93984" lon="6.20453">
        <ele>212</ele>
        <time>2026-08-25T14:35:12+00:00</time>
      </trkpt>
      <trkpt lat="49.93998" lon="6.20453">
        <ele>213</ele>
        <time>2026-08-25T14:35:15+00:00</time>
      </trkpt>
      <trkpt lat="49.94019" lon="6.20444">
        <ele>217</ele>
        <time>2026-08-25T14:35:18+00:00</time>
      </trkpt>
      <trkpt lat="49.94036" lon="6.20445">
        <ele>220</ele>
        <time>2026-08-25T14:35:21+00:00</time>
      </trkpt>
      <trkpt lat="49.9405" lon="6.20441">
        <ele>223</ele>
        <time>2026-08-25T14:35:24+00:00</time>
      </trkpt>
      <trkpt lat="49.94051" lon="6.20441">
        <ele>225</ele>
        <time>2026-08-25T14:35:27+00:00</time>
      </trkpt>
      <trkpt lat="49.94052" lon="6.20442">
        <ele>225</ele>
        <time>2026-08-25T14:35:30+00:00</time>
      </trkpt>
      <trkpt lat="49.94059" lon="6.20438">
        <ele>228</ele>
        <time>2026-08-25T14:35:33+00:00</time>
      </trkpt>
      <trkpt lat="49.94062" lon="6.20441">
        <ele>228</ele>
        <time>2026-08-25T14:35:36+00:00</time>
      </trkpt>
      <trkpt lat="49.94067" lon="6.20448">
        <ele>228</ele>
        <time>2026-08-25T14:35:39+00:00</time>
      </trkpt>
      <trkpt lat="49.94074" lon="6.20453">
        <ele>233</ele>
        <time>2026-08-25T14:35:42+00:00</time>
      </trkpt>
      <trkpt lat="49.94086" lon="6.20447">
        <ele>243</ele>
        <time>2026-08-25T14:35:45+00:00</time>
      </trkpt>
      <trkpt lat="49.94107" lon="6.20444">
        <ele>253</ele>
        <time>2026-08-25T14:35:48+00:00</time>
      </trkpt>
      <trkpt lat="49.94124" lon="6.20444">
        <ele>261</ele>
        <time>2026-08-25T14:35:51+00:00</time>
      </trkpt>
      <trkpt lat="49.94124" lon="6.20451">
        <ele>258</ele>
        <time>2026-08-25T14:35:54+00:00</time>
      </trkpt>
      <trkpt lat="49.94129" lon="6.20466">
        <ele>254</ele>
        <time>2026-08-25T14:35:57+00:00</time>
      </trkpt>
      <trkpt lat="49.94139" lon="6.20456">
        <ele>261</ele>
        <time>2026-08-25T14:36:00+00:00</time>
      </trkpt>
      <trkpt lat="49.94154" lon="6.20448">
        <ele>270</ele>
        <time>2026-08-25T14:36:03+00:00</time>
      </trkpt>
      <trkpt lat="49.9416" lon="6.20451">
        <ele>260</ele>
        <time>2026-08-25T14:36:06+00:00</time>
      </trkpt>
      <trkpt lat="49.94163" lon="6.20466">
        <ele>264</ele>
        <time>2026-08-25T14:36:09+00:00</time>
      </trkpt>
      <trkpt lat="49.94166" lon="6.20472">
        <ele>259</ele>
        <time>2026-08-25T14:36:12+00:00</time>
      </trkpt>
      <trkpt lat="49.94166" lon="6.20473">
        <ele>259</ele>
        <time>2026-08-25T14:36:15+00:00</time>
      </trkpt>
      <trkpt lat="49.9417" lon="6.20478">
        <ele>262</ele>
        <time>2026-08-25T14:36:18+00:00</time>
      </trkpt>
      <trkpt lat="49.94183" lon="6.20472">
        <ele>265</ele>
        <time>2026-08-25T14:36:21+00:00</time>
      </trkpt>
      <trkpt lat="49.94201" lon="6.20474">
        <ele>264</ele>
        <time>2026-08-25T14:36:24+00:00</time>
      </trkpt>
      <trkpt lat="49.94203" lon="6.20474">
        <ele>264</ele>
        <time>2026-08-25T14:36:27+00:00</time>
      </trkpt>
      <trkpt lat="49.94214" lon="6.20474">
        <ele>263</ele>
        <time>2026-08-25T14:36:30+00:00</time>
      </trkpt>
      <trkpt lat="49.94221" lon="6.20465">
        <ele>268</ele>
        <time>2026-08-25T14:36:33+00:00</time>
      </trkpt>
      <trkpt lat="49.94244" lon="6.20457">
        <ele>271</ele>
        <time>2026-08-25T14:36:36+00:00</time>
      </trkpt>
      <trkpt lat="49.94253" lon="6.20451">
        <ele>268</ele>
        <time>2026-08-25T14:36:39+00:00</time>
      </trkpt>
      <trkpt lat="49.94256" lon="6.20445">
        <ele>273</ele>
        <time>2026-08-25T14:36:42+00:00</time>
      </trkpt>
      <trkpt lat="49.94266" lon="6.20435">
        <ele>271</ele>
        <time>2026-08-25T14:36:45+00:00</time>
      </trkpt>
      <trkpt lat="49.94285" lon="6.20425">
        <ele>271</ele>
        <time>2026-08-25T14:36:48+00:00</time>
      </trkpt>
      <trkpt lat="49.94303" lon="6.20401">
        <ele>271</ele>
        <time>2026-08-25T14:36:51+00:00</time>
      </trkpt>
      <trkpt lat="49.94324" lon="6.2038">
        <ele>271</ele>
        <time>2026-08-25T14:36:54+00:00</time>
      </trkpt>
      <trkpt lat="49.94352" lon="6.20369">
        <ele>272</ele>
        <time>2026-08-25T14:36:57+00:00</time>
      </trkpt>
      <trkpt lat="49.94366" lon="6.2034">
        <ele>272</ele>
        <time>2026-08-25T14:37:00+00:00</time>
      </trkpt>
      <trkpt lat="49.94373" lon="6.20333">
        <ele>275</ele>
        <time>2026-08-25T14:37:03+00:00</time>
      </trkpt>
      <trkpt lat="49.94382" lon="6.20331">
        <ele>272</ele>
        <time>2026-08-25T14:37:06+00:00</time>
      </trkpt>
      <trkpt lat="49.94388" lon="6.20348">
        <ele>269</ele>
        <time>2026-08-25T14:37:09+00:00</time>
      </trkpt>
      <trkpt lat="49.94389" lon="6.20351">
        <ele>267</ele>
        <time>2026-08-25T14:37:12+00:00</time>
      </trkpt>
      <trkpt lat="49.94401" lon="6.20369">
        <ele>262</ele>
        <time>2026-08-25T14:37:15+00:00</time>
      </trkpt>
      <trkpt lat="49.94421" lon="6.20365">
        <ele>258</ele>
        <time>2026-08-25T14:37:18+00:00</time>
      </trkpt>
      <trkpt lat="49.94428" lon="6.20367">
        <ele>258</ele>
        <time>2026-08-25T14:37:21+00:00</time>
      </trkpt>
      <trkpt lat="49.94442" lon="6.20358">
        <ele>259</ele>
        <time>2026-08-25T14:37:24+00:00</time>
      </trkpt>
      <trkpt lat="49.94443" lon="6.20356">
        <ele>255</ele>
        <time>2026-08-25T14:37:27+00:00</time>
      </trkpt>
      <trkpt lat="49.94445" lon="6.20353">
        <ele>255</ele>
        <time>2026-08-25T14:37:30+00:00</time>
      </trkpt>
      <trkpt lat="49.94445" lon="6.20351">
        <ele>255</ele>
        <time>2026-08-25T14:37:33+00:00</time>
      </trkpt>
      <trkpt lat="49.94453" lon="6.20339">
        <ele>259</ele>
        <time>2026-08-25T14:37:36+00:00</time>
      </trkpt>
      <trkpt lat="49.94464" lon="6.20315">
        <ele>260</ele>
        <time>2026-08-25T14:37:39+00:00</time>
      </trkpt>
      <trkpt lat="49.94471" lon="6.2029">
        <ele>260</ele>
        <time>2026-08-25T14:37:42+00:00</time>
      </trkpt>
      <trkpt lat="49.9447" lon="6.20286">
        <ele>267</ele>
        <time>2026-08-25T14:37:45+00:00</time>
      </trkpt>
      <trkpt lat="49.94478" lon="6.2024">
        <ele>262</ele>
        <time>2026-08-25T14:37:48+00:00</time>
      </trkpt>
      <trkpt lat="49.94481" lon="6.20234">
        <ele>263</ele>
        <time>2026-08-25T14:37:51+00:00</time>
      </trkpt>
      <trkpt lat="49.9448" lon="6.20222">
        <ele>271</ele>
        <time>2026-08-25T14:37:54+00:00</time>
      </trkpt>
      <trkpt lat="49.94482" lon="6.20181">
        <ele>265</ele>
        <time>2026-08-25T14:37:57+00:00</time>
      </trkpt>
      <trkpt lat="49.94479" lon="6.20166">
        <ele>277</ele>
        <time>2026-08-25T14:38:00+00:00</time>
      </trkpt>
      <trkpt lat="49.94481" lon="6.20139">
        <ele>281</ele>
        <time>2026-08-25T14:38:03+00:00</time>
      </trkpt>
      <trkpt lat="49.9449" lon="6.20107">
        <ele>286</ele>
        <time>2026-08-25T14:38:06+00:00</time>
      </trkpt>
      <trkpt lat="49.9449" lon="6.20098">
        <ele>287</ele>
        <time>2026-08-25T14:38:09+00:00</time>
      </trkpt>
      <trkpt lat="49.94493" lon="6.20096">
        <ele>282</ele>
        <time>2026-08-25T14:38:12+00:00</time>
      </trkpt>
      <trkpt lat="49.9449" lon="6.2006">
        <ele>293</ele>
        <time>2026-08-25T14:38:15+00:00</time>
      </trkpt>
      <trkpt lat="49.94493" lon="6.20048">
        <ele>290</ele>
        <time>2026-08-25T14:38:18+00:00</time>
      </trkpt>
      <trkpt lat="49.94495" lon="6.20045">
        <ele>290</ele>
        <time>2026-08-25T14:38:21+00:00</time>
      </trkpt>
      <trkpt lat="49.94492" lon="6.20001">
        <ele>295</ele>
        <time>2026-08-25T14:38:24+00:00</time>
      </trkpt>
      <trkpt lat="49.94494" lon="6.19995">
        <ele>297</ele>
        <time>2026-08-25T14:38:27+00:00</time>
      </trkpt>
      <trkpt lat="49.94494" lon="6.19966">
        <ele>300</ele>
        <time>2026-08-25T14:38:30+00:00</time>
      </trkpt>
      <trkpt lat="49.94496" lon="6.19957">
        <ele>301</ele>
        <time>2026-08-25T14:38:33+00:00</time>
      </trkpt>
      <trkpt lat="49.94495" lon="6.19942">
        <ele>303</ele>
        <time>2026-08-25T14:38:36+00:00</time>
      </trkpt>
      <trkpt lat="49.94496" lon="6.199">
        <ele>302</ele>
        <time>2026-08-25T14:38:39+00:00</time>
      </trkpt>
      <trkpt lat="49.94498" lon="6.19895">
        <ele>302</ele>
        <time>2026-08-25T14:38:42+00:00</time>
      </trkpt>
      <trkpt lat="49.94498" lon="6.1987">
        <ele>302</ele>
        <time>2026-08-25T14:38:45+00:00</time>
      </trkpt>
      <trkpt lat="49.94499" lon="6.19864">
        <ele>303</ele>
        <time>2026-08-25T14:38:48+00:00</time>
      </trkpt>
      <trkpt lat="49.94498" lon="6.19857">
        <ele>304</ele>
        <time>2026-08-25T14:38:51+00:00</time>
      </trkpt>
      <trkpt lat="49.945" lon="6.19852">
        <ele>304</ele>
        <time>2026-08-25T14:38:54+00:00</time>
      </trkpt>
      <trkpt lat="49.94505" lon="6.19849">
        <ele>302</ele>
        <time>2026-08-25T14:38:57+00:00</time>
      </trkpt>
      <trkpt lat="49.94506" lon="6.19843">
        <ele>302</ele>
        <time>2026-08-25T14:39:00+00:00</time>
      </trkpt>
      <trkpt lat="49.94511" lon="6.19827">
        <ele>301</ele>
        <time>2026-08-25T14:39:03+00:00</time>
      </trkpt>
      <trkpt lat="49.94512" lon="6.19822">
        <ele>301</ele>
        <time>2026-08-25T14:39:06+00:00</time>
      </trkpt>
      <trkpt lat="49.94517" lon="6.19808">
        <ele>303</ele>
        <time>2026-08-25T14:39:09+00:00</time>
      </trkpt>
      <trkpt lat="49.94521" lon="6.19807">
        <ele>299</ele>
        <time>2026-08-25T14:39:12+00:00</time>
      </trkpt>
      <trkpt lat="49.94523" lon="6.19803">
        <ele>302</ele>
        <time>2026-08-25T14:39:15+00:00</time>
      </trkpt>
      <trkpt lat="49.94529" lon="6.19775">
        <ele>296</ele>
        <time>2026-08-25T14:39:18+00:00</time>
      </trkpt>
      <trkpt lat="49.94553" lon="6.19749">
        <ele>290</ele>
        <time>2026-08-25T14:39:21+00:00</time>
      </trkpt>
      <trkpt lat="49.94561" lon="6.19744">
        <ele>284</ele>
        <time>2026-08-25T14:39:24+00:00</time>
      </trkpt>
      <trkpt lat="49.94567" lon="6.19737">
        <ele>284</ele>
        <time>2026-08-25T14:39:27+00:00</time>
      </trkpt>
      <trkpt lat="49.9457" lon="6.19726">
        <ele>285</ele>
        <time>2026-08-25T14:39:30+00:00</time>
      </trkpt>
      <trkpt lat="49.9458" lon="6.19715">
        <ele>280</ele>
        <time>2026-08-25T14:39:33+00:00</time>
      </trkpt>
      <trkpt lat="49.94586" lon="6.19704">
        <ele>275</ele>
        <time>2026-08-25T14:39:36+00:00</time>
      </trkpt>
      <trkpt lat="49.9459" lon="6.19697">
        <ele>275</ele>
        <time>2026-08-25T14:39:39+00:00</time>
      </trkpt>
      <trkpt lat="49.94592" lon="6.19691">
        <ele>271</ele>
        <time>2026-08-25T14:39:42+00:00</time>
      </trkpt>
      <trkpt lat="49.94592" lon="6.19689">
        <ele>271</ele>
        <time>2026-08-25T14:39:45+00:00</time>
      </trkpt>
      <trkpt lat="49.94589" lon="6.19692">
        <ele>275</ele>
        <time>2026-08-25T14:39:48+00:00</time>
      </trkpt>
      <trkpt lat="49.94588" lon="6.19691">
        <ele>275</ele>
        <time>2026-08-25T14:39:51+00:00</time>
      </trkpt>
      <trkpt lat="49.94591" lon="6.1968">
        <ele>273</ele>
        <time>2026-08-25T14:39:54+00:00</time>
      </trkpt>
      <trkpt lat="49.94591" lon="6.19674">
        <ele>270</ele>
        <time>2026-08-25T14:39:57+00:00</time>
      </trkpt>
      <trkpt lat="49.94591" lon="6.1967">
        <ele>268</ele>
        <time>2026-08-25T14:40:00+00:00</time>
      </trkpt>
      <trkpt lat="49.94588" lon="6.19647">
        <ele>271</ele>
        <time>2026-08-25T14:40:03+00:00</time>
      </trkpt>
      <trkpt lat="49.9458" lon="6.19618">
        <ele>271</ele>
        <time>2026-08-25T14:40:06+00:00</time>
      </trkpt>
      <trkpt lat="49.9457" lon="6.19594">
        <ele>266</ele>
        <time>2026-08-25T14:40:09+00:00</time>
      </trkpt>
      <trkpt lat="49.94547" lon="6.19548">
        <ele>262</ele>
        <time>2026-08-25T14:40:12+00:00</time>
      </trkpt>
      <trkpt lat="49.94525" lon="6.19517">
        <ele>263</ele>
        <time>2026-08-25T14:40:15+00:00</time>
      </trkpt>
      <trkpt lat="49.94508" lon="6.19493">
        <ele>265</ele>
        <time>2026-08-25T14:40:18+00:00</time>
      </trkpt>
      <trkpt lat="49.9449" lon="6.19467">
        <ele>263</ele>
        <time>2026-08-25T14:40:21+00:00</time>
      </trkpt>
      <trkpt lat="49.94474" lon="6.19439">
        <ele>265</ele>
        <time>2026-08-25T14:40:24+00:00</time>
      </trkpt>
      <trkpt lat="49.94453" lon="6.19403">
        <ele>267</ele>
        <time>2026-08-25T14:40:27+00:00</time>
      </trkpt>
      <trkpt lat="49.94461" lon="6.19438">
        <ele>275</ele>
        <time>2026-08-25T14:40:30+00:00</time>
      </trkpt>
      <trkpt lat="49.9447" lon="6.19482">
        <ele>280</ele>
        <time>2026-08-25T14:40:33+00:00</time>
      </trkpt>
      <trkpt lat="49.94478" lon="6.19506">
        <ele>286</ele>
        <time>2026-08-25T14:40:36+00:00</time>
      </trkpt>
      <trkpt lat="49.94483" lon="6.19527">
        <ele>290</ele>
        <time>2026-08-25T14:40:39+00:00</time>
      </trkpt>
      <trkpt lat="49.94493" lon="6.1955">
        <ele>297</ele>
        <time>2026-08-25T14:40:42+00:00</time>
      </trkpt>
      <trkpt lat="49.94507" lon="6.1958">
        <ele>298</ele>
        <time>2026-08-25T14:40:45+00:00</time>
      </trkpt>
      <trkpt lat="49.94509" lon="6.19589">
        <ele>302</ele>
        <time>2026-08-25T14:40:48+00:00</time>
      </trkpt>
      <trkpt lat="49.94512" lon="6.19602">
        <ele>301</ele>
        <time>2026-08-25T14:40:51+00:00</time>
      </trkpt>
      <trkpt lat="49.94521" lon="6.19643">
        <ele>308</ele>
        <time>2026-08-25T14:40:54+00:00</time>
      </trkpt>
      <trkpt lat="49.94523" lon="6.19661">
        <ele>310</ele>
        <time>2026-08-25T14:40:57+00:00</time>
      </trkpt>
      <trkpt lat="49.94522" lon="6.19698">
        <ele>311</ele>
        <time>2026-08-25T14:41:00+00:00</time>
      </trkpt>
      <trkpt lat="49.9452" lon="6.19705">
        <ele>318</ele>
        <time>2026-08-25T14:41:03+00:00</time>
      </trkpt>
      <trkpt lat="49.94509" lon="6.19716">
        <ele>324</ele>
        <time>2026-08-25T14:41:06+00:00</time>
      </trkpt>
      <trkpt lat="49.94506" lon="6.19718">
        <ele>324</ele>
        <time>2026-08-25T14:41:09+00:00</time>
      </trkpt>
      <trkpt lat="49.94505" lon="6.19723">
        <ele>319</ele>
        <time>2026-08-25T14:41:12+00:00</time>
      </trkpt>
      <trkpt lat="49.94495" lon="6.19729">
        <ele>324</ele>
        <time>2026-08-25T14:41:15+00:00</time>
      </trkpt>
      <trkpt lat="49.94485" lon="6.19739">
        <ele>327</ele>
        <time>2026-08-25T14:41:18+00:00</time>
      </trkpt>
      <trkpt lat="49.9448" lon="6.1975">
        <ele>334</ele>
        <time>2026-08-25T14:41:21+00:00</time>
      </trkpt>
      <trkpt lat="49.94478" lon="6.1976">
        <ele>331</ele>
        <time>2026-08-25T14:41:24+00:00</time>
      </trkpt>
      <trkpt lat="49.94475" lon="6.19757">
        <ele>331</ele>
        <time>2026-08-25T14:41:27+00:00</time>
      </trkpt>
      <trkpt lat="49.94474" lon="6.19754">
        <ele>331</ele>
        <time>2026-08-25T14:41:30+00:00</time>
      </trkpt>
      <trkpt lat="49.94476" lon="6.19736">
        <ele>337</ele>
        <time>2026-08-25T14:41:33+00:00</time>
      </trkpt>
      <trkpt lat="49.94473" lon="6.19737">
        <ele>337</ele>
        <time>2026-08-25T14:41:36+00:00</time>
      </trkpt>
      <trkpt lat="49.94466" lon="6.1975">
        <ele>343</ele>
        <time>2026-08-25T14:41:39+00:00</time>
      </trkpt>
      <trkpt lat="49.94465" lon="6.19747">
        <ele>343</ele>
        <time>2026-08-25T14:41:42+00:00</time>
      </trkpt>
      <trkpt lat="49.94467" lon="6.19738">
        <ele>346</ele>
        <time>2026-08-25T14:41:45+00:00</time>
      </trkpt>
      <trkpt lat="49.94465" lon="6.19742">
        <ele>343</ele>
        <time>2026-08-25T14:41:48+00:00</time>
      </trkpt>
      <trkpt lat="49.94464" lon="6.19742">
        <ele>343</ele>
        <time>2026-08-25T14:41:51+00:00</time>
      </trkpt>
      <trkpt lat="49.94463" lon="6.1974">
        <ele>346</ele>
        <time>2026-08-25T14:41:54+00:00</time>
      </trkpt>
      <trkpt lat="49.94465" lon="6.19733">
        <ele>346</ele>
        <time>2026-08-25T14:41:57+00:00</time>
      </trkpt>
      <trkpt lat="49.94464" lon="6.1973">
        <ele>349</ele>
        <time>2026-08-25T14:42:00+00:00</time>
      </trkpt>
      <trkpt lat="49.94468" lon="6.19707">
        <ele>354</ele>
        <time>2026-08-25T14:42:03+00:00</time>
      </trkpt>
      <trkpt lat="49.94466" lon="6.19706">
        <ele>354</ele>
        <time>2026-08-25T14:42:06+00:00</time>
      </trkpt>
      <trkpt lat="49.94457" lon="6.19718">
        <ele>359</ele>
        <time>2026-08-25T14:42:09+00:00</time>
      </trkpt>
      <trkpt lat="49.9446" lon="6.19695">
        <ele>361</ele>
        <time>2026-08-25T14:42:12+00:00</time>
      </trkpt>
      <trkpt lat="49.9445" lon="6.19706">
        <ele>366</ele>
        <time>2026-08-25T14:42:15+00:00</time>
      </trkpt>
      <trkpt lat="49.9444" lon="6.19729">
        <ele>365</ele>
        <time>2026-08-25T14:42:18+00:00</time>
      </trkpt>
      <trkpt lat="49.94439" lon="6.19698">
        <ele>370</ele>
        <time>2026-08-25T14:42:21+00:00</time>
      </trkpt>
      <trkpt lat="49.9444" lon="6.1969">
        <ele>368</ele>
        <time>2026-08-25T14:42:24+00:00</time>
      </trkpt>
      <trkpt lat="49.94437" lon="6.19694">
        <ele>370</ele>
        <time>2026-08-25T14:42:27+00:00</time>
      </trkpt>
      <trkpt lat="49.94427" lon="6.19723">
        <ele>372</ele>
        <time>2026-08-25T14:42:30+00:00</time>
      </trkpt>
      <trkpt lat="49.94425" lon="6.1971">
        <ele>376</ele>
        <time>2026-08-25T14:42:33+00:00</time>
      </trkpt>
      <trkpt lat="49.94426" lon="6.19701">
        <ele>376</ele>
        <time>2026-08-25T14:42:36+00:00</time>
      </trkpt>
      <trkpt lat="49.94425" lon="6.19698">
        <ele>374</ele>
        <time>2026-08-25T14:42:39+00:00</time>
      </trkpt>
      <trkpt lat="49.94424" lon="6.19698">
        <ele>374</ele>
        <time>2026-08-25T14:42:42+00:00</time>
      </trkpt>
      <trkpt lat="49.94424" lon="6.19701">
        <ele>376</ele>
        <time>2026-08-25T14:42:45+00:00</time>
      </trkpt>
      <trkpt lat="49.94415" lon="6.19694">
        <ele>378</ele>
        <time>2026-08-25T14:42:48+00:00</time>
      </trkpt>
      <trkpt lat="49.94416" lon="6.19708">
        <ele>381</ele>
        <time>2026-08-25T14:42:51+00:00</time>
      </trkpt>
      <trkpt lat="49.94413" lon="6.19705">
        <ele>381</ele>
        <time>2026-08-25T14:42:54+00:00</time>
      </trkpt>
      <trkpt lat="49.94413" lon="6.19705">
        <ele>381</ele>
        <time>2026-08-25T14:42:57+00:00</time>
      </trkpt>
      <trkpt lat="49.94411" lon="6.19704">
        <ele>381</ele>
        <time>2026-08-25T14:43:00+00:00</time>
      </trkpt>
      <trkpt lat="49.9441" lon="6.19706">
        <ele>384</ele>
        <time>2026-08-25T14:43:03+00:00</time>
      </trkpt>
      <trkpt lat="49.94397" lon="6.19687">
        <ele>383</ele>
        <time>2026-08-25T14:43:06+00:00</time>
      </trkpt>
      <trkpt lat="49.94394" lon="6.19678">
        <ele>383</ele>
        <time>2026-08-25T14:43:09+00:00</time>
      </trkpt>
      <trkpt lat="49.94381" lon="6.19662">
        <ele>387</ele>
        <time>2026-08-25T14:43:12+00:00</time>
      </trkpt>
      <trkpt lat="49.9436" lon="6.19615">
        <ele>388</ele>
        <time>2026-08-25T14:43:15+00:00</time>
      </trkpt>
      <trkpt lat="49.94345" lon="6.19592">
        <ele>388</ele>
        <time>2026-08-25T14:43:18+00:00</time>
      </trkpt>
      <trkpt lat="49.94329" lon="6.19575">
        <ele>393</ele>
        <time>2026-08-25T14:43:21+00:00</time>
      </trkpt>
      <trkpt lat="49.94311" lon="6.19549">
        <ele>394</ele>
        <time>2026-08-25T14:43:24+00:00</time>
      </trkpt>
      <trkpt lat="49.94298" lon="6.1954">
        <ele>401</ele>
        <time>2026-08-25T14:43:27+00:00</time>
      </trkpt>
      <trkpt lat="49.94291" lon="6.19532">
        <ele>401</ele>
        <time>2026-08-25T14:43:30+00:00</time>
      </trkpt>
      <trkpt lat="49.94273" lon="6.19501">
        <ele>401</ele>
        <time>2026-08-25T14:43:33+00:00</time>
      </trkpt>
      <trkpt lat="49.94256" lon="6.19469">
        <ele>392</ele>
        <time>2026-08-25T14:43:36+00:00</time>
      </trkpt>
      <trkpt lat="49.94227" lon="6.19434">
        <ele>392</ele>
        <time>2026-08-25T14:43:39+00:00</time>
      </trkpt>
      <trkpt lat="49.94206" lon="6.1941">
        <ele>392</ele>
        <time>2026-08-25T14:43:42+00:00</time>
      </trkpt>
      <trkpt lat="49.94174" lon="6.19373">
        <ele>393</ele>
        <time>2026-08-25T14:43:45+00:00</time>
      </trkpt>
      <trkpt lat="49.94167" lon="6.19366">
        <ele>392</ele>
        <time>2026-08-25T14:43:48+00:00</time>
      </trkpt>
      <trkpt lat="49.94139" lon="6.19346">
        <ele>401</ele>
        <time>2026-08-25T14:43:51+00:00</time>
      </trkpt>
      <trkpt lat="49.94117" lon="6.19326">
        <ele>405</ele>
        <time>2026-08-25T14:43:54+00:00</time>
      </trkpt>
      <trkpt lat="49.94086" lon="6.19297">
        <ele>409</ele>
        <time>2026-08-25T14:43:57+00:00</time>
      </trkpt>
      <trkpt lat="49.94065" lon="6.19269">
        <ele>410</ele>
        <time>2026-08-25T14:44:00+00:00</time>
      </trkpt>
      <trkpt lat="49.94064" lon="6.19262">
        <ele>417</ele>
        <time>2026-08-25T14:44:03+00:00</time>
      </trkpt>
      <trkpt lat="49.94065" lon="6.19255">
        <ele>418</ele>
        <time>2026-08-25T14:44:06+00:00</time>
      </trkpt>
      <trkpt lat="49.9407" lon="6.19226">
        <ele>412</ele>
        <time>2026-08-25T14:44:09+00:00</time>
      </trkpt>
      <trkpt lat="49.94077" lon="6.19193">
        <ele>412</ele>
        <time>2026-08-25T14:44:12+00:00</time>
      </trkpt>
      <trkpt lat="49.94086" lon="6.19169">
        <ele>408</ele>
        <time>2026-08-25T14:44:15+00:00</time>
      </trkpt>
      <trkpt lat="49.94096" lon="6.19149">
        <ele>404</ele>
        <time>2026-08-25T14:44:18+00:00</time>
      </trkpt>
      <trkpt lat="49.94098" lon="6.1914">
        <ele>407</ele>
        <time>2026-08-25T14:44:21+00:00</time>
      </trkpt>
      <trkpt lat="49.94098" lon="6.19121">
        <ele>406</ele>
        <time>2026-08-25T14:44:24+00:00</time>
      </trkpt>
      <trkpt lat="49.9409" lon="6.19085">
        <ele>407</ele>
        <time>2026-08-25T14:44:27+00:00</time>
      </trkpt>
      <trkpt lat="49.94078" lon="6.19047">
        <ele>406</ele>
        <time>2026-08-25T14:44:30+00:00</time>
      </trkpt>
      <trkpt lat="49.9407" lon="6.19011">
        <ele>401</ele>
        <time>2026-08-25T14:44:33+00:00</time>
      </trkpt>
      <trkpt lat="49.9406" lon="6.18965">
        <ele>395</ele>
        <time>2026-08-25T14:44:36+00:00</time>
      </trkpt>
      <trkpt lat="49.94044" lon="6.18931">
        <ele>396</ele>
        <time>2026-08-25T14:44:39+00:00</time>
      </trkpt>
      <trkpt lat="49.94037" lon="6.18919">
        <ele>398</ele>
        <time>2026-08-25T14:44:42+00:00</time>
      </trkpt>
      <trkpt lat="49.94036" lon="6.18913">
        <ele>398</ele>
        <time>2026-08-25T14:44:45+00:00</time>
      </trkpt>
      <trkpt lat="49.94038" lon="6.18896">
        <ele>394</ele>
        <time>2026-08-25T14:44:48+00:00</time>
      </trkpt>
      <trkpt lat="49.94038" lon="6.18884">
        <ele>396</ele>
        <time>2026-08-25T14:44:51+00:00</time>
      </trkpt>
      <trkpt lat="49.94032" lon="6.18852">
        <ele>394</ele>
        <time>2026-08-25T14:44:54+00:00</time>
      </trkpt>
      <trkpt lat="49.94024" lon="6.1881">
        <ele>394</ele>
        <time>2026-08-25T14:44:57+00:00</time>
      </trkpt>
      <trkpt lat="49.94014" lon="6.1877">
        <ele>398</ele>
        <time>2026-08-25T14:45:00+00:00</time>
      </trkpt>
      <trkpt lat="49.93996" lon="6.18698">
        <ele>422</ele>
        <time>2026-08-25T14:45:03+00:00</time>
      </trkpt>
      <trkpt lat="49.93988" lon="6.18653">
        <ele>429</ele>
        <time>2026-08-25T14:45:06+00:00</time>
      </trkpt>
      <trkpt lat="49.93983" lon="6.18616">
        <ele>429</ele>
        <time>2026-08-25T14:45:09+00:00</time>
      </trkpt>
      <trkpt lat="49.93982" lon="6.18581">
        <ele>429</ele>
        <time>2026-08-25T14:45:12+00:00</time>
      </trkpt>
      <trkpt lat="49.93982" lon="6.18551">
        <ele>429</ele>
        <time>2026-08-25T14:45:15+00:00</time>
      </trkpt>
      <trkpt lat="49.93986" lon="6.18524">
        <ele>434</ele>
        <time>2026-08-25T14:45:18+00:00</time>
      </trkpt>
      <trkpt lat="49.93998" lon="6.18486">
        <ele>440</ele>
        <time>2026-08-25T14:45:21+00:00</time>
      </trkpt>
      <trkpt lat="49.9402" lon="6.1842">
        <ele>441</ele>
        <time>2026-08-25T14:45:24+00:00</time>
      </trkpt>
      <trkpt lat="49.94033" lon="6.18387">
        <ele>440</ele>
        <time>2026-08-25T14:45:27+00:00</time>
      </trkpt>
      <trkpt lat="49.94043" lon="6.18376">
        <ele>443</ele>
        <time>2026-08-25T14:45:30+00:00</time>
      </trkpt>
      <trkpt lat="49.9405" lon="6.18389">
        <ele>439</ele>
        <time>2026-08-25T14:45:33+00:00</time>
      </trkpt>
      <trkpt lat="49.94051" lon="6.184">
        <ele>434</ele>
        <time>2026-08-25T14:45:36+00:00</time>
      </trkpt>
      <trkpt lat="49.94047" lon="6.18449">
        <ele>429</ele>
        <time>2026-08-25T14:45:39+00:00</time>
      </trkpt>
      <trkpt lat="49.94046" lon="6.18484">
        <ele>422</ele>
        <time>2026-08-25T14:45:42+00:00</time>
      </trkpt>
      <trkpt lat="49.94046" lon="6.18522">
        <ele>404</ele>
        <time>2026-08-25T14:45:45+00:00</time>
      </trkpt>
      <trkpt lat="49.94048" lon="6.18566">
        <ele>402</ele>
        <time>2026-08-25T14:45:48+00:00</time>
      </trkpt>
      <trkpt lat="49.94053" lon="6.18652">
        <ele>372</ele>
        <time>2026-08-25T14:45:51+00:00</time>
      </trkpt>
      <trkpt lat="49.94061" lon="6.1869">
        <ele>370</ele>
        <time>2026-08-25T14:45:54+00:00</time>
      </trkpt>
      <trkpt lat="49.94072" lon="6.18721">
        <ele>361</ele>
        <time>2026-08-25T14:45:57+00:00</time>
      </trkpt>
      <trkpt lat="49.94085" lon="6.18753">
        <ele>357</ele>
        <time>2026-08-25T14:46:00+00:00</time>
      </trkpt>
      <trkpt lat="49.94103" lon="6.18794">
        <ele>349</ele>
        <time>2026-08-25T14:46:03+00:00</time>
      </trkpt>
      <trkpt lat="49.94115" lon="6.18827">
        <ele>347</ele>
        <time>2026-08-25T14:46:06+00:00</time>
      </trkpt>
      <trkpt lat="49.94128" lon="6.18861">
        <ele>347</ele>
        <time>2026-08-25T14:46:09+00:00</time>
      </trkpt>
      <trkpt lat="49.94141" lon="6.18889">
        <ele>347</ele>
        <time>2026-08-25T14:46:12+00:00</time>
      </trkpt>
      <trkpt lat="49.94157" lon="6.18936">
        <ele>345</ele>
        <time>2026-08-25T14:46:15+00:00</time>
      </trkpt>
      <trkpt lat="49.94175" lon="6.18981">
        <ele>344</ele>
        <time>2026-08-25T14:46:18+00:00</time>
      </trkpt>
      <trkpt lat="49.94189" lon="6.19023">
        <ele>342</ele>
        <time>2026-08-25T14:46:21+00:00</time>
      </trkpt>
      <trkpt lat="49.94203" lon="6.19055">
        <ele>329</ele>
        <time>2026-08-25T14:46:24+00:00</time>
      </trkpt>
      <trkpt lat="49.9422" lon="6.19107">
        <ele>325</ele>
        <time>2026-08-25T14:46:27+00:00</time>
      </trkpt>
      <trkpt lat="49.94232" lon="6.19129">
        <ele>321</ele>
        <time>2026-08-25T14:46:30+00:00</time>
      </trkpt>
      <trkpt lat="49.9425" lon="6.19179">
        <ele>313</ele>
        <time>2026-08-25T14:46:33+00:00</time>
      </trkpt>
      <trkpt lat="49.94265" lon="6.19225">
        <ele>306</ele>
        <time>2026-08-25T14:46:36+00:00</time>
      </trkpt>
      <trkpt lat="49.94271" lon="6.19235">
        <ele>303</ele>
        <time>2026-08-25T14:46:39+00:00</time>
      </trkpt>
      <trkpt lat="49.94277" lon="6.19244">
        <ele>301</ele>
        <time>2026-08-25T14:46:42+00:00</time>
      </trkpt>
      <trkpt lat="49.94293" lon="6.1926">
        <ele>301</ele>
        <time>2026-08-25T14:46:45+00:00</time>
      </trkpt>
      <trkpt lat="49.94313" lon="6.19269">
        <ele>300</ele>
        <time>2026-08-25T14:46:48+00:00</time>
      </trkpt>
      <trkpt lat="49.94332" lon="6.19276">
        <ele>294</ele>
        <time>2026-08-25T14:46:51+00:00</time>
      </trkpt>
      <trkpt lat="49.94338" lon="6.19276">
        <ele>294</ele>
        <time>2026-08-25T14:46:54+00:00</time>
      </trkpt>
      <trkpt lat="49.9436" lon="6.19287">
        <ele>288</ele>
        <time>2026-08-25T14:46:57+00:00</time>
      </trkpt>
      <trkpt lat="49.94393" lon="6.19304">
        <ele>284</ele>
        <time>2026-08-25T14:47:00+00:00</time>
      </trkpt>
      <trkpt lat="49.94403" lon="6.19312">
        <ele>279</ele>
        <time>2026-08-25T14:47:03+00:00</time>
      </trkpt>
      <trkpt lat="49.94405" lon="6.1931">
        <ele>280</ele>
        <time>2026-08-25T14:47:06+00:00</time>
      </trkpt>
      <trkpt lat="49.94413" lon="6.19313">
        <ele>283</ele>
        <time>2026-08-25T14:47:09+00:00</time>
      </trkpt>
      <trkpt lat="49.94444" lon="6.19308">
        <ele>283</ele>
        <time>2026-08-25T14:47:12+00:00</time>
      </trkpt>
      <trkpt lat="49.94448" lon="6.19305">
        <ele>283</ele>
        <time>2026-08-25T14:47:15+00:00</time>
      </trkpt>
      <trkpt lat="49.94476" lon="6.19309">
        <ele>280</ele>
        <time>2026-08-25T14:47:18+00:00</time>
      </trkpt>
      <trkpt lat="49.9449" lon="6.19306">
        <ele>279</ele>
        <time>2026-08-25T14:47:21+00:00</time>
      </trkpt>
      <trkpt lat="49.945" lon="6.19302">
        <ele>288</ele>
        <time>2026-08-25T14:47:24+00:00</time>
      </trkpt>
      <trkpt lat="49.94504" lon="6.19301">
        <ele>279</ele>
        <time>2026-08-25T14:47:27+00:00</time>
      </trkpt>
      <trkpt lat="49.94505" lon="6.19297">
        <ele>283</ele>
        <time>2026-08-25T14:47:30+00:00</time>
      </trkpt>
      <trkpt lat="49.94509" lon="6.19259">
        <ele>297</ele>
        <time>2026-08-25T14:47:33+00:00</time>
      </trkpt>
      <trkpt lat="49.94515" lon="6.19197">
        <ele>297</ele>
        <time>2026-08-25T14:47:36+00:00</time>
      </trkpt>
      <trkpt lat="49.94516" lon="6.19192">
        <ele>297</ele>
        <time>2026-08-25T14:47:39+00:00</time>
      </trkpt>
      <trkpt lat="49.94522" lon="6.19232">
        <ele>288</ele>
        <time>2026-08-25T14:47:42+00:00</time>
      </trkpt>
      <trkpt lat="49.94525" lon="6.19236">
        <ele>288</ele>
        <time>2026-08-25T14:47:45+00:00</time>
      </trkpt>
      <trkpt lat="49.94525" lon="6.19225">
        <ele>290</ele>
        <time>2026-08-25T14:47:48+00:00</time>
      </trkpt>
      <trkpt lat="49.94526" lon="6.19222">
        <ele>290</ele>
        <time>2026-08-25T14:47:51+00:00</time>
      </trkpt>
      <trkpt lat="49.94528" lon="6.19223">
        <ele>290</ele>
        <time>2026-08-25T14:47:54+00:00</time>
      </trkpt>
      <trkpt lat="49.94531" lon="6.19239">
        <ele>279</ele>
        <time>2026-08-25T14:47:57+00:00</time>
      </trkpt>
      <trkpt lat="49.94532" lon="6.19232">
        <ele>279</ele>
        <time>2026-08-25T14:48:00+00:00</time>
      </trkpt>
      <trkpt lat="49.94538" lon="6.19248">
        <ele>279</ele>
        <time>2026-08-25T14:48:03+00:00</time>
      </trkpt>
      <trkpt lat="49.9454" lon="6.19232">
        <ele>279</ele>
        <time>2026-08-25T14:48:06+00:00</time>
      </trkpt>
      <trkpt lat="49.94544" lon="6.19229">
        <ele>269</ele>
        <time>2026-08-25T14:48:09+00:00</time>
      </trkpt>
      <trkpt lat="49.94548" lon="6.19233">
        <ele>269</ele>
        <time>2026-08-25T14:48:12+00:00</time>
      </trkpt>
      <trkpt lat="49.9456" lon="6.1926">
        <ele>260</ele>
        <time>2026-08-25T14:48:15+00:00</time>
      </trkpt>
      <trkpt lat="49.94577" lon="6.19298">
        <ele>261</ele>
        <time>2026-08-25T14:48:18+00:00</time>
      </trkpt>
      <trkpt lat="49.94592" lon="6.19326">
        <ele>260</ele>
        <time>2026-08-25T14:48:21+00:00</time>
      </trkpt>
      <trkpt lat="49.9461" lon="6.19359">
        <ele>260</ele>
        <time>2026-08-25T14:48:24+00:00</time>
      </trkpt>
      <trkpt lat="49.94626" lon="6.19389">
        <ele>259</ele>
        <time>2026-08-25T14:48:27+00:00</time>
      </trkpt>
      <trkpt lat="49.94649" lon="6.1943">
        <ele>258</ele>
        <time>2026-08-25T14:48:30+00:00</time>
      </trkpt>
      <trkpt lat="49.94667" lon="6.1946">
        <ele>258</ele>
        <time>2026-08-25T14:48:33+00:00</time>
      </trkpt>
      <trkpt lat="49.94697" lon="6.19509">
        <ele>259</ele>
        <time>2026-08-25T14:48:36+00:00</time>
      </trkpt>
      <trkpt lat="49.94728" lon="6.19554">
        <ele>260</ele>
        <time>2026-08-25T14:48:39+00:00</time>
      </trkpt>
      <trkpt lat="49.94731" lon="6.19557">
        <ele>264</ele>
        <time>2026-08-25T14:48:42+00:00</time>
      </trkpt>
      <trkpt lat="49.94735" lon="6.1956">
        <ele>264</ele>
        <time>2026-08-25T14:48:45+00:00</time>
      </trkpt>
      <trkpt lat="49.94744" lon="6.19564">
        <ele>265</ele>
        <time>2026-08-25T14:48:48+00:00</time>
      </trkpt>
      <trkpt lat="49.94776" lon="6.19564">
        <ele>277</ele>
        <time>2026-08-25T14:48:51+00:00</time>
      </trkpt>
      <trkpt lat="49.948" lon="6.19562">
        <ele>281</ele>
        <time>2026-08-25T14:48:54+00:00</time>
      </trkpt>
      <trkpt lat="49.94828" lon="6.1956">
        <ele>281</ele>
        <time>2026-08-25T14:48:57+00:00</time>
      </trkpt>
      <trkpt lat="49.94832" lon="6.19558">
        <ele>281</ele>
        <time>2026-08-25T14:49:00+00:00</time>
      </trkpt>
      <trkpt lat="49.94834" lon="6.19553">
        <ele>281</ele>
        <time>2026-08-25T14:49:03+00:00</time>
      </trkpt>
      <trkpt lat="49.94832" lon="6.19548">
        <ele>285</ele>
        <time>2026-08-25T14:49:06+00:00</time>
      </trkpt>
      <trkpt lat="49.94813" lon="6.19543">
        <ele>286</ele>
        <time>2026-08-25T14:49:09+00:00</time>
      </trkpt>
      <trkpt lat="49.94789" lon="6.19532">
        <ele>289</ele>
        <time>2026-08-25T14:49:12+00:00</time>
      </trkpt>
      <trkpt lat="49.94765" lon="6.19514">
        <ele>290</ele>
        <time>2026-08-25T14:49:15+00:00</time>
      </trkpt>
      <trkpt lat="49.9475" lon="6.19486">
        <ele>292</ele>
        <time>2026-08-25T14:49:18+00:00</time>
      </trkpt>
      <trkpt lat="49.94729" lon="6.19441">
        <ele>296</ele>
        <time>2026-08-25T14:49:21+00:00</time>
      </trkpt>
      <trkpt lat="49.94713" lon="6.19391">
        <ele>306</ele>
        <time>2026-08-25T14:49:24+00:00</time>
      </trkpt>
      <trkpt lat="49.94704" lon="6.19365">
        <ele>311</ele>
        <time>2026-08-25T14:49:27+00:00</time>
      </trkpt>
      <trkpt lat="49.94696" lon="6.19333">
        <ele>315</ele>
        <time>2026-08-25T14:49:30+00:00</time>
      </trkpt>
      <trkpt lat="49.94687" lon="6.19298">
        <ele>321</ele>
        <time>2026-08-25T14:49:33+00:00</time>
      </trkpt>
      <trkpt lat="49.9468" lon="6.19262">
        <ele>326</ele>
        <time>2026-08-25T14:49:36+00:00</time>
      </trkpt>
      <trkpt lat="49.94671" lon="6.19215">
        <ele>333</ele>
        <time>2026-08-25T14:49:39+00:00</time>
      </trkpt>
      <trkpt lat="49.94663" lon="6.1916">
        <ele>334</ele>
        <time>2026-08-25T14:49:42+00:00</time>
      </trkpt>
      <trkpt lat="49.94659" lon="6.19102">
        <ele>335</ele>
        <time>2026-08-25T14:49:45+00:00</time>
      </trkpt>
      <trkpt lat="49.94656" lon="6.19042">
        <ele>339</ele>
        <time>2026-08-25T14:49:48+00:00</time>
      </trkpt>
      <trkpt lat="49.94657" lon="6.19006">
        <ele>345</ele>
        <time>2026-08-25T14:49:51+00:00</time>
      </trkpt>
      <trkpt lat="49.94657" lon="6.18978">
        <ele>352</ele>
        <time>2026-08-25T14:49:54+00:00</time>
      </trkpt>
      <trkpt lat="49.94672" lon="6.19008">
        <ele>359</ele>
        <time>2026-08-25T14:49:57+00:00</time>
      </trkpt>
      <trkpt lat="49.94693" lon="6.1905">
        <ele>370</ele>
        <time>2026-08-25T14:50:00+00:00</time>
      </trkpt>
      <trkpt lat="49.9472" lon="6.19092">
        <ele>373</ele>
        <time>2026-08-25T14:50:03+00:00</time>
      </trkpt>
      <trkpt lat="49.94741" lon="6.1911">
        <ele>379</ele>
        <time>2026-08-25T14:50:06+00:00</time>
      </trkpt>
      <trkpt lat="49.94766" lon="6.19141">
        <ele>386</ele>
        <time>2026-08-25T14:50:09+00:00</time>
      </trkpt>
      <trkpt lat="49.94786" lon="6.19174">
        <ele>388</ele>
        <time>2026-08-25T14:50:12+00:00</time>
      </trkpt>
      <trkpt lat="49.948" lon="6.1919">
        <ele>390</ele>
        <time>2026-08-25T14:50:15+00:00</time>
      </trkpt>
      <trkpt lat="49.94809" lon="6.19196">
        <ele>392</ele>
        <time>2026-08-25T14:50:18+00:00</time>
      </trkpt>
      <trkpt lat="49.94813" lon="6.19204">
        <ele>393</ele>
        <time>2026-08-25T14:50:21+00:00</time>
      </trkpt>
      <trkpt lat="49.94834" lon="6.19219">
        <ele>397</ele>
        <time>2026-08-25T14:50:24+00:00</time>
      </trkpt>
      <trkpt lat="49.9484" lon="6.19221">
        <ele>395</ele>
        <time>2026-08-25T14:50:27+00:00</time>
      </trkpt>
      <trkpt lat="49.94845" lon="6.19219">
        <ele>400</ele>
        <time>2026-08-25T14:50:30+00:00</time>
      </trkpt>
      <trkpt lat="49.94854" lon="6.19209">
        <ele>405</ele>
        <time>2026-08-25T14:50:33+00:00</time>
      </trkpt>
      <trkpt lat="49.94856" lon="6.19202">
        <ele>405</ele>
        <time>2026-08-25T14:50:36+00:00</time>
      </trkpt>
      <trkpt lat="49.94859" lon="6.192">
        <ele>407</ele>
        <time>2026-08-25T14:50:39+00:00</time>
      </trkpt>
      <trkpt lat="49.94872" lon="6.19175">
        <ele>407</ele>
        <time>2026-08-25T14:50:42+00:00</time>
      </trkpt>
      <trkpt lat="49.94879" lon="6.19156">
        <ele>413</ele>
        <time>2026-08-25T14:50:45+00:00</time>
      </trkpt>
      <trkpt lat="49.9489" lon="6.1914">
        <ele>409</ele>
        <time>2026-08-25T14:50:48+00:00</time>
      </trkpt>
      <trkpt lat="49.94902" lon="6.19123">
        <ele>409</ele>
        <time>2026-08-25T14:50:51+00:00</time>
      </trkpt>
      <trkpt lat="49.94916" lon="6.19112">
        <ele>410</ele>
        <time>2026-08-25T14:50:54+00:00</time>
      </trkpt>
      <trkpt lat="49.9492" lon="6.19108">
        <ele>410</ele>
        <time>2026-08-25T14:50:57+00:00</time>
      </trkpt>
      <trkpt lat="49.94945" lon="6.19097">
        <ele>407</ele>
        <time>2026-08-25T14:51:00+00:00</time>
      </trkpt>
      <trkpt lat="49.94954" lon="6.19097">
        <ele>411</ele>
        <time>2026-08-25T14:51:03+00:00</time>
      </trkpt>
      <trkpt lat="49.94966" lon="6.19101">
        <ele>405</ele>
        <time>2026-08-25T14:51:06+00:00</time>
      </trkpt>
      <trkpt lat="49.94981" lon="6.19108">
        <ele>407</ele>
        <time>2026-08-25T14:51:09+00:00</time>
      </trkpt>
      <trkpt lat="49.94981" lon="6.19108">
        <ele>407</ele>
        <time>2026-08-25T14:51:12+00:00</time>
      </trkpt>
      <trkpt lat="49.95003" lon="6.19123">
        <ele>399</ele>
        <time>2026-08-25T14:51:15+00:00</time>
      </trkpt>
      <trkpt lat="49.95014" lon="6.19142">
        <ele>390</ele>
        <time>2026-08-25T14:51:18+00:00</time>
      </trkpt>
      <trkpt lat="49.95023" lon="6.19152">
        <ele>386</ele>
        <time>2026-08-25T14:51:21+00:00</time>
      </trkpt>
      <trkpt lat="49.95025" lon="6.1916">
        <ele>386</ele>
        <time>2026-08-25T14:51:24+00:00</time>
      </trkpt>
      <trkpt lat="49.95026" lon="6.19164">
        <ele>380</ele>
        <time>2026-08-25T14:51:27+00:00</time>
      </trkpt>
      <trkpt lat="49.95029" lon="6.19167">
        <ele>380</ele>
        <time>2026-08-25T14:51:30+00:00</time>
      </trkpt>
      <trkpt lat="49.95039" lon="6.19163">
        <ele>389</ele>
        <time>2026-08-25T14:51:33+00:00</time>
      </trkpt>
      <trkpt lat="49.95059" lon="6.19147">
        <ele>389</ele>
        <time>2026-08-25T14:51:36+00:00</time>
      </trkpt>
      <trkpt lat="49.95079" lon="6.19131">
        <ele>389</ele>
        <time>2026-08-25T14:51:39+00:00</time>
      </trkpt>
      <trkpt lat="49.95103" lon="6.19106">
        <ele>381</ele>
        <time>2026-08-25T14:51:42+00:00</time>
      </trkpt>
      <trkpt lat="49.95127" lon="6.19077">
        <ele>374</ele>
        <time>2026-08-25T14:51:45+00:00</time>
      </trkpt>
      <trkpt lat="49.95143" lon="6.19057">
        <ele>366</ele>
        <time>2026-08-25T14:51:48+00:00</time>
      </trkpt>
      <trkpt lat="49.95153" lon="6.19039">
        <ele>361</ele>
        <time>2026-08-25T14:51:51+00:00</time>
      </trkpt>
      <trkpt lat="49.95163" lon="6.19018">
        <ele>360</ele>
        <time>2026-08-25T14:51:54+00:00</time>
      </trkpt>
      <trkpt lat="49.95178" lon="6.18972">
        <ele>359</ele>
        <time>2026-08-25T14:51:57+00:00</time>
      </trkpt>
      <trkpt lat="49.95184" lon="6.18947">
        <ele>358</ele>
        <time>2026-08-25T14:52:00+00:00</time>
      </trkpt>
      <trkpt lat="49.95191" lon="6.1891">
        <ele>351</ele>
        <time>2026-08-25T14:52:03+00:00</time>
      </trkpt>
      <trkpt lat="49.95197" lon="6.18874">
        <ele>350</ele>
        <time>2026-08-25T14:52:06+00:00</time>
      </trkpt>
      <trkpt lat="49.95205" lon="6.18831">
        <ele>347</ele>
        <time>2026-08-25T14:52:09+00:00</time>
      </trkpt>
      <trkpt lat="49.95208" lon="6.1882">
        <ele>347</ele>
        <time>2026-08-25T14:52:12+00:00</time>
      </trkpt>
      <trkpt lat="49.95211" lon="6.18811">
        <ele>345</ele>
        <time>2026-08-25T14:52:15+00:00</time>
      </trkpt>
      <trkpt lat="49.95217" lon="6.1881">
        <ele>345</ele>
        <time>2026-08-25T14:52:18+00:00</time>
      </trkpt>
      <trkpt lat="49.95221" lon="6.18814">
        <ele>343</ele>
        <time>2026-08-25T14:52:21+00:00</time>
      </trkpt>
      <trkpt lat="49.95249" lon="6.18855">
        <ele>339</ele>
        <time>2026-08-25T14:52:24+00:00</time>
      </trkpt>
      <trkpt lat="49.95255" lon="6.18861">
        <ele>337</ele>
        <time>2026-08-25T14:52:27+00:00</time>
      </trkpt>
      <trkpt lat="49.95262" lon="6.18863">
        <ele>336</ele>
        <time>2026-08-25T14:52:30+00:00</time>
      </trkpt>
      <trkpt lat="49.95274" lon="6.18878">
        <ele>334</ele>
        <time>2026-08-25T14:52:33+00:00</time>
      </trkpt>
      <trkpt lat="49.95299" lon="6.18914">
        <ele>331</ele>
        <time>2026-08-25T14:52:36+00:00</time>
      </trkpt>
      <trkpt lat="49.95327" lon="6.18946">
        <ele>329</ele>
        <time>2026-08-25T14:52:39+00:00</time>
      </trkpt>
      <trkpt lat="49.95345" lon="6.18971">
        <ele>328</ele>
        <time>2026-08-25T14:52:42+00:00</time>
      </trkpt>
      <trkpt lat="49.95368" lon="6.19003">
        <ele>326</ele>
        <time>2026-08-25T14:52:45+00:00</time>
      </trkpt>
      <trkpt lat="49.95385" lon="6.19031">
        <ele>323</ele>
        <time>2026-08-25T14:52:48+00:00</time>
      </trkpt>
      <trkpt lat="49.95407" lon="6.1906">
        <ele>322</ele>
        <time>2026-08-25T14:52:51+00:00</time>
      </trkpt>
      <trkpt lat="49.9543" lon="6.19089">
        <ele>319</ele>
        <time>2026-08-25T14:52:54+00:00</time>
      </trkpt>
      <trkpt lat="49.95453" lon="6.19119">
        <ele>313</ele>
        <time>2026-08-25T14:52:57+00:00</time>
      </trkpt>
      <trkpt lat="49.95481" lon="6.19143">
        <ele>305</ele>
        <time>2026-08-25T14:53:00+00:00</time>
      </trkpt>
      <trkpt lat="49.95495" lon="6.19155">
        <ele>302</ele>
        <time>2026-08-25T14:53:03+00:00</time>
      </trkpt>
      <trkpt lat="49.95513" lon="6.19163">
        <ele>301</ele>
        <time>2026-08-25T14:53:06+00:00</time>
      </trkpt>
      <trkpt lat="49.95538" lon="6.19167">
        <ele>301</ele>
        <time>2026-08-25T14:53:09+00:00</time>
      </trkpt>
      <trkpt lat="49.95554" lon="6.19165">
        <ele>301</ele>
        <time>2026-08-25T14:53:12+00:00</time>
      </trkpt>
      <trkpt lat="49.9557" lon="6.19159">
        <ele>300</ele>
        <time>2026-08-25T14:53:15+00:00</time>
      </trkpt>
      <trkpt lat="49.95589" lon="6.19153">
        <ele>300</ele>
        <time>2026-08-25T14:53:18+00:00</time>
      </trkpt>
      <trkpt lat="49.95604" lon="6.19143">
        <ele>301</ele>
        <time>2026-08-25T14:53:21+00:00</time>
      </trkpt>
      <trkpt lat="49.95617" lon="6.19127">
        <ele>298</ele>
        <time>2026-08-25T14:53:24+00:00</time>
      </trkpt>
      <trkpt lat="49.95632" lon="6.19109">
        <ele>296</ele>
        <time>2026-08-25T14:53:27+00:00</time>
      </trkpt>
      <trkpt lat="49.95643" lon="6.19088">
        <ele>293</ele>
        <time>2026-08-25T14:53:30+00:00</time>
      </trkpt>
      <trkpt lat="49.95647" lon="6.19071">
        <ele>294</ele>
        <time>2026-08-25T14:53:33+00:00</time>
      </trkpt>
      <trkpt lat="49.95652" lon="6.19066">
        <ele>285</ele>
        <time>2026-08-25T14:53:36+00:00</time>
      </trkpt>
      <trkpt lat="49.95661" lon="6.19066">
        <ele>281</ele>
        <time>2026-08-25T14:53:39+00:00</time>
      </trkpt>
      <trkpt lat="49.95659" lon="6.19053">
        <ele>283</ele>
        <time>2026-08-25T14:53:42+00:00</time>
      </trkpt>
      <trkpt lat="49.95655" lon="6.19043">
        <ele>282</ele>
        <time>2026-08-25T14:53:45+00:00</time>
      </trkpt>
      <trkpt lat="49.95648" lon="6.19034">
        <ele>281</ele>
        <time>2026-08-25T14:53:48+00:00</time>
      </trkpt>
      <trkpt lat="49.95652" lon="6.19024">
        <ele>282</ele>
        <time>2026-08-25T14:53:51+00:00</time>
      </trkpt>
      <trkpt lat="49.95654" lon="6.1902">
        <ele>281</ele>
        <time>2026-08-25T14:53:54+00:00</time>
      </trkpt>
      <trkpt lat="49.95663" lon="6.19019">
        <ele>282</ele>
        <time>2026-08-25T14:53:57+00:00</time>
      </trkpt>
      <trkpt lat="49.95664" lon="6.19019">
        <ele>282</ele>
        <time>2026-08-25T14:54:00+00:00</time>
      </trkpt>
      <trkpt lat="49.95673" lon="6.19015">
        <ele>282</ele>
        <time>2026-08-25T14:54:03+00:00</time>
      </trkpt>
      <trkpt lat="49.95694" lon="6.19012">
        <ele>282</ele>
        <time>2026-08-25T14:54:06+00:00</time>
      </trkpt>
      <trkpt lat="49.9573" lon="6.18992">
        <ele>282</ele>
        <time>2026-08-25T14:54:09+00:00</time>
      </trkpt>
      <trkpt lat="49.95739" lon="6.18982">
        <ele>282</ele>
        <time>2026-08-25T14:54:12+00:00</time>
      </trkpt>
      <trkpt lat="49.95747" lon="6.1897">
        <ele>282</ele>
        <time>2026-08-25T14:54:15+00:00</time>
      </trkpt>
      <trkpt lat="49.95753" lon="6.18968">
        <ele>286</ele>
        <time>2026-08-25T14:54:18+00:00</time>
      </trkpt>
      <trkpt lat="49.95757" lon="6.18959">
        <ele>286</ele>
        <time>2026-08-25T14:54:21+00:00</time>
      </trkpt>
      <trkpt lat="49.9576" lon="6.18959">
        <ele>286</ele>
        <time>2026-08-25T14:54:24+00:00</time>
      </trkpt>
      <trkpt lat="49.95763" lon="6.18959">
        <ele>289</ele>
        <time>2026-08-25T14:54:27+00:00</time>
      </trkpt>
      <trkpt lat="49.95763" lon="6.18956">
        <ele>289</ele>
        <time>2026-08-25T14:54:30+00:00</time>
      </trkpt>
      <trkpt lat="49.95768" lon="6.18955">
        <ele>289</ele>
        <time>2026-08-25T14:54:33+00:00</time>
      </trkpt>
      <trkpt lat="49.95774" lon="6.18949">
        <ele>293</ele>
        <time>2026-08-25T14:54:36+00:00</time>
      </trkpt>
      <trkpt lat="49.95779" lon="6.18942">
        <ele>293</ele>
        <time>2026-08-25T14:54:39+00:00</time>
      </trkpt>
      <trkpt lat="49.95779" lon="6.18939">
        <ele>294</ele>
        <time>2026-08-25T14:54:42+00:00</time>
      </trkpt>
      <trkpt lat="49.9578" lon="6.18939">
        <ele>294</ele>
        <time>2026-08-25T14:54:45+00:00</time>
      </trkpt>
      <trkpt lat="49.95783" lon="6.18937">
        <ele>299</ele>
        <time>2026-08-25T14:54:48+00:00</time>
      </trkpt>
      <trkpt lat="49.95784" lon="6.18939">
        <ele>299</ele>
        <time>2026-08-25T14:54:51+00:00</time>
      </trkpt>
      <trkpt lat="49.95788" lon="6.18935">
        <ele>299</ele>
        <time>2026-08-25T14:54:54+00:00</time>
      </trkpt>
      <trkpt lat="49.9579" lon="6.18931">
        <ele>299</ele>
        <time>2026-08-25T14:54:57+00:00</time>
      </trkpt>
      <trkpt lat="49.95801" lon="6.18925">
        <ele>310</ele>
        <time>2026-08-25T14:55:00+00:00</time>
      </trkpt>
      <trkpt lat="49.95798" lon="6.18918">
        <ele>306</ele>
        <time>2026-08-25T14:55:03+00:00</time>
      </trkpt>
      <trkpt lat="49.95799" lon="6.1891">
        <ele>306</ele>
        <time>2026-08-25T14:55:06+00:00</time>
      </trkpt>
      <trkpt lat="49.95807" lon="6.18893">
        <ele>316</ele>
        <time>2026-08-25T14:55:09+00:00</time>
      </trkpt>
      <trkpt lat="49.95805" lon="6.18866">
        <ele>316</ele>
        <time>2026-08-25T14:55:12+00:00</time>
      </trkpt>
      <trkpt lat="49.95807" lon="6.18861">
        <ele>316</ele>
        <time>2026-08-25T14:55:15+00:00</time>
      </trkpt>
      <trkpt lat="49.9581" lon="6.18871">
        <ele>316</ele>
        <time>2026-08-25T14:55:18+00:00</time>
      </trkpt>
      <trkpt lat="49.95812" lon="6.18863">
        <ele>322</ele>
        <time>2026-08-25T14:55:21+00:00</time>
      </trkpt>
      <trkpt lat="49.9582" lon="6.18853">
        <ele>322</ele>
        <time>2026-08-25T14:55:24+00:00</time>
      </trkpt>
      <trkpt lat="49.95819" lon="6.18865">
        <ele>322</ele>
        <time>2026-08-25T14:55:27+00:00</time>
      </trkpt>
      <trkpt lat="49.95822" lon="6.18868">
        <ele>325</ele>
        <time>2026-08-25T14:55:30+00:00</time>
      </trkpt>
      <trkpt lat="49.95828" lon="6.18859">
        <ele>326</ele>
        <time>2026-08-25T14:55:33+00:00</time>
      </trkpt>
      <trkpt lat="49.95835" lon="6.18856">
        <ele>327</ele>
        <time>2026-08-25T14:55:36+00:00</time>
      </trkpt>
      <trkpt lat="49.95839" lon="6.18852">
        <ele>327</ele>
        <time>2026-08-25T14:55:39+00:00</time>
      </trkpt>
      <trkpt lat="49.95846" lon="6.18841">
        <ele>325</ele>
        <time>2026-08-25T14:55:42+00:00</time>
      </trkpt>
      <trkpt lat="49.95857" lon="6.18829">
        <ele>324</ele>
        <time>2026-08-25T14:55:45+00:00</time>
      </trkpt>
      <trkpt lat="49.95866" lon="6.18826">
        <ele>324</ele>
        <time>2026-08-25T14:55:48+00:00</time>
      </trkpt>
      <trkpt lat="49.95883" lon="6.18829">
        <ele>321</ele>
        <time>2026-08-25T14:55:51+00:00</time>
      </trkpt>
      <trkpt lat="49.95903" lon="6.18836">
        <ele>320</ele>
        <time>2026-08-25T14:55:54+00:00</time>
      </trkpt>
      <trkpt lat="49.95904" lon="6.18837">
        <ele>320</ele>
        <time>2026-08-25T14:55:57+00:00</time>
      </trkpt>
      <trkpt lat="49.95904" lon="6.18829">
        <ele>318</ele>
        <time>2026-08-25T14:56:00+00:00</time>
      </trkpt>
      <trkpt lat="49.959" lon="6.18822">
        <ele>319</ele>
        <time>2026-08-25T14:56:03+00:00</time>
      </trkpt>
      <trkpt lat="49.95876" lon="6.18795">
        <ele>313</ele>
        <time>2026-08-25T14:56:06+00:00</time>
      </trkpt>
      <trkpt lat="49.95867" lon="6.18782">
        <ele>311</ele>
        <time>2026-08-25T14:56:09+00:00</time>
      </trkpt>
      <trkpt lat="49.9586" lon="6.18767">
        <ele>305</ele>
        <time>2026-08-25T14:56:12+00:00</time>
      </trkpt>
      <trkpt lat="49.95867" lon="6.18768">
        <ele>304</ele>
        <time>2026-08-25T14:56:15+00:00</time>
      </trkpt>
      <trkpt lat="49.95861" lon="6.18756">
        <ele>300</ele>
        <time>2026-08-25T14:56:18+00:00</time>
      </trkpt>
      <trkpt lat="49.95849" lon="6.18743">
        <ele>301</ele>
        <time>2026-08-25T14:56:21+00:00</time>
      </trkpt>
      <trkpt lat="49.95852" lon="6.18742">
        <ele>296</ele>
        <time>2026-08-25T14:56:24+00:00</time>
      </trkpt>
      <trkpt lat="49.95855" lon="6.18745">
        <ele>296</ele>
        <time>2026-08-25T14:56:27+00:00</time>
      </trkpt>
      <trkpt lat="49.95867" lon="6.18741">
        <ele>297</ele>
        <time>2026-08-25T14:56:30+00:00</time>
      </trkpt>
      <trkpt lat="49.9588" lon="6.18726">
        <ele>290</ele>
        <time>2026-08-25T14:56:33+00:00</time>
      </trkpt>
      <trkpt lat="49.9589" lon="6.18707">
        <ele>286</ele>
        <time>2026-08-25T14:56:36+00:00</time>
      </trkpt>
      <trkpt lat="49.95891" lon="6.187">
        <ele>284</ele>
        <time>2026-08-25T14:56:39+00:00</time>
      </trkpt>
      <trkpt lat="49.95913" lon="6.18658">
        <ele>276</ele>
        <time>2026-08-25T14:56:42+00:00</time>
      </trkpt>
      <trkpt lat="49.95928" lon="6.18635">
        <ele>274</ele>
        <time>2026-08-25T14:56:45+00:00</time>
      </trkpt>
      <trkpt lat="49.95953" lon="6.18605">
        <ele>273</ele>
        <time>2026-08-25T14:56:48+00:00</time>
      </trkpt>
      <trkpt lat="49.95978" lon="6.18575">
        <ele>270</ele>
        <time>2026-08-25T14:56:51+00:00</time>
      </trkpt>
      <trkpt lat="49.96019" lon="6.18525">
        <ele>264</ele>
        <time>2026-08-25T14:56:54+00:00</time>
      </trkpt>
      <trkpt lat="49.96037" lon="6.18504">
        <ele>262</ele>
        <time>2026-08-25T14:56:57+00:00</time>
      </trkpt>
      <trkpt lat="49.9606" lon="6.18482">
        <ele>259</ele>
        <time>2026-08-25T14:57:00+00:00</time>
      </trkpt>
      <trkpt lat="49.961" lon="6.18446">
        <ele>256</ele>
        <time>2026-08-25T14:57:03+00:00</time>
      </trkpt>
      <trkpt lat="49.96103" lon="6.18441">
        <ele>255</ele>
        <time>2026-08-25T14:57:06+00:00</time>
      </trkpt>
      <trkpt lat="49.96103" lon="6.18438">
        <ele>252</ele>
        <time>2026-08-25T14:57:09+00:00</time>
      </trkpt>
      <trkpt lat="49.96085" lon="6.18451">
        <ele>254</ele>
        <time>2026-08-25T14:57:12+00:00</time>
      </trkpt>
      <trkpt lat="49.96059" lon="6.18459">
        <ele>252</ele>
        <time>2026-08-25T14:57:15+00:00</time>
      </trkpt>
      <trkpt lat="49.9602" lon="6.18471">
        <ele>252</ele>
        <time>2026-08-25T14:57:18+00:00</time>
      </trkpt>
      <trkpt lat="49.96005" lon="6.18473">
        <ele>251</ele>
        <time>2026-08-25T14:57:21+00:00</time>
      </trkpt>
      <trkpt lat="49.95977" lon="6.1847">
        <ele>247</ele>
        <time>2026-08-25T14:57:24+00:00</time>
      </trkpt>
      <trkpt lat="49.95966" lon="6.18473">
        <ele>242</ele>
        <time>2026-08-25T14:57:27+00:00</time>
      </trkpt>
      <trkpt lat="49.95943" lon="6.18494">
        <ele>246</ele>
        <time>2026-08-25T14:57:30+00:00</time>
      </trkpt>
      <trkpt lat="49.95921" lon="6.18515">
        <ele>245</ele>
        <time>2026-08-25T14:57:33+00:00</time>
      </trkpt>
      <trkpt lat="49.95894" lon="6.1854">
        <ele>243</ele>
        <time>2026-08-25T14:57:36+00:00</time>
      </trkpt>
      <trkpt lat="49.95868" lon="6.18564">
        <ele>243</ele>
        <time>2026-08-25T14:57:39+00:00</time>
      </trkpt>
      <trkpt lat="49.95842" lon="6.18589">
        <ele>240</ele>
        <time>2026-08-25T14:57:42+00:00</time>
      </trkpt>
      <trkpt lat="49.95806" lon="6.18622">
        <ele>236</ele>
        <time>2026-08-25T14:57:45+00:00</time>
      </trkpt>
      <trkpt lat="49.95768" lon="6.18646">
        <ele>228</ele>
        <time>2026-08-25T14:57:48+00:00</time>
      </trkpt>
      <trkpt lat="49.95759" lon="6.18656">
        <ele>225</ele>
        <time>2026-08-25T14:57:51+00:00</time>
      </trkpt>
      <trkpt lat="49.95752" lon="6.18668">
        <ele>226</ele>
        <time>2026-08-25T14:57:54+00:00</time>
      </trkpt>
      <trkpt lat="49.95747" lon="6.18689">
        <ele>225</ele>
        <time>2026-08-25T14:57:57+00:00</time>
      </trkpt>
      <trkpt lat="49.95742" lon="6.18697">
        <ele>226</ele>
        <time>2026-08-25T14:58:00+00:00</time>
      </trkpt>
      <trkpt lat="49.95739" lon="6.18706">
        <ele>225</ele>
        <time>2026-08-25T14:58:03+00:00</time>
      </trkpt>
      <trkpt lat="49.95737" lon="6.18719">
        <ele>225</ele>
        <time>2026-08-25T14:58:06+00:00</time>
      </trkpt>
      <trkpt lat="49.95733" lon="6.18728">
        <ele>225</ele>
        <time>2026-08-25T14:58:09+00:00</time>
      </trkpt>
      <trkpt lat="49.95733" lon="6.1875">
        <ele>227</ele>
        <time>2026-08-25T14:58:12+00:00</time>
      </trkpt>
      <trkpt lat="49.95729" lon="6.1877">
        <ele>225</ele>
        <time>2026-08-25T14:58:15+00:00</time>
      </trkpt>
      <trkpt lat="49.9572" lon="6.18797">
        <ele>225</ele>
        <time>2026-08-25T14:58:18+00:00</time>
      </trkpt>
      <trkpt lat="49.95718" lon="6.18814">
        <ele>225</ele>
        <time>2026-08-25T14:58:21+00:00</time>
      </trkpt>
      <trkpt lat="49.95718" lon="6.1884">
        <ele>226</ele>
        <time>2026-08-25T14:58:24+00:00</time>
      </trkpt>
      <trkpt lat="49.9572" lon="6.18855">
        <ele>226</ele>
        <time>2026-08-25T14:58:27+00:00</time>
      </trkpt>
      <trkpt lat="49.95719" lon="6.18867">
        <ele>226</ele>
        <time>2026-08-25T14:58:30+00:00</time>
      </trkpt>
      <trkpt lat="49.95716" lon="6.18872">
        <ele>227</ele>
        <time>2026-08-25T14:58:33+00:00</time>
      </trkpt>
      <trkpt lat="49.95716" lon="6.18882">
        <ele>229</ele>
        <time>2026-08-25T14:58:36+00:00</time>
      </trkpt>
      <trkpt lat="49.95711" lon="6.18893">
        <ele>229</ele>
        <time>2026-08-25T14:58:39+00:00</time>
      </trkpt>
      <trkpt lat="49.957" lon="6.18902">
        <ele>229</ele>
        <time>2026-08-25T14:58:42+00:00</time>
      </trkpt>
      <trkpt lat="49.95679" lon="6.18911">
        <ele>230</ele>
        <time>2026-08-25T14:58:45+00:00</time>
      </trkpt>
      <trkpt lat="49.95661" lon="6.18914">
        <ele>229</ele>
        <time>2026-08-25T14:58:48+00:00</time>
      </trkpt>
      <trkpt lat="49.95639" lon="6.1891">
        <ele>229</ele>
        <time>2026-08-25T14:58:51+00:00</time>
      </trkpt>
      <trkpt lat="49.95622" lon="6.18903">
        <ele>230</ele>
        <time>2026-08-25T14:58:54+00:00</time>
      </trkpt>
      <trkpt lat="49.95601" lon="6.18888">
        <ele>230</ele>
        <time>2026-08-25T14:58:57+00:00</time>
      </trkpt>
      <trkpt lat="49.95582" lon="6.18867">
        <ele>232</ele>
        <time>2026-08-25T14:59:00+00:00</time>
      </trkpt>
      <trkpt lat="49.95566" lon="6.18845">
        <ele>235</ele>
        <time>2026-08-25T14:59:03+00:00</time>
      </trkpt>
      <trkpt lat="49.95549" lon="6.18822">
        <ele>236</ele>
        <time>2026-08-25T14:59:06+00:00</time>
      </trkpt>
      <trkpt lat="49.95528" lon="6.18791">
        <ele>232</ele>
        <time>2026-08-25T14:59:09+00:00</time>
      </trkpt>
      <trkpt lat="49.95487" lon="6.18729">
        <ele>230</ele>
        <time>2026-08-25T14:59:12+00:00</time>
      </trkpt>
      <trkpt lat="49.95463" lon="6.18695">
        <ele>233</ele>
        <time>2026-08-25T14:59:15+00:00</time>
      </trkpt>
      <trkpt lat="49.95439" lon="6.18662">
        <ele>232</ele>
        <time>2026-08-25T14:59:18+00:00</time>
      </trkpt>
      <trkpt lat="49.95392" lon="6.18597">
        <ele>232</ele>
        <time>2026-08-25T14:59:21+00:00</time>
      </trkpt>
      <trkpt lat="49.95376" lon="6.18563">
        <ele>237</ele>
        <time>2026-08-25T14:59:24+00:00</time>
      </trkpt>
      <trkpt lat="49.9535" lon="6.18507">
        <ele>239</ele>
        <time>2026-08-25T14:59:27+00:00</time>
      </trkpt>
      <trkpt lat="49.95339" lon="6.18476">
        <ele>237</ele>
        <time>2026-08-25T14:59:30+00:00</time>
      </trkpt>
      <trkpt lat="49.95327" lon="6.18443">
        <ele>236</ele>
        <time>2026-08-25T14:59:33+00:00</time>
      </trkpt>
      <trkpt lat="49.95314" lon="6.18397">
        <ele>231</ele>
        <time>2026-08-25T14:59:36+00:00</time>
      </trkpt>
      <trkpt lat="49.953" lon="6.18352">
        <ele>230</ele>
        <time>2026-08-25T14:59:39+00:00</time>
      </trkpt>
      <trkpt lat="49.95275" lon="6.18266">
        <ele>230</ele>
        <time>2026-08-25T14:59:42+00:00</time>
      </trkpt>
      <trkpt lat="49.95262" lon="6.18225">
        <ele>231</ele>
        <time>2026-08-25T14:59:45+00:00</time>
      </trkpt>
      <trkpt lat="49.9525" lon="6.18183">
        <ele>230</ele>
        <time>2026-08-25T14:59:48+00:00</time>
      </trkpt>
      <trkpt lat="49.95236" lon="6.18138">
        <ele>230</ele>
        <time>2026-08-25T14:59:51+00:00</time>
      </trkpt>
      <trkpt lat="49.95224" lon="6.18103">
        <ele>230</ele>
        <time>2026-08-25T14:59:54+00:00</time>
      </trkpt>
      <trkpt lat="49.95207" lon="6.18052">
        <ele>229</ele>
        <time>2026-08-25T14:59:57+00:00</time>
      </trkpt>
      <trkpt lat="49.95203" lon="6.18028">
        <ele>229</ele>
        <time>2026-08-25T15:00:00+00:00</time>
      </trkpt>
      <trkpt lat="49.95202" lon="6.18001">
        <ele>229</ele>
        <time>2026-08-25T15:00:03+00:00</time>
      </trkpt>
      <trkpt lat="49.95203" lon="6.17976">
        <ele>228</ele>
        <time>2026-08-25T15:00:06+00:00</time>
      </trkpt>
      <trkpt lat="49.95207" lon="6.17951">
        <ele>229</ele>
        <time>2026-08-25T15:00:09+00:00</time>
      </trkpt>
      <trkpt lat="49.95222" lon="6.17917">
        <ele>229</ele>
        <time>2026-08-25T15:00:12+00:00</time>
      </trkpt>
      <trkpt lat="49.95244" lon="6.17865">
        <ele>230</ele>
        <time>2026-08-25T15:00:15+00:00</time>
      </trkpt>
      <trkpt lat="49.95263" lon="6.17824">
        <ele>232</ele>
        <time>2026-08-25T15:00:18+00:00</time>
      </trkpt>
      <trkpt lat="49.95276" lon="6.17797">
        <ele>237</ele>
        <time>2026-08-25T15:00:21+00:00</time>
      </trkpt>
      <trkpt lat="49.9529" lon="6.17769">
        <ele>235</ele>
        <time>2026-08-25T15:00:24+00:00</time>
      </trkpt>
      <trkpt lat="49.95308" lon="6.17746">
        <ele>234</ele>
        <time>2026-08-25T15:00:27+00:00</time>
      </trkpt>
      <trkpt lat="49.95331" lon="6.17718">
        <ele>230</ele>
        <time>2026-08-25T15:00:30+00:00</time>
      </trkpt>
      <trkpt lat="49.9534" lon="6.17713">
        <ele>230</ele>
        <time>2026-08-25T15:00:33+00:00</time>
      </trkpt>
      <trkpt lat="49.95345" lon="6.1771">
        <ele>229</ele>
        <time>2026-08-25T15:00:36+00:00</time>
      </trkpt>
      <trkpt lat="49.95344" lon="6.17707">
        <ele>229</ele>
        <time>2026-08-25T15:00:39+00:00</time>
      </trkpt>
      <trkpt lat="49.95345" lon="6.1771">
        <ele>229</ele>
        <time>2026-08-25T15:00:42+00:00</time>
      </trkpt>
      <trkpt lat="49.95365" lon="6.17701">
        <ele>229</ele>
        <time>2026-08-25T15:00:45+00:00</time>
      </trkpt>
      <trkpt lat="49.95364" lon="6.17693">
        <ele>229</ele>
        <time>2026-08-25T15:00:48+00:00</time>
      </trkpt>
      <trkpt lat="49.95399" lon="6.17684">
        <ele>229</ele>
        <time>2026-08-25T15:00:51+00:00</time>
      </trkpt>
      <trkpt lat="49.95408" lon="6.17682">
        <ele>229</ele>
        <time>2026-08-25T15:00:54+00:00</time>
      </trkpt>
      <trkpt lat="49.95424" lon="6.17678">
        <ele>229</ele>
        <time>2026-08-25T15:00:57+00:00</time>
      </trkpt>
      <trkpt lat="49.95457" lon="6.17671">
        <ele>229</ele>
        <time>2026-08-25T15:01:00+00:00</time>
      </trkpt>
      <trkpt lat="49.9548" lon="6.17666">
        <ele>229</ele>
        <time>2026-08-25T15:01:03+00:00</time>
      </trkpt>
      <trkpt lat="49.95509" lon="6.1766">
        <ele>229</ele>
        <time>2026-08-25T15:01:06+00:00</time>
      </trkpt>
      <trkpt lat="49.9551" lon="6.17667">
        <ele>229</ele>
        <time>2026-08-25T15:01:09+00:00</time>
      </trkpt>
      <trkpt lat="49.95517" lon="6.17666">
        <ele>230</ele>
        <time>2026-08-25T15:01:12+00:00</time>
      </trkpt>
      <trkpt lat="49.95546" lon="6.1766">
        <ele>229</ele>
        <time>2026-08-25T15:01:15+00:00</time>
      </trkpt>
      <trkpt lat="49.95576" lon="6.17654">
        <ele>231</ele>
        <time>2026-08-25T15:01:18+00:00</time>
      </trkpt>
      <trkpt lat="49.95605" lon="6.17649">
        <ele>231</ele>
        <time>2026-08-25T15:01:21+00:00</time>
      </trkpt>
      <trkpt lat="49.95635" lon="6.17643">
        <ele>232</ele>
        <time>2026-08-25T15:01:24+00:00</time>
      </trkpt>
      <trkpt lat="49.95669" lon="6.1764">
        <ele>232</ele>
        <time>2026-08-25T15:01:27+00:00</time>
      </trkpt>
      <trkpt lat="49.95704" lon="6.17636">
        <ele>233</ele>
        <time>2026-08-25T15:01:30+00:00</time>
      </trkpt>
      <trkpt lat="49.95738" lon="6.17633">
        <ele>232</ele>
        <time>2026-08-25T15:01:33+00:00</time>
      </trkpt>
      <trkpt lat="49.958" lon="6.17627">
        <ele>232</ele>
        <time>2026-08-25T15:01:36+00:00</time>
      </trkpt>
      <trkpt lat="49.95825" lon="6.17624">
        <ele>232</ele>
        <time>2026-08-25T15:01:39+00:00</time>
      </trkpt>
      <trkpt lat="49.95838" lon="6.17622">
        <ele>232</ele>
        <time>2026-08-25T15:01:42+00:00</time>
      </trkpt>
      <trkpt lat="49.9586" lon="6.17615">
        <ele>231</ele>
        <time>2026-08-25T15:01:45+00:00</time>
      </trkpt>
      <trkpt lat="49.95895" lon="6.17605">
        <ele>231</ele>
        <time>2026-08-25T15:01:48+00:00</time>
      </trkpt>
      <trkpt lat="49.95921" lon="6.17595">
        <ele>231</ele>
        <time>2026-08-25T15:01:51+00:00</time>
      </trkpt>
      <trkpt lat="49.95966" lon="6.17579">
        <ele>232</ele>
        <time>2026-08-25T15:01:54+00:00</time>
      </trkpt>
      <trkpt lat="49.96007" lon="6.1757">
        <ele>233</ele>
        <time>2026-08-25T15:01:57+00:00</time>
      </trkpt>
      <trkpt lat="49.96042" lon="6.17567">
        <ele>233</ele>
        <time>2026-08-25T15:02:00+00:00</time>
      </trkpt>
      <trkpt lat="49.96068" lon="6.17568">
        <ele>231</ele>
        <time>2026-08-25T15:02:03+00:00</time>
      </trkpt>
      <trkpt lat="49.96108" lon="6.1757">
        <ele>231</ele>
        <time>2026-08-25T15:02:06+00:00</time>
      </trkpt>
      <trkpt lat="49.96136" lon="6.17571">
        <ele>232</ele>
        <time>2026-08-25T15:02:09+00:00</time>
      </trkpt>
      <trkpt lat="49.96147" lon="6.17567">
        <ele>229</ele>
        <time>2026-08-25T15:02:12+00:00</time>
      </trkpt>
      <trkpt lat="49.9615" lon="6.17565">
        <ele>229</ele>
        <time>2026-08-25T15:02:15+00:00</time>
      </trkpt>
      <trkpt lat="49.96164" lon="6.17553">
        <ele>233</ele>
        <time>2026-08-25T15:02:18+00:00</time>
      </trkpt>
      <trkpt lat="49.96176" lon="6.17527">
        <ele>240</ele>
        <time>2026-08-25T15:02:21+00:00</time>
      </trkpt>
      <trkpt lat="49.96183" lon="6.17495">
        <ele>247</ele>
        <time>2026-08-25T15:02:24+00:00</time>
      </trkpt>
      <trkpt lat="49.96189" lon="6.1746">
        <ele>251</ele>
        <time>2026-08-25T15:02:27+00:00</time>
      </trkpt>
      <trkpt lat="49.96197" lon="6.17418">
        <ele>250</ele>
        <time>2026-08-25T15:02:30+00:00</time>
      </trkpt>
      <trkpt lat="49.96203" lon="6.17366">
        <ele>249</ele>
        <time>2026-08-25T15:02:33+00:00</time>
      </trkpt>
      <trkpt lat="49.96204" lon="6.17327">
        <ele>249</ele>
        <time>2026-08-25T15:02:36+00:00</time>
      </trkpt>
      <trkpt lat="49.96206" lon="6.17275">
        <ele>253</ele>
        <time>2026-08-25T15:02:39+00:00</time>
      </trkpt>
      <trkpt lat="49.96214" lon="6.17227">
        <ele>256</ele>
        <time>2026-08-25T15:02:42+00:00</time>
      </trkpt>
      <trkpt lat="49.96225" lon="6.17185">
        <ele>258</ele>
        <time>2026-08-25T15:02:45+00:00</time>
      </trkpt>
      <trkpt lat="49.96236" lon="6.17143">
        <ele>258</ele>
        <time>2026-08-25T15:02:48+00:00</time>
      </trkpt>
      <trkpt lat="49.96247" lon="6.17101">
        <ele>258</ele>
        <time>2026-08-25T15:02:51+00:00</time>
      </trkpt>
      <trkpt lat="49.96254" lon="6.1708">
        <ele>258</ele>
        <time>2026-08-25T15:02:54+00:00</time>
      </trkpt>
      <trkpt lat="49.96265" lon="6.17054">
        <ele>258</ele>
        <time>2026-08-25T15:02:57+00:00</time>
      </trkpt>
      <trkpt lat="49.96267" lon="6.1705">
        <ele>260</ele>
        <time>2026-08-25T15:03:00+00:00</time>
      </trkpt>
      <trkpt lat="49.96282" lon="6.17027">
        <ele>249</ele>
        <time>2026-08-25T15:03:03+00:00</time>
      </trkpt>
      <trkpt lat="49.96299" lon="6.17002">
        <ele>244</ele>
        <time>2026-08-25T15:03:06+00:00</time>
      </trkpt>
      <trkpt lat="49.96299" lon="6.16994">
        <ele>245</ele>
        <time>2026-08-25T15:03:09+00:00</time>
      </trkpt>
      <trkpt lat="49.9631" lon="6.16979">
        <ele>238</ele>
        <time>2026-08-25T15:03:12+00:00</time>
      </trkpt>
      <trkpt lat="49.96324" lon="6.16959">
        <ele>235</ele>
        <time>2026-08-25T15:03:15+00:00</time>
      </trkpt>
      <trkpt lat="49.96322" lon="6.16956">
        <ele>229</ele>
        <time>2026-08-25T15:03:18+00:00</time>
      </trkpt>
      <trkpt lat="49.96304" lon="6.16928">
        <ele>235</ele>
        <time>2026-08-25T15:03:21+00:00</time>
      </trkpt>
      <trkpt lat="49.96302" lon="6.16925">
        <ele>232</ele>
        <time>2026-08-25T15:03:24+00:00</time>
      </trkpt>
      <trkpt lat="49.96286" lon="6.16901">
        <ele>235</ele>
        <time>2026-08-25T15:03:27+00:00</time>
      </trkpt>
      <trkpt lat="49.96268" lon="6.16874">
        <ele>240</ele>
        <time>2026-08-25T15:03:30+00:00</time>
      </trkpt>
      <trkpt lat="49.96251" lon="6.16847">
        <ele>240</ele>
        <time>2026-08-25T15:03:33+00:00</time>
      </trkpt>
      <trkpt lat="49.96231" lon="6.16814">
        <ele>243</ele>
        <time>2026-08-25T15:03:36+00:00</time>
      </trkpt>
      <trkpt lat="49.96209" lon="6.16784">
        <ele>251</ele>
        <time>2026-08-25T15:03:39+00:00</time>
      </trkpt>
      <trkpt lat="49.96187" lon="6.16754">
        <ele>254</ele>
        <time>2026-08-25T15:03:42+00:00</time>
      </trkpt>
      <trkpt lat="49.96165" lon="6.16723">
        <ele>256</ele>
        <time>2026-08-25T15:03:45+00:00</time>
      </trkpt>
      <trkpt lat="49.96153" lon="6.16711">
        <ele>257</ele>
        <time>2026-08-25T15:03:48+00:00</time>
      </trkpt>
      <trkpt lat="49.96131" lon="6.16703">
        <ele>259</ele>
        <time>2026-08-25T15:03:51+00:00</time>
      </trkpt>
      <trkpt lat="49.96131" lon="6.16716">
        <ele>263</ele>
        <time>2026-08-25T15:03:54+00:00</time>
      </trkpt>
      <trkpt lat="49.96143" lon="6.1673">
        <ele>262</ele>
        <time>2026-08-25T15:03:57+00:00</time>
      </trkpt>
      <trkpt lat="49.96164" lon="6.16769">
        <ele>272</ele>
        <time>2026-08-25T15:04:00+00:00</time>
      </trkpt>
      <trkpt lat="49.96171" lon="6.16786">
        <ele>275</ele>
        <time>2026-08-25T15:04:03+00:00</time>
      </trkpt>
      <trkpt lat="49.96179" lon="6.16815">
        <ele>274</ele>
        <time>2026-08-25T15:04:06+00:00</time>
      </trkpt>
      <trkpt lat="49.96192" lon="6.16858">
        <ele>277</ele>
        <time>2026-08-25T15:04:09+00:00</time>
      </trkpt>
      <trkpt lat="49.96202" lon="6.16895">
        <ele>286</ele>
        <time>2026-08-25T15:04:12+00:00</time>
      </trkpt>
      <trkpt lat="49.96217" lon="6.16951">
        <ele>293</ele>
        <time>2026-08-25T15:04:15+00:00</time>
      </trkpt>
      <trkpt lat="49.96217" lon="6.16966">
        <ele>295</ele>
        <time>2026-08-25T15:04:18+00:00</time>
      </trkpt>
      <trkpt lat="49.96209" lon="6.16983">
        <ele>301</ele>
        <time>2026-08-25T15:04:21+00:00</time>
      </trkpt>
      <trkpt lat="49.96203" lon="6.17009">
        <ele>301</ele>
        <time>2026-08-25T15:04:24+00:00</time>
      </trkpt>
      <trkpt lat="49.96199" lon="6.17015">
        <ele>305</ele>
        <time>2026-08-25T15:04:27+00:00</time>
      </trkpt>
      <trkpt lat="49.96187" lon="6.17025">
        <ele>306</ele>
        <time>2026-08-25T15:04:30+00:00</time>
      </trkpt>
      <trkpt lat="49.96159" lon="6.17054">
        <ele>306</ele>
        <time>2026-08-25T15:04:33+00:00</time>
      </trkpt>
      <trkpt lat="49.96153" lon="6.17064">
        <ele>306</ele>
        <time>2026-08-25T15:04:36+00:00</time>
      </trkpt>
      <trkpt lat="49.96154" lon="6.17074">
        <ele>306</ele>
        <time>2026-08-25T15:04:39+00:00</time>
      </trkpt>
      <trkpt lat="49.96159" lon="6.17079">
        <ele>306</ele>
        <time>2026-08-25T15:04:42+00:00</time>
      </trkpt>
      <trkpt lat="49.96161" lon="6.17085">
        <ele>306</ele>
        <time>2026-08-25T15:04:45+00:00</time>
      </trkpt>
      <trkpt lat="49.96161" lon="6.17089">
        <ele>306</ele>
        <time>2026-08-25T15:04:48+00:00</time>
      </trkpt>
      <trkpt lat="49.96154" lon="6.17095">
        <ele>307</ele>
        <time>2026-08-25T15:04:51+00:00</time>
      </trkpt>
      <trkpt lat="49.96147" lon="6.17098">
        <ele>307</ele>
        <time>2026-08-25T15:04:54+00:00</time>
      </trkpt>
      <trkpt lat="49.96143" lon="6.17099">
        <ele>307</ele>
        <time>2026-08-25T15:04:57+00:00</time>
      </trkpt>
      <trkpt lat="49.9614" lon="6.17111">
        <ele>308</ele>
        <time>2026-08-25T15:05:00+00:00</time>
      </trkpt>
      <trkpt lat="49.96134" lon="6.17117">
        <ele>308</ele>
        <time>2026-08-25T15:05:03+00:00</time>
      </trkpt>
      <trkpt lat="49.96128" lon="6.17118">
        <ele>309</ele>
        <time>2026-08-25T15:05:06+00:00</time>
      </trkpt>
      <trkpt lat="49.96123" lon="6.17114">
        <ele>309</ele>
        <time>2026-08-25T15:05:09+00:00</time>
      </trkpt>
      <trkpt lat="49.9611" lon="6.17093">
        <ele>312</ele>
        <time>2026-08-25T15:05:12+00:00</time>
      </trkpt>
      <trkpt lat="49.96113" lon="6.17049">
        <ele>315</ele>
        <time>2026-08-25T15:05:15+00:00</time>
      </trkpt>
      <trkpt lat="49.96116" lon="6.17029">
        <ele>316</ele>
        <time>2026-08-25T15:05:18+00:00</time>
      </trkpt>
      <trkpt lat="49.96121" lon="6.17008">
        <ele>320</ele>
        <time>2026-08-25T15:05:21+00:00</time>
      </trkpt>
      <trkpt lat="49.9613" lon="6.16982">
        <ele>324</ele>
        <time>2026-08-25T15:05:24+00:00</time>
      </trkpt>
      <trkpt lat="49.96147" lon="6.16948">
        <ele>326</ele>
        <time>2026-08-25T15:05:27+00:00</time>
      </trkpt>
      <trkpt lat="49.96147" lon="6.16943">
        <ele>326</ele>
        <time>2026-08-25T15:05:30+00:00</time>
      </trkpt>
      <trkpt lat="49.96146" lon="6.16942">
        <ele>326</ele>
        <time>2026-08-25T15:05:33+00:00</time>
      </trkpt>
      <trkpt lat="49.96144" lon="6.16939">
        <ele>328</ele>
        <time>2026-08-25T15:05:36+00:00</time>
      </trkpt>
      <trkpt lat="49.9614" lon="6.16939">
        <ele>331</ele>
        <time>2026-08-25T15:05:39+00:00</time>
      </trkpt>
      <trkpt lat="49.96124" lon="6.16968">
        <ele>327</ele>
        <time>2026-08-25T15:05:42+00:00</time>
      </trkpt>
      <trkpt lat="49.96113" lon="6.1698">
        <ele>327</ele>
        <time>2026-08-25T15:05:45+00:00</time>
      </trkpt>
      <trkpt lat="49.96101" lon="6.16986">
        <ele>327</ele>
        <time>2026-08-25T15:05:48+00:00</time>
      </trkpt>
      <trkpt lat="49.96077" lon="6.16984">
        <ele>329</ele>
        <time>2026-08-25T15:05:51+00:00</time>
      </trkpt>
      <trkpt lat="49.96055" lon="6.16972">
        <ele>329</ele>
        <time>2026-08-25T15:05:54+00:00</time>
      </trkpt>
      <trkpt lat="49.96031" lon="6.16949">
        <ele>334</ele>
        <time>2026-08-25T15:05:57+00:00</time>
      </trkpt>
      <trkpt lat="49.95985" lon="6.16906">
        <ele>339</ele>
        <time>2026-08-25T15:06:00+00:00</time>
      </trkpt>
      <trkpt lat="49.95957" lon="6.16882">
        <ele>343</ele>
        <time>2026-08-25T15:06:03+00:00</time>
      </trkpt>
      <trkpt lat="49.95944" lon="6.16877">
        <ele>345</ele>
        <time>2026-08-25T15:06:06+00:00</time>
      </trkpt>
      <trkpt lat="49.95924" lon="6.16876">
        <ele>347</ele>
        <time>2026-08-25T15:06:09+00:00</time>
      </trkpt>
      <trkpt lat="49.95897" lon="6.16874">
        <ele>357</ele>
        <time>2026-08-25T15:06:12+00:00</time>
      </trkpt>
      <trkpt lat="49.95879" lon="6.16869">
        <ele>365</ele>
        <time>2026-08-25T15:06:15+00:00</time>
      </trkpt>
      <trkpt lat="49.9585" lon="6.16866">
        <ele>367</ele>
        <time>2026-08-25T15:06:18+00:00</time>
      </trkpt>
      <trkpt lat="49.95829" lon="6.16877">
        <ele>366</ele>
        <time>2026-08-25T15:06:21+00:00</time>
      </trkpt>
      <trkpt lat="49.95815" lon="6.16888">
        <ele>366</ele>
        <time>2026-08-25T15:06:24+00:00</time>
      </trkpt>
      <trkpt lat="49.95814" lon="6.16889">
        <ele>366</ele>
        <time>2026-08-25T15:06:27+00:00</time>
      </trkpt>
      <trkpt lat="49.95808" lon="6.16887">
        <ele>366</ele>
        <time>2026-08-25T15:06:30+00:00</time>
      </trkpt>
      <trkpt lat="49.95808" lon="6.16882">
        <ele>366</ele>
        <time>2026-08-25T15:06:33+00:00</time>
      </trkpt>
      <trkpt lat="49.95809" lon="6.16877">
        <ele>369</ele>
        <time>2026-08-25T15:06:36+00:00</time>
      </trkpt>
      <trkpt lat="49.95835" lon="6.16855">
        <ele>368</ele>
        <time>2026-08-25T15:06:39+00:00</time>
      </trkpt>
      <trkpt lat="49.95866" lon="6.16837">
        <ele>371</ele>
        <time>2026-08-25T15:06:42+00:00</time>
      </trkpt>
      <trkpt lat="49.95872" lon="6.16829">
        <ele>366</ele>
        <time>2026-08-25T15:06:45+00:00</time>
      </trkpt>
      <trkpt lat="49.95874" lon="6.1682">
        <ele>366</ele>
        <time>2026-08-25T15:06:48+00:00</time>
      </trkpt>
      <trkpt lat="49.95851" lon="6.16811">
        <ele>373</ele>
        <time>2026-08-25T15:06:51+00:00</time>
      </trkpt>
      <trkpt lat="49.95841" lon="6.16803">
        <ele>375</ele>
        <time>2026-08-25T15:06:54+00:00</time>
      </trkpt>
      <trkpt lat="49.95826" lon="6.16791">
        <ele>379</ele>
        <time>2026-08-25T15:06:57+00:00</time>
      </trkpt>
      <trkpt lat="49.95818" lon="6.16779">
        <ele>380</ele>
        <time>2026-08-25T15:07:00+00:00</time>
      </trkpt>
      <trkpt lat="49.95806" lon="6.16765">
        <ele>382</ele>
        <time>2026-08-25T15:07:03+00:00</time>
      </trkpt>
      <trkpt lat="49.95788" lon="6.16742">
        <ele>385</ele>
        <time>2026-08-25T15:07:06+00:00</time>
      </trkpt>
      <trkpt lat="49.95765" lon="6.16713">
        <ele>389</ele>
        <time>2026-08-25T15:07:09+00:00</time>
      </trkpt>
      <trkpt lat="49.95743" lon="6.16684">
        <ele>392</ele>
        <time>2026-08-25T15:07:12+00:00</time>
      </trkpt>
      <trkpt lat="49.95718" lon="6.16652">
        <ele>392</ele>
        <time>2026-08-25T15:07:15+00:00</time>
      </trkpt>
      <trkpt lat="49.95704" lon="6.16632">
        <ele>392</ele>
        <time>2026-08-25T15:07:18+00:00</time>
      </trkpt>
      <trkpt lat="49.95698" lon="6.16619">
        <ele>393</ele>
        <time>2026-08-25T15:07:21+00:00</time>
      </trkpt>
      <trkpt lat="49.95689" lon="6.16594">
        <ele>394</ele>
        <time>2026-08-25T15:07:24+00:00</time>
      </trkpt>
      <trkpt lat="49.95679" lon="6.16566">
        <ele>397</ele>
        <time>2026-08-25T15:07:27+00:00</time>
      </trkpt>
      <trkpt lat="49.95666" lon="6.16541">
        <ele>400</ele>
        <time>2026-08-25T15:07:30+00:00</time>
      </trkpt>
      <trkpt lat="49.95643" lon="6.16508">
        <ele>402</ele>
        <time>2026-08-25T15:07:33+00:00</time>
      </trkpt>
      <trkpt lat="49.95618" lon="6.16484">
        <ele>404</ele>
        <time>2026-08-25T15:07:36+00:00</time>
      </trkpt>
      <trkpt lat="49.95592" lon="6.16459">
        <ele>404</ele>
        <time>2026-08-25T15:07:39+00:00</time>
      </trkpt>
      <trkpt lat="49.95562" lon="6.1643">
        <ele>404</ele>
        <time>2026-08-25T15:07:42+00:00</time>
      </trkpt>
      <trkpt lat="49.95539" lon="6.16415">
        <ele>405</ele>
        <time>2026-08-25T15:07:45+00:00</time>
      </trkpt>
      <trkpt lat="49.95506" lon="6.16394">
        <ele>409</ele>
        <time>2026-08-25T15:07:48+00:00</time>
      </trkpt>
      <trkpt lat="49.95496" lon="6.16391">
        <ele>409</ele>
        <time>2026-08-25T15:07:51+00:00</time>
      </trkpt>
      <trkpt lat="49.95478" lon="6.16375">
        <ele>410</ele>
        <time>2026-08-25T15:07:54+00:00</time>
      </trkpt>
      <trkpt lat="49.95459" lon="6.16351">
        <ele>411</ele>
        <time>2026-08-25T15:07:57+00:00</time>
      </trkpt>
      <trkpt lat="49.95435" lon="6.16319">
        <ele>415</ele>
        <time>2026-08-25T15:08:00+00:00</time>
      </trkpt>
      <trkpt lat="49.95402" lon="6.16281">
        <ele>422</ele>
        <time>2026-08-25T15:08:03+00:00</time>
      </trkpt>
      <trkpt lat="49.95393" lon="6.16269">
        <ele>425</ele>
        <time>2026-08-25T15:08:06+00:00</time>
      </trkpt>
      <trkpt lat="49.95392" lon="6.16263">
        <ele>425</ele>
        <time>2026-08-25T15:08:09+00:00</time>
      </trkpt>
      <trkpt lat="49.95391" lon="6.16245">
        <ele>423</ele>
        <time>2026-08-25T15:08:12+00:00</time>
      </trkpt>
      <trkpt lat="49.95388" lon="6.1623">
        <ele>425</ele>
        <time>2026-08-25T15:08:15+00:00</time>
      </trkpt>
      <trkpt lat="49.95382" lon="6.16211">
        <ele>424</ele>
        <time>2026-08-25T15:08:18+00:00</time>
      </trkpt>
      <trkpt lat="49.95373" lon="6.16191">
        <ele>425</ele>
        <time>2026-08-25T15:08:21+00:00</time>
      </trkpt>
      <trkpt lat="49.95357" lon="6.16165">
        <ele>430</ele>
        <time>2026-08-25T15:08:24+00:00</time>
      </trkpt>
      <trkpt lat="49.95328" lon="6.16117">
        <ele>441</ele>
        <time>2026-08-25T15:08:27+00:00</time>
      </trkpt>
      <trkpt lat="49.95311" lon="6.16082">
        <ele>448</ele>
        <time>2026-08-25T15:08:30+00:00</time>
      </trkpt>
      <trkpt lat="49.95297" lon="6.16031">
        <ele>461</ele>
        <time>2026-08-25T15:08:33+00:00</time>
      </trkpt>
      <trkpt lat="49.95291" lon="6.15995">
        <ele>461</ele>
        <time>2026-08-25T15:08:36+00:00</time>
      </trkpt>
      <trkpt lat="49.95284" lon="6.15951">
        <ele>462</ele>
        <time>2026-08-25T15:08:39+00:00</time>
      </trkpt>
      <trkpt lat="49.95275" lon="6.1591">
        <ele>463</ele>
        <time>2026-08-25T15:08:42+00:00</time>
      </trkpt>
      <trkpt lat="49.95258" lon="6.15837">
        <ele>463</ele>
        <time>2026-08-25T15:08:45+00:00</time>
      </trkpt>
      <trkpt lat="49.9525" lon="6.15788">
        <ele>458</ele>
        <time>2026-08-25T15:08:48+00:00</time>
      </trkpt>
      <trkpt lat="49.95254" lon="6.15767">
        <ele>458</ele>
        <time>2026-08-25T15:08:51+00:00</time>
      </trkpt>
      <trkpt lat="49.95261" lon="6.15755">
        <ele>457</ele>
        <time>2026-08-25T15:08:54+00:00</time>
      </trkpt>
      <trkpt lat="49.95281" lon="6.15739">
        <ele>457</ele>
        <time>2026-08-25T15:08:57+00:00</time>
      </trkpt>
      <trkpt lat="49.95285" lon="6.1573">
        <ele>457</ele>
        <time>2026-08-25T15:09:00+00:00</time>
      </trkpt>
      <trkpt lat="49.95285" lon="6.1573">
        <ele>457</ele>
        <time>2026-08-25T15:09:03+00:00</time>
      </trkpt>
      <trkpt lat="49.9527" lon="6.15717">
        <ele>458</ele>
        <time>2026-08-25T15:09:06+00:00</time>
      </trkpt>
      <trkpt lat="49.95258" lon="6.15702">
        <ele>459</ele>
        <time>2026-08-25T15:09:09+00:00</time>
      </trkpt>
      <trkpt lat="49.95241" lon="6.15676">
        <ele>462</ele>
        <time>2026-08-25T15:09:12+00:00</time>
      </trkpt>
      <trkpt lat="49.95224" lon="6.15649">
        <ele>463</ele>
        <time>2026-08-25T15:09:15+00:00</time>
      </trkpt>
      <trkpt lat="49.95206" lon="6.15622">
        <ele>464</ele>
        <time>2026-08-25T15:09:18+00:00</time>
      </trkpt>
      <trkpt lat="49.95194" lon="6.15608">
        <ele>464</ele>
        <time>2026-08-25T15:09:21+00:00</time>
      </trkpt>
      <trkpt lat="49.95172" lon="6.15588">
        <ele>465</ele>
        <time>2026-08-25T15:09:24+00:00</time>
      </trkpt>
      <trkpt lat="49.95162" lon="6.15583">
        <ele>466</ele>
        <time>2026-08-25T15:09:27+00:00</time>
      </trkpt>
      <trkpt lat="49.95155" lon="6.15583">
        <ele>467</ele>
        <time>2026-08-25T15:09:30+00:00</time>
      </trkpt>
      <trkpt lat="49.95149" lon="6.15588">
        <ele>467</ele>
        <time>2026-08-25T15:09:33+00:00</time>
      </trkpt>
      <trkpt lat="49.95145" lon="6.15596">
        <ele>468</ele>
        <time>2026-08-25T15:09:36+00:00</time>
      </trkpt>
      <trkpt lat="49.95143" lon="6.15609">
        <ele>468</ele>
        <time>2026-08-25T15:09:39+00:00</time>
      </trkpt>
      <trkpt lat="49.95143" lon="6.15628">
        <ele>470</ele>
        <time>2026-08-25T15:09:42+00:00</time>
      </trkpt>
      <trkpt lat="49.95148" lon="6.15668">
        <ele>472</ele>
        <time>2026-08-25T15:09:45+00:00</time>
      </trkpt>
      <trkpt lat="49.95152" lon="6.15708">
        <ele>473</ele>
        <time>2026-08-25T15:09:48+00:00</time>
      </trkpt>
      <trkpt lat="49.95158" lon="6.15759">
        <ele>476</ele>
        <time>2026-08-25T15:09:51+00:00</time>
      </trkpt>
      <trkpt lat="49.95158" lon="6.15783">
        <ele>477</ele>
        <time>2026-08-25T15:09:54+00:00</time>
      </trkpt>
      <trkpt lat="49.95156" lon="6.15806">
        <ele>477</ele>
        <time>2026-08-25T15:09:57+00:00</time>
      </trkpt>
      <trkpt lat="49.95143" lon="6.15861">
        <ele>480</ele>
        <time>2026-08-25T15:10:00+00:00</time>
      </trkpt>
      <trkpt lat="49.95138" lon="6.15879">
        <ele>482</ele>
        <time>2026-08-25T15:10:03+00:00</time>
      </trkpt>
      <trkpt lat="49.95135" lon="6.15886">
        <ele>482</ele>
        <time>2026-08-25T15:10:06+00:00</time>
      </trkpt>
      <trkpt lat="49.95124" lon="6.15909">
        <ele>484</ele>
        <time>2026-08-25T15:10:09+00:00</time>
      </trkpt>
      <trkpt lat="49.95113" lon="6.15921">
        <ele>485</ele>
        <time>2026-08-25T15:10:12+00:00</time>
      </trkpt>
      <trkpt lat="49.95101" lon="6.1593">
        <ele>486</ele>
        <time>2026-08-25T15:10:15+00:00</time>
      </trkpt>
      <trkpt lat="49.95083" lon="6.15937">
        <ele>487</ele>
        <time>2026-08-25T15:10:18+00:00</time>
      </trkpt>
      <trkpt lat="49.95075" lon="6.15938">
        <ele>488</ele>
        <time>2026-08-25T15:10:21+00:00</time>
      </trkpt>
      <trkpt lat="49.95068" lon="6.15936">
        <ele>489</ele>
        <time>2026-08-25T15:10:24+00:00</time>
      </trkpt>
      <trkpt lat="49.9506" lon="6.15932">
        <ele>490</ele>
        <time>2026-08-25T15:10:27+00:00</time>
      </trkpt>
      <trkpt lat="49.95053" lon="6.15923">
        <ele>490</ele>
        <time>2026-08-25T15:10:30+00:00</time>
      </trkpt>
      <trkpt lat="49.95047" lon="6.15911">
        <ele>491</ele>
        <time>2026-08-25T15:10:33+00:00</time>
      </trkpt>
      <trkpt lat="49.95041" lon="6.15894">
        <ele>491</ele>
        <time>2026-08-25T15:10:36+00:00</time>
      </trkpt>
      <trkpt lat="49.95031" lon="6.15859">
        <ele>493</ele>
        <time>2026-08-25T15:10:39+00:00</time>
      </trkpt>
      <trkpt lat="49.95013" lon="6.15791">
        <ele>495</ele>
        <time>2026-08-25T15:10:42+00:00</time>
      </trkpt>
      <trkpt lat="49.95" lon="6.15747">
        <ele>496</ele>
        <time>2026-08-25T15:10:45+00:00</time>
      </trkpt>
      <trkpt lat="49.94986" lon="6.15711">
        <ele>497</ele>
        <time>2026-08-25T15:10:48+00:00</time>
      </trkpt>
      <trkpt lat="49.94964" lon="6.15653">
        <ele>498</ele>
        <time>2026-08-25T15:10:51+00:00</time>
      </trkpt>
      <trkpt lat="49.94953" lon="6.15616">
        <ele>498</ele>
        <time>2026-08-25T15:10:54+00:00</time>
      </trkpt>
      <trkpt lat="49.94935" lon="6.15557">
        <ele>500</ele>
        <time>2026-08-25T15:10:57+00:00</time>
      </trkpt>
      <trkpt lat="49.94922" lon="6.15511">
        <ele>500</ele>
        <time>2026-08-25T15:11:00+00:00</time>
      </trkpt>
      <trkpt lat="49.9491" lon="6.15466">
        <ele>501</ele>
        <time>2026-08-25T15:11:03+00:00</time>
      </trkpt>
      <trkpt lat="49.94888" lon="6.15386">
        <ele>502</ele>
        <time>2026-08-25T15:11:06+00:00</time>
      </trkpt>
      <trkpt lat="49.94877" lon="6.15339">
        <ele>504</ele>
        <time>2026-08-25T15:11:09+00:00</time>
      </trkpt>
      <trkpt lat="49.94865" lon="6.15292">
        <ele>505</ele>
        <time>2026-08-25T15:11:12+00:00</time>
      </trkpt>
      <trkpt lat="49.94844" lon="6.15204">
        <ele>510</ele>
        <time>2026-08-25T15:11:15+00:00</time>
      </trkpt>
      <trkpt lat="49.94833" lon="6.15162">
        <ele>511</ele>
        <time>2026-08-25T15:11:18+00:00</time>
      </trkpt>
      <trkpt lat="49.94821" lon="6.15119">
        <ele>512</ele>
        <time>2026-08-25T15:11:21+00:00</time>
      </trkpt>
      <trkpt lat="49.94809" lon="6.15072">
        <ele>512</ele>
        <time>2026-08-25T15:11:24+00:00</time>
      </trkpt>
      <trkpt lat="49.94798" lon="6.15038">
        <ele>512</ele>
        <time>2026-08-25T15:11:27+00:00</time>
      </trkpt>
      <trkpt lat="49.94784" lon="6.14994">
        <ele>512</ele>
        <time>2026-08-25T15:11:30+00:00</time>
      </trkpt>
      <trkpt lat="49.94769" lon="6.14955">
        <ele>512</ele>
        <time>2026-08-25T15:11:33+00:00</time>
      </trkpt>
      <trkpt lat="49.94745" lon="6.14904">
        <ele>513</ele>
        <time>2026-08-25T15:11:36+00:00</time>
      </trkpt>
      <trkpt lat="49.9472" lon="6.14869">
        <ele>513</ele>
        <time>2026-08-25T15:11:39+00:00</time>
      </trkpt>
      <trkpt lat="49.94696" lon="6.14844">
        <ele>513</ele>
        <time>2026-08-25T15:11:42+00:00</time>
      </trkpt>
      <trkpt lat="49.94688" lon="6.14836">
        <ele>513</ele>
        <time>2026-08-25T15:11:45+00:00</time>
      </trkpt>
      <trkpt lat="49.9466" lon="6.14803">
        <ele>514</ele>
        <time>2026-08-25T15:11:48+00:00</time>
      </trkpt>
      <trkpt lat="49.94633" lon="6.1477">
        <ele>515</ele>
        <time>2026-08-25T15:11:51+00:00</time>
      </trkpt>
      <trkpt lat="49.94605" lon="6.14737">
        <ele>515</ele>
        <time>2026-08-25T15:11:54+00:00</time>
      </trkpt>
      <trkpt lat="49.94577" lon="6.14704">
        <ele>515</ele>
        <time>2026-08-25T15:11:57+00:00</time>
      </trkpt>
      <trkpt lat="49.9455" lon="6.14671">
        <ele>515</ele>
        <time>2026-08-25T15:12:00+00:00</time>
      </trkpt>
      <trkpt lat="49.94515" lon="6.1463">
        <ele>516</ele>
        <time>2026-08-25T15:12:03+00:00</time>
      </trkpt>
      <trkpt lat="49.94493" lon="6.14671">
        <ele>517</ele>
        <time>2026-08-25T15:12:06+00:00</time>
      </trkpt>
      <trkpt lat="49.94471" lon="6.14712">
        <ele>521</ele>
        <time>2026-08-25T15:12:09+00:00</time>
      </trkpt>
      <trkpt lat="49.9445" lon="6.14753">
        <ele>523</ele>
        <time>2026-08-25T15:12:12+00:00</time>
      </trkpt>
      <trkpt lat="49.94411" lon="6.14826">
        <ele>526</ele>
        <time>2026-08-25T15:12:15+00:00</time>
      </trkpt>
      <trkpt lat="49.94384" lon="6.14865">
        <ele>528</ele>
        <time>2026-08-25T15:12:18+00:00</time>
      </trkpt>
      <trkpt lat="49.94357" lon="6.14904">
        <ele>528</ele>
        <time>2026-08-25T15:12:21+00:00</time>
      </trkpt>
      <trkpt lat="49.9433" lon="6.14943">
        <ele>529</ele>
        <time>2026-08-25T15:12:24+00:00</time>
      </trkpt>
      <trkpt lat="49.94304" lon="6.14983">
        <ele>527</ele>
        <time>2026-08-25T15:12:27+00:00</time>
      </trkpt>
      <trkpt lat="49.94277" lon="6.15022">
        <ele>525</ele>
        <time>2026-08-25T15:12:30+00:00</time>
      </trkpt>
      <trkpt lat="49.94236" lon="6.15081">
        <ele>525</ele>
        <time>2026-08-25T15:12:33+00:00</time>
      </trkpt>
      <trkpt lat="49.94215" lon="6.15051">
        <ele>525</ele>
        <time>2026-08-25T15:12:36+00:00</time>
      </trkpt>
      <trkpt lat="49.94193" lon="6.1502">
        <ele>524</ele>
        <time>2026-08-25T15:12:39+00:00</time>
      </trkpt>
      <trkpt lat="49.94169" lon="6.14986">
        <ele>524</ele>
        <time>2026-08-25T15:12:42+00:00</time>
      </trkpt>
      <trkpt lat="49.94154" lon="6.14942">
        <ele>528</ele>
        <time>2026-08-25T15:12:45+00:00</time>
      </trkpt>
      <trkpt lat="49.94139" lon="6.14899">
        <ele>528</ele>
        <time>2026-08-25T15:12:48+00:00</time>
      </trkpt>
      <trkpt lat="49.94114" lon="6.14823">
        <ele>527</ele>
        <time>2026-08-25T15:12:51+00:00</time>
      </trkpt>
      <trkpt lat="49.94083" lon="6.14804">
        <ele>526</ele>
        <time>2026-08-25T15:12:54+00:00</time>
      </trkpt>
      <trkpt lat="49.94053" lon="6.14785">
        <ele>523</ele>
        <time>2026-08-25T15:12:57+00:00</time>
      </trkpt>
      <trkpt lat="49.94022" lon="6.14766">
        <ele>521</ele>
        <time>2026-08-25T15:13:00+00:00</time>
      </trkpt>
      <trkpt lat="49.93985" lon="6.14743">
        <ele>518</ele>
        <time>2026-08-25T15:13:03+00:00</time>
      </trkpt>
      <trkpt lat="49.93968" lon="6.14702">
        <ele>518</ele>
        <time>2026-08-25T15:13:06+00:00</time>
      </trkpt>
      <trkpt lat="49.93951" lon="6.14661">
        <ele>518</ele>
        <time>2026-08-25T15:13:09+00:00</time>
      </trkpt>
      <trkpt lat="49.93924" lon="6.14593">
        <ele>517</ele>
        <time>2026-08-25T15:13:12+00:00</time>
      </trkpt>
      <trkpt lat="49.93907" lon="6.14564">
        <ele>515</ele>
        <time>2026-08-25T15:13:15+00:00</time>
      </trkpt>
      <trkpt lat="49.93883" lon="6.14525">
        <ele>513</ele>
        <time>2026-08-25T15:13:18+00:00</time>
      </trkpt>
      <trkpt lat="49.93876" lon="6.14471">
        <ele>513</ele>
        <time>2026-08-25T15:13:21+00:00</time>
      </trkpt>
      <trkpt lat="49.93869" lon="6.14416">
        <ele>513</ele>
        <time>2026-08-25T15:13:24+00:00</time>
      </trkpt>
      <trkpt lat="49.93862" lon="6.14362">
        <ele>513</ele>
        <time>2026-08-25T15:13:27+00:00</time>
      </trkpt>
      <trkpt lat="49.93855" lon="6.14307">
        <ele>511</ele>
        <time>2026-08-25T15:13:30+00:00</time>
      </trkpt>
      <trkpt lat="49.93843" lon="6.14215">
        <ele>506</ele>
        <time>2026-08-25T15:13:33+00:00</time>
      </trkpt>
      <trkpt lat="49.93836" lon="6.14266">
        <ele>502</ele>
        <time>2026-08-25T15:13:36+00:00</time>
      </trkpt>
      <trkpt lat="49.93829" lon="6.14318">
        <ele>501</ele>
        <time>2026-08-25T15:13:39+00:00</time>
      </trkpt>
      <trkpt lat="49.93822" lon="6.1437">
        <ele>501</ele>
        <time>2026-08-25T15:13:42+00:00</time>
      </trkpt>
      <trkpt lat="49.93811" lon="6.14458">
        <ele>501</ele>
        <time>2026-08-25T15:13:45+00:00</time>
      </trkpt>
      <trkpt lat="49.93792" lon="6.14486">
        <ele>501</ele>
        <time>2026-08-25T15:13:48+00:00</time>
      </trkpt>
      <trkpt lat="49.93764" lon="6.14528">
        <ele>499</ele>
        <time>2026-08-25T15:13:51+00:00</time>
      </trkpt>
      <trkpt lat="49.93731" lon="6.14511">
        <ele>498</ele>
        <time>2026-08-25T15:13:54+00:00</time>
      </trkpt>
      <trkpt lat="49.93697" lon="6.14495">
        <ele>496</ele>
        <time>2026-08-25T15:13:57+00:00</time>
      </trkpt>
      <trkpt lat="49.93664" lon="6.14479">
        <ele>495</ele>
        <time>2026-08-25T15:14:00+00:00</time>
      </trkpt>
      <trkpt lat="49.93631" lon="6.14462">
        <ele>493</ele>
        <time>2026-08-25T15:14:03+00:00</time>
      </trkpt>
      <trkpt lat="49.93591" lon="6.14443">
        <ele>493</ele>
        <time>2026-08-25T15:14:06+00:00</time>
      </trkpt>
      <trkpt lat="49.93558" lon="6.14434">
        <ele>491</ele>
        <time>2026-08-25T15:14:09+00:00</time>
      </trkpt>
      <trkpt lat="49.93524" lon="6.14425">
        <ele>490</ele>
        <time>2026-08-25T15:14:12+00:00</time>
      </trkpt>
      <trkpt lat="49.93491" lon="6.14417">
        <ele>490</ele>
        <time>2026-08-25T15:14:15+00:00</time>
      </trkpt>
      <trkpt lat="49.93439" lon="6.14403">
        <ele>490</ele>
        <time>2026-08-25T15:14:18+00:00</time>
      </trkpt>
      <trkpt lat="49.93411" lon="6.14421">
        <ele>490</ele>
        <time>2026-08-25T15:14:21+00:00</time>
      </trkpt>
      <trkpt lat="49.93382" lon="6.1444">
        <ele>488</ele>
        <time>2026-08-25T15:14:24+00:00</time>
      </trkpt>
      <trkpt lat="49.93336" lon="6.14468">
        <ele>485</ele>
        <time>2026-08-25T15:14:27+00:00</time>
      </trkpt>
      <trkpt lat="49.93311" lon="6.14464">
        <ele>483</ele>
        <time>2026-08-25T15:14:30+00:00</time>
      </trkpt>
      <trkpt lat="49.93307" lon="6.14503">
        <ele>483</ele>
        <time>2026-08-25T15:14:33+00:00</time>
      </trkpt>
      <trkpt lat="49.93302" lon="6.14556">
        <ele>483</ele>
        <time>2026-08-25T15:14:36+00:00</time>
      </trkpt>
      <trkpt lat="49.93266" lon="6.14575">
        <ele>483</ele>
        <time>2026-08-25T15:14:39+00:00</time>
      </trkpt>
      <trkpt lat="49.93235" lon="6.14621">
        <ele>481</ele>
        <time>2026-08-25T15:14:42+00:00</time>
      </trkpt>
      <trkpt lat="49.93225" lon="6.14658">
        <ele>480</ele>
        <time>2026-08-25T15:14:45+00:00</time>
      </trkpt>
      <trkpt lat="49.93212" lon="6.14711">
        <ele>478</ele>
        <time>2026-08-25T15:14:48+00:00</time>
      </trkpt>
      <trkpt lat="49.93202" lon="6.14764">
        <ele>474</ele>
        <time>2026-08-25T15:14:51+00:00</time>
      </trkpt>
      <trkpt lat="49.93192" lon="6.14816">
        <ele>469</ele>
        <time>2026-08-25T15:14:54+00:00</time>
      </trkpt>
      <trkpt lat="49.93182" lon="6.14869">
        <ele>464</ele>
        <time>2026-08-25T15:14:57+00:00</time>
      </trkpt>
      <trkpt lat="49.93173" lon="6.14921">
        <ele>459</ele>
        <time>2026-08-25T15:15:00+00:00</time>
      </trkpt>
      <trkpt lat="49.9316" lon="6.1499">
        <ele>446</ele>
        <time>2026-08-25T15:15:03+00:00</time>
      </trkpt>
      <trkpt lat="49.9315" lon="6.15022">
        <ele>442</ele>
        <time>2026-08-25T15:15:06+00:00</time>
      </trkpt>
      <trkpt lat="49.93139" lon="6.15058">
        <ele>442</ele>
        <time>2026-08-25T15:15:09+00:00</time>
      </trkpt>
      <trkpt lat="49.93109" lon="6.15067">
        <ele>442</ele>
        <time>2026-08-25T15:15:12+00:00</time>
      </trkpt>
      <trkpt lat="49.9308" lon="6.15047">
        <ele>442</ele>
        <time>2026-08-25T15:15:15+00:00</time>
      </trkpt>
      <trkpt lat="49.9305" lon="6.15027">
        <ele>439</ele>
        <time>2026-08-25T15:15:18+00:00</time>
      </trkpt>
      <trkpt lat="49.92994" lon="6.14989">
        <ele>437</ele>
        <time>2026-08-25T15:15:21+00:00</time>
      </trkpt>
      <trkpt lat="49.92971" lon="6.1498">
        <ele>434</ele>
        <time>2026-08-25T15:15:24+00:00</time>
      </trkpt>
      <trkpt lat="49.92942" lon="6.1497">
        <ele>430</ele>
        <time>2026-08-25T15:15:27+00:00</time>
      </trkpt>
      <trkpt lat="49.92924" lon="6.15004">
        <ele>426</ele>
        <time>2026-08-25T15:15:30+00:00</time>
      </trkpt>
      <trkpt lat="49.9293" lon="6.15048">
        <ele>424</ele>
        <time>2026-08-25T15:15:33+00:00</time>
      </trkpt>
      <trkpt lat="49.92936" lon="6.15093">
        <ele>422</ele>
        <time>2026-08-25T15:15:36+00:00</time>
      </trkpt>
      <trkpt lat="49.92942" lon="6.1514">
        <ele>420</ele>
        <time>2026-08-25T15:15:39+00:00</time>
      </trkpt>
      <trkpt lat="49.92965" lon="6.15192">
        <ele>417</ele>
        <time>2026-08-25T15:15:42+00:00</time>
      </trkpt>
      <trkpt lat="49.92992" lon="6.15224">
        <ele>414</ele>
        <time>2026-08-25T15:15:45+00:00</time>
      </trkpt>
      <trkpt lat="49.93019" lon="6.15256">
        <ele>414</ele>
        <time>2026-08-25T15:15:48+00:00</time>
      </trkpt>
      <trkpt lat="49.93045" lon="6.15288">
        <ele>414</ele>
        <time>2026-08-25T15:15:51+00:00</time>
      </trkpt>
      <trkpt lat="49.93086" lon="6.15337">
        <ele>414</ele>
        <time>2026-08-25T15:15:54+00:00</time>
      </trkpt>
      <trkpt lat="49.93122" lon="6.15313">
        <ele>414</ele>
        <time>2026-08-25T15:15:57+00:00</time>
      </trkpt>
      <trkpt lat="49.93159" lon="6.15301">
        <ele>412</ele>
        <time>2026-08-25T15:16:00+00:00</time>
      </trkpt>
      <trkpt lat="49.93179" lon="6.15319">
        <ele>406</ele>
        <time>2026-08-25T15:16:03+00:00</time>
      </trkpt>
      <trkpt lat="49.9315" lon="6.15341">
        <ele>403</ele>
        <time>2026-08-25T15:16:06+00:00</time>
      </trkpt>
      <trkpt lat="49.93121" lon="6.15363">
        <ele>400</ele>
        <time>2026-08-25T15:16:09+00:00</time>
      </trkpt>
      <trkpt lat="49.93064" lon="6.15405">
        <ele>390</ele>
        <time>2026-08-25T15:16:12+00:00</time>
      </trkpt>
      <trkpt lat="49.93031" lon="6.1537">
        <ele>387</ele>
        <time>2026-08-25T15:16:15+00:00</time>
      </trkpt>
      <trkpt lat="49.9301" lon="6.15347">
        <ele>385</ele>
        <time>2026-08-25T15:16:18+00:00</time>
      </trkpt>
      <trkpt lat="49.92981" lon="6.15315">
        <ele>383</ele>
        <time>2026-08-25T15:16:21+00:00</time>
      </trkpt>
      <trkpt lat="49.9296" lon="6.15301">
        <ele>381</ele>
        <time>2026-08-25T15:16:24+00:00</time>
      </trkpt>
      <trkpt lat="49.92936" lon="6.15287">
        <ele>380</ele>
        <time>2026-08-25T15:16:27+00:00</time>
      </trkpt>
      <trkpt lat="49.92906" lon="6.15272">
        <ele>378</ele>
        <time>2026-08-25T15:16:30+00:00</time>
      </trkpt>
      <trkpt lat="49.92883" lon="6.15263">
        <ele>376</ele>
        <time>2026-08-25T15:16:33+00:00</time>
      </trkpt>
      <trkpt lat="49.92856" lon="6.15253">
        <ele>373</ele>
        <time>2026-08-25T15:16:36+00:00</time>
      </trkpt>
      <trkpt lat="49.92834" lon="6.1525">
        <ele>373</ele>
        <time>2026-08-25T15:16:39+00:00</time>
      </trkpt>
      <trkpt lat="49.92809" lon="6.15247">
        <ele>369</ele>
        <time>2026-08-25T15:16:42+00:00</time>
      </trkpt>
      <trkpt lat="49.92778" lon="6.15228">
        <ele>365</ele>
        <time>2026-08-25T15:16:45+00:00</time>
      </trkpt>
      <trkpt lat="49.92765" lon="6.152">
        <ele>365</ele>
        <time>2026-08-25T15:16:48+00:00</time>
      </trkpt>
      <trkpt lat="49.92752" lon="6.1517">
        <ele>364</ele>
        <time>2026-08-25T15:16:51+00:00</time>
      </trkpt>
      <trkpt lat="49.92741" lon="6.15139">
        <ele>362</ele>
        <time>2026-08-25T15:16:54+00:00</time>
      </trkpt>
      <trkpt lat="49.92729" lon="6.15107">
        <ele>359</ele>
        <time>2026-08-25T15:16:57+00:00</time>
      </trkpt>
      <trkpt lat="49.92714" lon="6.1507">
        <ele>359</ele>
        <time>2026-08-25T15:17:00+00:00</time>
      </trkpt>
      <trkpt lat="49.92686" lon="6.15002">
        <ele>359</ele>
        <time>2026-08-25T15:17:03+00:00</time>
      </trkpt>
      <trkpt lat="49.92665" lon="6.14972">
        <ele>359</ele>
        <time>2026-08-25T15:17:06+00:00</time>
      </trkpt>
      <trkpt lat="49.92628" lon="6.14917">
        <ele>355</ele>
        <time>2026-08-25T15:17:09+00:00</time>
      </trkpt>
      <trkpt lat="49.92595" lon="6.14879">
        <ele>356</ele>
        <time>2026-08-25T15:17:12+00:00</time>
      </trkpt>
      <trkpt lat="49.92569" lon="6.14835">
        <ele>353</ele>
        <time>2026-08-25T15:17:15+00:00</time>
      </trkpt>
      <trkpt lat="49.92543" lon="6.14793">
        <ele>353</ele>
        <time>2026-08-25T15:17:18+00:00</time>
      </trkpt>
      <trkpt lat="49.92508" lon="6.14778">
        <ele>354</ele>
        <time>2026-08-25T15:17:21+00:00</time>
      </trkpt>
      <trkpt lat="49.92492" lon="6.14754">
        <ele>354</ele>
        <time>2026-08-25T15:17:24+00:00</time>
      </trkpt>
      <trkpt lat="49.92475" lon="6.14728">
        <ele>354</ele>
        <time>2026-08-25T15:17:27+00:00</time>
      </trkpt>
      <trkpt lat="49.92462" lon="6.14695">
        <ele>355</ele>
        <time>2026-08-25T15:17:30+00:00</time>
      </trkpt>
      <trkpt lat="49.92445" lon="6.14654">
        <ele>360</ele>
        <time>2026-08-25T15:17:33+00:00</time>
      </trkpt>
      <trkpt lat="49.92433" lon="6.14615">
        <ele>360</ele>
        <time>2026-08-25T15:17:36+00:00</time>
      </trkpt>
      <trkpt lat="49.92413" lon="6.1455">
        <ele>355</ele>
        <time>2026-08-25T15:17:39+00:00</time>
      </trkpt>
      <trkpt lat="49.92408" lon="6.14513">
        <ele>351</ele>
        <time>2026-08-25T15:17:42+00:00</time>
      </trkpt>
      <trkpt lat="49.92401" lon="6.14466">
        <ele>338</ele>
        <time>2026-08-25T15:17:45+00:00</time>
      </trkpt>
      <trkpt lat="49.92399" lon="6.14418">
        <ele>338</ele>
        <time>2026-08-25T15:17:48+00:00</time>
      </trkpt>
      <trkpt lat="49.92396" lon="6.1437">
        <ele>335</ele>
        <time>2026-08-25T15:17:51+00:00</time>
      </trkpt>
      <trkpt lat="49.92392" lon="6.14298">
        <ele>333</ele>
        <time>2026-08-25T15:17:54+00:00</time>
      </trkpt>
      <trkpt lat="49.92379" lon="6.14267">
        <ele>324</ele>
        <time>2026-08-25T15:17:57+00:00</time>
      </trkpt>
      <trkpt lat="49.92363" lon="6.14231">
        <ele>324</ele>
        <time>2026-08-25T15:18:00+00:00</time>
      </trkpt>
      <trkpt lat="49.92342" lon="6.142">
        <ele>324</ele>
        <time>2026-08-25T15:18:03+00:00</time>
      </trkpt>
      <trkpt lat="49.9232" lon="6.14169">
        <ele>330</ele>
        <time>2026-08-25T15:18:06+00:00</time>
      </trkpt>
      <trkpt lat="49.92298" lon="6.14137">
        <ele>331</ele>
        <time>2026-08-25T15:18:09+00:00</time>
      </trkpt>
      <trkpt lat="49.92271" lon="6.14109">
        <ele>330</ele>
        <time>2026-08-25T15:18:12+00:00</time>
      </trkpt>
      <trkpt lat="49.92243" lon="6.14081">
        <ele>330</ele>
        <time>2026-08-25T15:18:15+00:00</time>
      </trkpt>
      <trkpt lat="49.92216" lon="6.14053">
        <ele>328</ele>
        <time>2026-08-25T15:18:18+00:00</time>
      </trkpt>
      <trkpt lat="49.92184" lon="6.14021">
        <ele>326</ele>
        <time>2026-08-25T15:18:21+00:00</time>
      </trkpt>
      <trkpt lat="49.92158" lon="6.14008">
        <ele>324</ele>
        <time>2026-08-25T15:18:24+00:00</time>
      </trkpt>
      <trkpt lat="49.9212" lon="6.1399">
        <ele>320</ele>
        <time>2026-08-25T15:18:27+00:00</time>
      </trkpt>
      <trkpt lat="49.92098" lon="6.13951">
        <ele>318</ele>
        <time>2026-08-25T15:18:30+00:00</time>
      </trkpt>
      <trkpt lat="49.92075" lon="6.13912">
        <ele>317</ele>
        <time>2026-08-25T15:18:33+00:00</time>
      </trkpt>
      <trkpt lat="49.92053" lon="6.13873">
        <ele>317</ele>
        <time>2026-08-25T15:18:36+00:00</time>
      </trkpt>
      <trkpt lat="49.92021" lon="6.13818">
        <ele>318</ele>
        <time>2026-08-25T15:18:39+00:00</time>
      </trkpt>
      <trkpt lat="49.91992" lon="6.13803">
        <ele>317</ele>
        <time>2026-08-25T15:18:42+00:00</time>
      </trkpt>
      <trkpt lat="49.91964" lon="6.13788">
        <ele>317</ele>
        <time>2026-08-25T15:18:45+00:00</time>
      </trkpt>
      <trkpt lat="49.91926" lon="6.13768">
        <ele>314</ele>
        <time>2026-08-25T15:18:48+00:00</time>
      </trkpt>
      <trkpt lat="49.91903" lon="6.13767">
        <ele>312</ele>
        <time>2026-08-25T15:18:51+00:00</time>
      </trkpt>
      <trkpt lat="49.91875" lon="6.13766">
        <ele>302</ele>
        <time>2026-08-25T15:18:54+00:00</time>
      </trkpt>
      <trkpt lat="49.91839" lon="6.13767">
        <ele>305</ele>
        <time>2026-08-25T15:18:57+00:00</time>
      </trkpt>
      <trkpt lat="49.91802" lon="6.13768">
        <ele>305</ele>
        <time>2026-08-25T15:19:00+00:00</time>
      </trkpt>
      <trkpt lat="49.91765" lon="6.13769">
        <ele>304</ele>
        <time>2026-08-25T15:19:03+00:00</time>
      </trkpt>
      <trkpt lat="49.91729" lon="6.1377">
        <ele>304</ele>
        <time>2026-08-25T15:19:06+00:00</time>
      </trkpt>
      <trkpt lat="49.91692" lon="6.13771">
        <ele>296</ele>
        <time>2026-08-25T15:19:09+00:00</time>
      </trkpt>
      <trkpt lat="49.91636" lon="6.13772">
        <ele>301</ele>
        <time>2026-08-25T15:19:12+00:00</time>
      </trkpt>
      <trkpt lat="49.91614" lon="6.13759">
        <ele>307</ele>
        <time>2026-08-25T15:19:15+00:00</time>
      </trkpt>
      <trkpt lat="49.9159" lon="6.13743">
        <ele>311</ele>
        <time>2026-08-25T15:19:18+00:00</time>
      </trkpt>
      <trkpt lat="49.91558" lon="6.13741">
        <ele>312</ele>
        <time>2026-08-25T15:19:21+00:00</time>
      </trkpt>
      <trkpt lat="49.91526" lon="6.13739">
        <ele>322</ele>
        <time>2026-08-25T15:19:24+00:00</time>
      </trkpt>
      <trkpt lat="49.91467" lon="6.13734">
        <ele>325</ele>
        <time>2026-08-25T15:19:27+00:00</time>
      </trkpt>
      <trkpt lat="49.91436" lon="6.13743">
        <ele>323</ele>
        <time>2026-08-25T15:19:30+00:00</time>
      </trkpt>
      <trkpt lat="49.91405" lon="6.13751">
        <ele>322</ele>
        <time>2026-08-25T15:19:33+00:00</time>
      </trkpt>
      <trkpt lat="49.91359" lon="6.13763">
        <ele>313</ele>
        <time>2026-08-25T15:19:36+00:00</time>
      </trkpt>
      <trkpt lat="49.91345" lon="6.13707">
        <ele>310</ele>
        <time>2026-08-25T15:19:39+00:00</time>
      </trkpt>
      <trkpt lat="49.91323" lon="6.13712">
        <ele>308</ele>
        <time>2026-08-25T15:19:42+00:00</time>
      </trkpt>
      <trkpt lat="49.913" lon="6.13717">
        <ele>308</ele>
        <time>2026-08-25T15:19:45+00:00</time>
      </trkpt>
      <trkpt lat="49.91293" lon="6.13705">
        <ele>302</ele>
        <time>2026-08-25T15:19:48+00:00</time>
      </trkpt>
      <trkpt lat="49.91318" lon="6.13675">
        <ele>293</ele>
        <time>2026-08-25T15:19:51+00:00</time>
      </trkpt>
      <trkpt lat="49.91276" lon="6.1368">
        <ele>282</ele>
        <time>2026-08-25T15:19:54+00:00</time>
      </trkpt>
      <trkpt lat="49.91253" lon="6.13676">
        <ele>277</ele>
        <time>2026-08-25T15:19:57+00:00</time>
      </trkpt>
      <trkpt lat="49.91228" lon="6.13672">
        <ele>273</ele>
        <time>2026-08-25T15:20:00+00:00</time>
      </trkpt>
      <trkpt lat="49.91206" lon="6.13677">
        <ele>273</ele>
        <time>2026-08-25T15:20:03+00:00</time>
      </trkpt>
      <trkpt lat="49.91181" lon="6.13683">
        <ele>272</ele>
        <time>2026-08-25T15:20:06+00:00</time>
      </trkpt>
      <trkpt lat="49.91198" lon="6.13736">
        <ele>279</ele>
        <time>2026-08-25T15:20:09+00:00</time>
      </trkpt>
      <trkpt lat="49.9121" lon="6.13717">
        <ele>273</ele>
        <time>2026-08-25T15:20:12+00:00</time>
      </trkpt>
      <trkpt lat="49.91212" lon="6.13742">
        <ele>287</ele>
        <time>2026-08-25T15:20:15+00:00</time>
      </trkpt>
      <trkpt lat="49.91219" lon="6.13719">
        <ele>281</ele>
        <time>2026-08-25T15:20:18+00:00</time>
      </trkpt>
      <trkpt lat="49.91226" lon="6.13743">
        <ele>296</ele>
        <time>2026-08-25T15:20:21+00:00</time>
      </trkpt>
      <trkpt lat="49.91236" lon="6.13774">
        <ele>307</ele>
        <time>2026-08-25T15:20:24+00:00</time>
      </trkpt>
      <trkpt lat="49.91232" lon="6.13809">
        <ele>307</ele>
        <time>2026-08-25T15:20:27+00:00</time>
      </trkpt>
      <trkpt lat="49.91228" lon="6.1385">
        <ele>294</ele>
        <time>2026-08-25T15:20:30+00:00</time>
      </trkpt>
      <trkpt lat="49.91216" lon="6.13828">
        <ele>293</ele>
        <time>2026-08-25T15:20:33+00:00</time>
      </trkpt>
      <trkpt lat="49.91206" lon="6.13863">
        <ele>283</ele>
        <time>2026-08-25T15:20:36+00:00</time>
      </trkpt>
      <trkpt lat="49.91191" lon="6.13877">
        <ele>279</ele>
        <time>2026-08-25T15:20:39+00:00</time>
      </trkpt>
      <trkpt lat="49.91181" lon="6.13891">
        <ele>275</ele>
        <time>2026-08-25T15:20:42+00:00</time>
      </trkpt>
      <trkpt lat="49.91171" lon="6.13905">
        <ele>273</ele>
        <time>2026-08-25T15:20:45+00:00</time>
      </trkpt>
      <trkpt lat="49.91155" lon="6.13932">
        <ele>272</ele>
        <time>2026-08-25T15:20:48+00:00</time>
      </trkpt>
      <trkpt lat="49.91163" lon="6.13946">
        <ele>269</ele>
        <time>2026-08-25T15:20:51+00:00</time>
      </trkpt>
      <trkpt lat="49.91191" lon="6.13932">
        <ele>273</ele>
        <time>2026-08-25T15:20:54+00:00</time>
      </trkpt>
      <trkpt lat="49.91219" lon="6.13918">
        <ele>275</ele>
        <time>2026-08-25T15:20:57+00:00</time>
      </trkpt>
      <trkpt lat="49.91247" lon="6.13904">
        <ele>275</ele>
        <time>2026-08-25T15:21:00+00:00</time>
      </trkpt>
      <trkpt lat="49.91278" lon="6.13889">
        <ele>281</ele>
        <time>2026-08-25T15:21:03+00:00</time>
      </trkpt>
      <trkpt lat="49.91307" lon="6.13871">
        <ele>281</ele>
        <time>2026-08-25T15:21:06+00:00</time>
      </trkpt>
      <trkpt lat="49.91337" lon="6.13853">
        <ele>283</ele>
        <time>2026-08-25T15:21:09+00:00</time>
      </trkpt>
      <trkpt lat="49.9139" lon="6.13822">
        <ele>283</ele>
        <time>2026-08-25T15:21:12+00:00</time>
      </trkpt>
      <trkpt lat="49.91411" lon="6.1386">
        <ele>283</ele>
        <time>2026-08-25T15:21:15+00:00</time>
      </trkpt>
      <trkpt lat="49.91438" lon="6.13853">
        <ele>284</ele>
        <time>2026-08-25T15:21:18+00:00</time>
      </trkpt>
      <trkpt lat="49.91488" lon="6.13841">
        <ele>293</ele>
        <time>2026-08-25T15:21:21+00:00</time>
      </trkpt>
      <trkpt lat="49.91512" lon="6.13833">
        <ele>293</ele>
        <time>2026-08-25T15:21:24+00:00</time>
      </trkpt>
      <trkpt lat="49.91543" lon="6.13822">
        <ele>305</ele>
        <time>2026-08-25T15:21:27+00:00</time>
      </trkpt>
      <trkpt lat="49.91573" lon="6.13823">
        <ele>312</ele>
        <time>2026-08-25T15:21:30+00:00</time>
      </trkpt>
      <trkpt lat="49.91603" lon="6.13823">
        <ele>312</ele>
        <time>2026-08-25T15:21:33+00:00</time>
      </trkpt>
      <trkpt lat="49.91638" lon="6.13823">
        <ele>312</ele>
        <time>2026-08-25T15:21:36+00:00</time>
      </trkpt>
      <trkpt lat="49.91662" lon="6.13833">
        <ele>316</ele>
        <time>2026-08-25T15:21:39+00:00</time>
      </trkpt>
      <trkpt lat="49.91694" lon="6.13847">
        <ele>320</ele>
        <time>2026-08-25T15:21:42+00:00</time>
      </trkpt>
      <trkpt lat="49.91721" lon="6.13844">
        <ele>324</ele>
        <time>2026-08-25T15:21:45+00:00</time>
      </trkpt>
      <trkpt lat="49.91767" lon="6.13838">
        <ele>325</ele>
        <time>2026-08-25T15:21:48+00:00</time>
      </trkpt>
      <trkpt lat="49.91789" lon="6.13847">
        <ele>325</ele>
        <time>2026-08-25T15:21:51+00:00</time>
      </trkpt>
      <trkpt lat="49.91816" lon="6.13858">
        <ele>326</ele>
        <time>2026-08-25T15:21:54+00:00</time>
      </trkpt>
      <trkpt lat="49.91801" lon="6.13862">
        <ele>328</ele>
        <time>2026-08-25T15:21:57+00:00</time>
      </trkpt>
      <trkpt lat="49.91783" lon="6.13864">
        <ele>328</ele>
        <time>2026-08-25T15:22:00+00:00</time>
      </trkpt>
      <trkpt lat="49.91759" lon="6.13866">
        <ele>332</ele>
        <time>2026-08-25T15:22:03+00:00</time>
      </trkpt>
      <trkpt lat="49.91721" lon="6.13887">
        <ele>334</ele>
        <time>2026-08-25T15:22:06+00:00</time>
      </trkpt>
      <trkpt lat="49.91713" lon="6.13895">
        <ele>337</ele>
        <time>2026-08-25T15:22:09+00:00</time>
      </trkpt>
      <trkpt lat="49.91704" lon="6.1391">
        <ele>342</ele>
        <time>2026-08-25T15:22:12+00:00</time>
      </trkpt>
      <trkpt lat="49.91698" lon="6.1392">
        <ele>346</ele>
        <time>2026-08-25T15:22:15+00:00</time>
      </trkpt>
      <trkpt lat="49.91687" lon="6.13927">
        <ele>343</ele>
        <time>2026-08-25T15:22:18+00:00</time>
      </trkpt>
      <trkpt lat="49.91674" lon="6.13924">
        <ele>351</ele>
        <time>2026-08-25T15:22:21+00:00</time>
      </trkpt>
      <trkpt lat="49.91652" lon="6.13908">
        <ele>344</ele>
        <time>2026-08-25T15:22:24+00:00</time>
      </trkpt>
      <trkpt lat="49.91634" lon="6.13905">
        <ele>344</ele>
        <time>2026-08-25T15:22:27+00:00</time>
      </trkpt>
      <trkpt lat="49.91624" lon="6.13907">
        <ele>341</ele>
        <time>2026-08-25T15:22:30+00:00</time>
      </trkpt>
      <trkpt lat="49.91609" lon="6.13919">
        <ele>342</ele>
        <time>2026-08-25T15:22:33+00:00</time>
      </trkpt>
      <trkpt lat="49.91578" lon="6.13937">
        <ele>346</ele>
        <time>2026-08-25T15:22:36+00:00</time>
      </trkpt>
      <trkpt lat="49.9155" lon="6.13961">
        <ele>347</ele>
        <time>2026-08-25T15:22:39+00:00</time>
      </trkpt>
      <trkpt lat="49.91532" lon="6.13968">
        <ele>349</ele>
        <time>2026-08-25T15:22:42+00:00</time>
      </trkpt>
      <trkpt lat="49.91516" lon="6.13981">
        <ele>348</ele>
        <time>2026-08-25T15:22:45+00:00</time>
      </trkpt>
      <trkpt lat="49.91508" lon="6.13987">
        <ele>345</ele>
        <time>2026-08-25T15:22:48+00:00</time>
      </trkpt>
      <trkpt lat="49.91489" lon="6.14008">
        <ele>348</ele>
        <time>2026-08-25T15:22:51+00:00</time>
      </trkpt>
      <trkpt lat="49.91459" lon="6.14041">
        <ele>352</ele>
        <time>2026-08-25T15:22:54+00:00</time>
      </trkpt>
      <trkpt lat="49.91427" lon="6.14082">
        <ele>359</ele>
        <time>2026-08-25T15:22:57+00:00</time>
      </trkpt>
      <trkpt lat="49.91408" lon="6.14098">
        <ele>360</ele>
        <time>2026-08-25T15:23:00+00:00</time>
      </trkpt>
      <trkpt lat="49.91408" lon="6.14108">
        <ele>360</ele>
        <time>2026-08-25T15:23:03+00:00</time>
      </trkpt>
      <trkpt lat="49.91413" lon="6.14114">
        <ele>361</ele>
        <time>2026-08-25T15:23:06+00:00</time>
      </trkpt>
      <trkpt lat="49.91416" lon="6.14115">
        <ele>361</ele>
        <time>2026-08-25T15:23:09+00:00</time>
      </trkpt>
      <trkpt lat="49.91431" lon="6.14101">
        <ele>363</ele>
        <time>2026-08-25T15:23:12+00:00</time>
      </trkpt>
      <trkpt lat="49.91452" lon="6.14084">
        <ele>365</ele>
        <time>2026-08-25T15:23:15+00:00</time>
      </trkpt>
      <trkpt lat="49.91473" lon="6.14071">
        <ele>367</ele>
        <time>2026-08-25T15:23:18+00:00</time>
      </trkpt>
      <trkpt lat="49.91497" lon="6.14057">
        <ele>369</ele>
        <time>2026-08-25T15:23:21+00:00</time>
      </trkpt>
      <trkpt lat="49.91529" lon="6.14041">
        <ele>380</ele>
        <time>2026-08-25T15:23:24+00:00</time>
      </trkpt>
      <trkpt lat="49.91535" lon="6.14039">
        <ele>382</ele>
        <time>2026-08-25T15:23:27+00:00</time>
      </trkpt>
      <trkpt lat="49.91558" lon="6.14037">
        <ele>388</ele>
        <time>2026-08-25T15:23:30+00:00</time>
      </trkpt>
      <trkpt lat="49.9159" lon="6.14035">
        <ele>392</ele>
        <time>2026-08-25T15:23:33+00:00</time>
      </trkpt>
      <trkpt lat="49.91605" lon="6.14037">
        <ele>393</ele>
        <time>2026-08-25T15:23:36+00:00</time>
      </trkpt>
      <trkpt lat="49.91619" lon="6.14047">
        <ele>393</ele>
        <time>2026-08-25T15:23:39+00:00</time>
      </trkpt>
      <trkpt lat="49.9163" lon="6.14059">
        <ele>394</ele>
        <time>2026-08-25T15:23:42+00:00</time>
      </trkpt>
      <trkpt lat="49.91642" lon="6.14076">
        <ele>394</ele>
        <time>2026-08-25T15:23:45+00:00</time>
      </trkpt>
      <trkpt lat="49.91656" lon="6.14095">
        <ele>394</ele>
        <time>2026-08-25T15:23:48+00:00</time>
      </trkpt>
      <trkpt lat="49.91675" lon="6.14115">
        <ele>394</ele>
        <time>2026-08-25T15:23:51+00:00</time>
      </trkpt>
      <trkpt lat="49.91685" lon="6.14123">
        <ele>393</ele>
        <time>2026-08-25T15:23:54+00:00</time>
      </trkpt>
      <trkpt lat="49.91709" lon="6.14129">
        <ele>395</ele>
        <time>2026-08-25T15:23:57+00:00</time>
      </trkpt>
      <trkpt lat="49.91721" lon="6.14125">
        <ele>397</ele>
        <time>2026-08-25T15:24:00+00:00</time>
      </trkpt>
      <trkpt lat="49.91737" lon="6.14115">
        <ele>399</ele>
        <time>2026-08-25T15:24:03+00:00</time>
      </trkpt>
      <trkpt lat="49.91738" lon="6.14113">
        <ele>399</ele>
        <time>2026-08-25T15:24:06+00:00</time>
      </trkpt>
      <trkpt lat="49.91753" lon="6.1409">
        <ele>404</ele>
        <time>2026-08-25T15:24:09+00:00</time>
      </trkpt>
      <trkpt lat="49.91768" lon="6.14067">
        <ele>405</ele>
        <time>2026-08-25T15:24:12+00:00</time>
      </trkpt>
      <trkpt lat="49.91777" lon="6.14061">
        <ele>406</ele>
        <time>2026-08-25T15:24:15+00:00</time>
      </trkpt>
      <trkpt lat="49.91801" lon="6.14056">
        <ele>407</ele>
        <time>2026-08-25T15:24:18+00:00</time>
      </trkpt>
      <trkpt lat="49.91841" lon="6.14047">
        <ele>410</ele>
        <time>2026-08-25T15:24:21+00:00</time>
      </trkpt>
      <trkpt lat="49.91853" lon="6.14046">
        <ele>410</ele>
        <time>2026-08-25T15:24:24+00:00</time>
      </trkpt>
      <trkpt lat="49.91861" lon="6.1405">
        <ele>410</ele>
        <time>2026-08-25T15:24:27+00:00</time>
      </trkpt>
      <trkpt lat="49.91873" lon="6.14061">
        <ele>411</ele>
        <time>2026-08-25T15:24:30+00:00</time>
      </trkpt>
      <trkpt lat="49.91875" lon="6.14065">
        <ele>411</ele>
        <time>2026-08-25T15:24:33+00:00</time>
      </trkpt>
      <trkpt lat="49.91873" lon="6.1407">
        <ele>411</ele>
        <time>2026-08-25T15:24:36+00:00</time>
      </trkpt>
      <trkpt lat="49.91857" lon="6.14064">
        <ele>413</ele>
        <time>2026-08-25T15:24:39+00:00</time>
      </trkpt>
      <trkpt lat="49.91851" lon="6.14064">
        <ele>413</ele>
        <time>2026-08-25T15:24:42+00:00</time>
      </trkpt>
      <trkpt lat="49.9184" lon="6.14074">
        <ele>415</ele>
        <time>2026-08-25T15:24:45+00:00</time>
      </trkpt>
      <trkpt lat="49.91835" lon="6.14084">
        <ele>415</ele>
        <time>2026-08-25T15:24:48+00:00</time>
      </trkpt>
      <trkpt lat="49.91833" lon="6.14093">
        <ele>416</ele>
        <time>2026-08-25T15:24:51+00:00</time>
      </trkpt>
      <trkpt lat="49.9183" lon="6.14123">
        <ele>415</ele>
        <time>2026-08-25T15:24:54+00:00</time>
      </trkpt>
      <trkpt lat="49.91833" lon="6.14129">
        <ele>417</ele>
        <time>2026-08-25T15:24:57+00:00</time>
      </trkpt>
      <trkpt lat="49.91837" lon="6.14128">
        <ele>417</ele>
        <time>2026-08-25T15:25:00+00:00</time>
      </trkpt>
      <trkpt lat="49.91851" lon="6.14108">
        <ele>419</ele>
        <time>2026-08-25T15:25:03+00:00</time>
      </trkpt>
      <trkpt lat="49.9186" lon="6.14109">
        <ele>419</ele>
        <time>2026-08-25T15:25:06+00:00</time>
      </trkpt>
      <trkpt lat="49.9187" lon="6.14126">
        <ele>421</ele>
        <time>2026-08-25T15:25:09+00:00</time>
      </trkpt>
      <trkpt lat="49.91873" lon="6.14162">
        <ele>425</ele>
        <time>2026-08-25T15:25:12+00:00</time>
      </trkpt>
      <trkpt lat="49.91876" lon="6.14204">
        <ele>427</ele>
        <time>2026-08-25T15:25:15+00:00</time>
      </trkpt>
      <trkpt lat="49.91877" lon="6.14209">
        <ele>427</ele>
        <time>2026-08-25T15:25:18+00:00</time>
      </trkpt>
      <trkpt lat="49.91883" lon="6.14244">
        <ele>430</ele>
        <time>2026-08-25T15:25:21+00:00</time>
      </trkpt>
      <trkpt lat="49.91898" lon="6.14291">
        <ele>433</ele>
        <time>2026-08-25T15:25:24+00:00</time>
      </trkpt>
      <trkpt lat="49.91909" lon="6.14346">
        <ele>433</ele>
        <time>2026-08-25T15:25:27+00:00</time>
      </trkpt>
      <trkpt lat="49.91919" lon="6.14374">
        <ele>434</ele>
        <time>2026-08-25T15:25:30+00:00</time>
      </trkpt>
      <trkpt lat="49.91927" lon="6.14405">
        <ele>435</ele>
        <time>2026-08-25T15:25:33+00:00</time>
      </trkpt>
      <trkpt lat="49.91935" lon="6.14446">
        <ele>436</ele>
        <time>2026-08-25T15:25:36+00:00</time>
      </trkpt>
      <trkpt lat="49.91948" lon="6.14517">
        <ele>437</ele>
        <time>2026-08-25T15:25:39+00:00</time>
      </trkpt>
      <trkpt lat="49.91951" lon="6.1456">
        <ele>438</ele>
        <time>2026-08-25T15:25:42+00:00</time>
      </trkpt>
      <trkpt lat="49.91952" lon="6.14588">
        <ele>439</ele>
        <time>2026-08-25T15:25:45+00:00</time>
      </trkpt>
      <trkpt lat="49.91954" lon="6.14621">
        <ele>439</ele>
        <time>2026-08-25T15:25:48+00:00</time>
      </trkpt>
      <trkpt lat="49.9196" lon="6.14658">
        <ele>439</ele>
        <time>2026-08-25T15:25:51+00:00</time>
      </trkpt>
      <trkpt lat="49.91967" lon="6.14707">
        <ele>439</ele>
        <time>2026-08-25T15:25:54+00:00</time>
      </trkpt>
      <trkpt lat="49.91969" lon="6.14734">
        <ele>440</ele>
        <time>2026-08-25T15:25:57+00:00</time>
      </trkpt>
      <trkpt lat="49.9197" lon="6.14781">
        <ele>441</ele>
        <time>2026-08-25T15:26:00+00:00</time>
      </trkpt>
      <trkpt lat="49.9197" lon="6.14828">
        <ele>442</ele>
        <time>2026-08-25T15:26:03+00:00</time>
      </trkpt>
      <trkpt lat="49.91971" lon="6.14888">
        <ele>442</ele>
        <time>2026-08-25T15:26:06+00:00</time>
      </trkpt>
      <trkpt lat="49.91969" lon="6.14913">
        <ele>441</ele>
        <time>2026-08-25T15:26:09+00:00</time>
      </trkpt>
      <trkpt lat="49.91962" lon="6.14923">
        <ele>441</ele>
        <time>2026-08-25T15:26:12+00:00</time>
      </trkpt>
      <trkpt lat="49.91938" lon="6.14927">
        <ele>438</ele>
        <time>2026-08-25T15:26:15+00:00</time>
      </trkpt>
      <trkpt lat="49.91909" lon="6.14933">
        <ele>434</ele>
        <time>2026-08-25T15:26:18+00:00</time>
      </trkpt>
      <trkpt lat="49.91875" lon="6.14951">
        <ele>429</ele>
        <time>2026-08-25T15:26:21+00:00</time>
      </trkpt>
      <trkpt lat="49.91848" lon="6.14959">
        <ele>423</ele>
        <time>2026-08-25T15:26:24+00:00</time>
      </trkpt>
      <trkpt lat="49.91798" lon="6.14974">
        <ele>415</ele>
        <time>2026-08-25T15:26:27+00:00</time>
      </trkpt>
      <trkpt lat="49.91781" lon="6.14974">
        <ele>415</ele>
        <time>2026-08-25T15:26:30+00:00</time>
      </trkpt>
      <trkpt lat="49.91767" lon="6.14969">
        <ele>415</ele>
        <time>2026-08-25T15:26:33+00:00</time>
      </trkpt>
      <trkpt lat="49.91763" lon="6.14965">
        <ele>414</ele>
        <time>2026-08-25T15:26:36+00:00</time>
      </trkpt>
      <trkpt lat="49.91753" lon="6.14985">
        <ele>416</ele>
        <time>2026-08-25T15:26:39+00:00</time>
      </trkpt>
      <trkpt lat="49.91752" lon="6.15">
        <ele>416</ele>
        <time>2026-08-25T15:26:42+00:00</time>
      </trkpt>
      <trkpt lat="49.91759" lon="6.15043">
        <ele>419</ele>
        <time>2026-08-25T15:26:45+00:00</time>
      </trkpt>
      <trkpt lat="49.91765" lon="6.15086">
        <ele>420</ele>
        <time>2026-08-25T15:26:48+00:00</time>
      </trkpt>
      <trkpt lat="49.91776" lon="6.15155">
        <ele>422</ele>
        <time>2026-08-25T15:26:51+00:00</time>
      </trkpt>
      <trkpt lat="49.91777" lon="6.15217">
        <ele>423</ele>
        <time>2026-08-25T15:26:54+00:00</time>
      </trkpt>
      <trkpt lat="49.91781" lon="6.1525">
        <ele>424</ele>
        <time>2026-08-25T15:26:57+00:00</time>
      </trkpt>
      <trkpt lat="49.91785" lon="6.15284">
        <ele>424</ele>
        <time>2026-08-25T15:27:00+00:00</time>
      </trkpt>
      <trkpt lat="49.91785" lon="6.15284">
        <ele>424</ele>
        <time>2026-08-25T15:27:03+00:00</time>
      </trkpt>
      <trkpt lat="49.91785" lon="6.15291">
        <ele>424</ele>
        <time>2026-08-25T15:27:06+00:00</time>
      </trkpt>
      <trkpt lat="49.91802" lon="6.15297">
        <ele>425</ele>
        <time>2026-08-25T15:27:09+00:00</time>
      </trkpt>
      <trkpt lat="49.91807" lon="6.15321">
        <ele>425</ele>
        <time>2026-08-25T15:27:12+00:00</time>
      </trkpt>
      <trkpt lat="49.91815" lon="6.15344">
        <ele>425</ele>
        <time>2026-08-25T15:27:15+00:00</time>
      </trkpt>
      <trkpt lat="49.91824" lon="6.15372">
        <ele>425</ele>
        <time>2026-08-25T15:27:18+00:00</time>
      </trkpt>
      <trkpt lat="49.91834" lon="6.15396">
        <ele>425</ele>
        <time>2026-08-25T15:27:21+00:00</time>
      </trkpt>
      <trkpt lat="49.9185" lon="6.15429">
        <ele>426</ele>
        <time>2026-08-25T15:27:24+00:00</time>
      </trkpt>
      <trkpt lat="49.91877" lon="6.15484">
        <ele>426</ele>
        <time>2026-08-25T15:27:27+00:00</time>
      </trkpt>
      <trkpt lat="49.91894" lon="6.15516">
        <ele>427</ele>
        <time>2026-08-25T15:27:30+00:00</time>
      </trkpt>
      <trkpt lat="49.91923" lon="6.15569">
        <ele>428</ele>
        <time>2026-08-25T15:27:33+00:00</time>
      </trkpt>
      <trkpt lat="49.91939" lon="6.15604">
        <ele>428</ele>
        <time>2026-08-25T15:27:36+00:00</time>
      </trkpt>
      <trkpt lat="49.91954" lon="6.15639">
        <ele>427</ele>
        <time>2026-08-25T15:27:39+00:00</time>
      </trkpt>
      <trkpt lat="49.91954" lon="6.15647">
        <ele>429</ele>
        <time>2026-08-25T15:27:42+00:00</time>
      </trkpt>
      <trkpt lat="49.91951" lon="6.15653">
        <ele>428</ele>
        <time>2026-08-25T15:27:45+00:00</time>
      </trkpt>
      <trkpt lat="49.91935" lon="6.15667">
        <ele>426</ele>
        <time>2026-08-25T15:27:48+00:00</time>
      </trkpt>
      <trkpt lat="49.91918" lon="6.15684">
        <ele>422</ele>
        <time>2026-08-25T15:27:51+00:00</time>
      </trkpt>
      <trkpt lat="49.91916" lon="6.15688">
        <ele>422</ele>
        <time>2026-08-25T15:27:54+00:00</time>
      </trkpt>
      <trkpt lat="49.91916" lon="6.15693">
        <ele>422</ele>
        <time>2026-08-25T15:27:57+00:00</time>
      </trkpt>
      <trkpt lat="49.91936" lon="6.15727">
        <ele>422</ele>
        <time>2026-08-25T15:28:00+00:00</time>
      </trkpt>
      <trkpt lat="49.91956" lon="6.1576">
        <ele>422</ele>
        <time>2026-08-25T15:28:03+00:00</time>
      </trkpt>
      <trkpt lat="49.91987" lon="6.15813">
        <ele>422</ele>
        <time>2026-08-25T15:28:06+00:00</time>
      </trkpt>
      <trkpt lat="49.92005" lon="6.15832">
        <ele>422</ele>
        <time>2026-08-25T15:28:09+00:00</time>
      </trkpt>
      <trkpt lat="49.92042" lon="6.15862">
        <ele>423</ele>
        <time>2026-08-25T15:28:12+00:00</time>
      </trkpt>
      <trkpt lat="49.92062" lon="6.15874">
        <ele>423</ele>
        <time>2026-08-25T15:28:15+00:00</time>
      </trkpt>
      <trkpt lat="49.92083" lon="6.15887">
        <ele>423</ele>
        <time>2026-08-25T15:28:18+00:00</time>
      </trkpt>
      <trkpt lat="49.92119" lon="6.15906">
        <ele>422</ele>
        <time>2026-08-25T15:28:21+00:00</time>
      </trkpt>
      <trkpt lat="49.921" lon="6.15927">
        <ele>422</ele>
        <time>2026-08-25T15:28:24+00:00</time>
      </trkpt>
      <trkpt lat="49.92078" lon="6.15951">
        <ele>418</ele>
        <time>2026-08-25T15:28:27+00:00</time>
      </trkpt>
      <trkpt lat="49.9205" lon="6.15993">
        <ele>412</ele>
        <time>2026-08-25T15:28:30+00:00</time>
      </trkpt>
      <trkpt lat="49.92032" lon="6.16017">
        <ele>410</ele>
        <time>2026-08-25T15:28:33+00:00</time>
      </trkpt>
      <trkpt lat="49.92011" lon="6.16045">
        <ele>406</ele>
        <time>2026-08-25T15:28:36+00:00</time>
      </trkpt>
      <trkpt lat="49.92" lon="6.16057">
        <ele>404</ele>
        <time>2026-08-25T15:28:39+00:00</time>
      </trkpt>
      <trkpt lat="49.91981" lon="6.16072">
        <ele>401</ele>
        <time>2026-08-25T15:28:42+00:00</time>
      </trkpt>
      <trkpt lat="49.91949" lon="6.16097">
        <ele>395</ele>
        <time>2026-08-25T15:28:45+00:00</time>
      </trkpt>
      <trkpt lat="49.91935" lon="6.16111">
        <ele>391</ele>
        <time>2026-08-25T15:28:48+00:00</time>
      </trkpt>
      <trkpt lat="49.91926" lon="6.16143">
        <ele>386</ele>
        <time>2026-08-25T15:28:51+00:00</time>
      </trkpt>
      <trkpt lat="49.91908" lon="6.16203">
        <ele>377</ele>
        <time>2026-08-25T15:28:54+00:00</time>
      </trkpt>
      <trkpt lat="49.91896" lon="6.16234">
        <ele>374</ele>
        <time>2026-08-25T15:28:57+00:00</time>
      </trkpt>
      <trkpt lat="49.91882" lon="6.1627">
        <ele>370</ele>
        <time>2026-08-25T15:29:00+00:00</time>
      </trkpt>
      <trkpt lat="49.91871" lon="6.163">
        <ele>368</ele>
        <time>2026-08-25T15:29:03+00:00</time>
      </trkpt>
      <trkpt lat="49.91859" lon="6.16331">
        <ele>367</ele>
        <time>2026-08-25T15:29:06+00:00</time>
      </trkpt>
      <trkpt lat="49.91885" lon="6.1636">
        <ele>366</ele>
        <time>2026-08-25T15:29:09+00:00</time>
      </trkpt>
      <trkpt lat="49.91911" lon="6.16388">
        <ele>362</ele>
        <time>2026-08-25T15:29:12+00:00</time>
      </trkpt>
      <trkpt lat="49.91956" lon="6.16439">
        <ele>362</ele>
        <time>2026-08-25T15:29:15+00:00</time>
      </trkpt>
      <trkpt lat="49.91959" lon="6.16439">
        <ele>362</ele>
        <time>2026-08-25T15:29:18+00:00</time>
      </trkpt>
      <trkpt lat="49.91961" lon="6.16433">
        <ele>363</ele>
        <time>2026-08-25T15:29:21+00:00</time>
      </trkpt>
      <trkpt lat="49.91962" lon="6.16419">
        <ele>364</ele>
        <time>2026-08-25T15:29:24+00:00</time>
      </trkpt>
      <trkpt lat="49.91956" lon="6.16396">
        <ele>363</ele>
        <time>2026-08-25T15:29:27+00:00</time>
      </trkpt>
      <trkpt lat="49.91954" lon="6.16378">
        <ele>364</ele>
        <time>2026-08-25T15:29:30+00:00</time>
      </trkpt>
      <trkpt lat="49.91956" lon="6.16356">
        <ele>365</ele>
        <time>2026-08-25T15:29:33+00:00</time>
      </trkpt>
      <trkpt lat="49.91965" lon="6.16332">
        <ele>367</ele>
        <time>2026-08-25T15:29:36+00:00</time>
      </trkpt>
      <trkpt lat="49.91976" lon="6.16313">
        <ele>370</ele>
        <time>2026-08-25T15:29:39+00:00</time>
      </trkpt>
      <trkpt lat="49.91985" lon="6.16299">
        <ele>373</ele>
        <time>2026-08-25T15:29:42+00:00</time>
      </trkpt>
      <trkpt lat="49.91993" lon="6.16286">
        <ele>372</ele>
        <time>2026-08-25T15:29:45+00:00</time>
      </trkpt>
      <trkpt lat="49.92002" lon="6.1628">
        <ele>372</ele>
        <time>2026-08-25T15:29:48+00:00</time>
      </trkpt>
      <trkpt lat="49.92014" lon="6.16276">
        <ele>374</ele>
        <time>2026-08-25T15:29:51+00:00</time>
      </trkpt>
      <trkpt lat="49.92018" lon="6.16278">
        <ele>374</ele>
        <time>2026-08-25T15:29:54+00:00</time>
      </trkpt>
      <trkpt lat="49.92017" lon="6.16283">
        <ele>372</ele>
        <time>2026-08-25T15:29:57+00:00</time>
      </trkpt>
      <trkpt lat="49.92005" lon="6.16297">
        <ele>369</ele>
        <time>2026-08-25T15:30:00+00:00</time>
      </trkpt>
      <trkpt lat="49.91997" lon="6.16313">
        <ele>371</ele>
        <time>2026-08-25T15:30:03+00:00</time>
      </trkpt>
      <trkpt lat="49.91991" lon="6.16333">
        <ele>368</ele>
        <time>2026-08-25T15:30:06+00:00</time>
      </trkpt>
      <trkpt lat="49.91989" lon="6.1635">
        <ele>367</ele>
        <time>2026-08-25T15:30:09+00:00</time>
      </trkpt>
      <trkpt lat="49.91991" lon="6.16365">
        <ele>362</ele>
        <time>2026-08-25T15:30:12+00:00</time>
      </trkpt>
      <trkpt lat="49.92004" lon="6.16387">
        <ele>363</ele>
        <time>2026-08-25T15:30:15+00:00</time>
      </trkpt>
      <trkpt lat="49.92014" lon="6.16409">
        <ele>359</ele>
        <time>2026-08-25T15:30:18+00:00</time>
      </trkpt>
      <trkpt lat="49.92023" lon="6.16434">
        <ele>357</ele>
        <time>2026-08-25T15:30:21+00:00</time>
      </trkpt>
      <trkpt lat="49.92025" lon="6.16449">
        <ele>357</ele>
        <time>2026-08-25T15:30:24+00:00</time>
      </trkpt>
      <trkpt lat="49.92021" lon="6.16488">
        <ele>357</ele>
        <time>2026-08-25T15:30:27+00:00</time>
      </trkpt>
      <trkpt lat="49.92017" lon="6.16528">
        <ele>357</ele>
        <time>2026-08-25T15:30:30+00:00</time>
      </trkpt>
      <trkpt lat="49.92013" lon="6.16568">
        <ele>352</ele>
        <time>2026-08-25T15:30:33+00:00</time>
      </trkpt>
      <trkpt lat="49.92007" lon="6.16593">
        <ele>351</ele>
        <time>2026-08-25T15:30:36+00:00</time>
      </trkpt>
      <trkpt lat="49.92008" lon="6.16603">
        <ele>349</ele>
        <time>2026-08-25T15:30:39+00:00</time>
      </trkpt>
      <trkpt lat="49.92012" lon="6.16597">
        <ele>346</ele>
        <time>2026-08-25T15:30:42+00:00</time>
      </trkpt>
      <trkpt lat="49.92025" lon="6.16553">
        <ele>349</ele>
        <time>2026-08-25T15:30:45+00:00</time>
      </trkpt>
      <trkpt lat="49.9204" lon="6.16515">
        <ele>349</ele>
        <time>2026-08-25T15:30:48+00:00</time>
      </trkpt>
      <trkpt lat="49.92068" lon="6.16441">
        <ele>335</ele>
        <time>2026-08-25T15:30:51+00:00</time>
      </trkpt>
      <trkpt lat="49.92071" lon="6.16423">
        <ele>331</ele>
        <time>2026-08-25T15:30:54+00:00</time>
      </trkpt>
      <trkpt lat="49.92074" lon="6.16418">
        <ele>333</ele>
        <time>2026-08-25T15:30:57+00:00</time>
      </trkpt>
      <trkpt lat="49.92077" lon="6.16418">
        <ele>333</ele>
        <time>2026-08-25T15:31:00+00:00</time>
      </trkpt>
      <trkpt lat="49.92073" lon="6.16448">
        <ele>330</ele>
        <time>2026-08-25T15:31:03+00:00</time>
      </trkpt>
      <trkpt lat="49.92062" lon="6.16488">
        <ele>333</ele>
        <time>2026-08-25T15:31:06+00:00</time>
      </trkpt>
      <trkpt lat="49.92041" lon="6.16565">
        <ele>336</ele>
        <time>2026-08-25T15:31:09+00:00</time>
      </trkpt>
      <trkpt lat="49.92036" lon="6.166">
        <ele>336</ele>
        <time>2026-08-25T15:31:12+00:00</time>
      </trkpt>
      <trkpt lat="49.9203" lon="6.16639">
        <ele>336</ele>
        <time>2026-08-25T15:31:15+00:00</time>
      </trkpt>
      <trkpt lat="49.92025" lon="6.16656">
        <ele>334</ele>
        <time>2026-08-25T15:31:18+00:00</time>
      </trkpt>
      <trkpt lat="49.92022" lon="6.16667">
        <ele>332</ele>
        <time>2026-08-25T15:31:21+00:00</time>
      </trkpt>
      <trkpt lat="49.9202" lon="6.16705">
        <ele>330</ele>
        <time>2026-08-25T15:31:24+00:00</time>
      </trkpt>
      <trkpt lat="49.92018" lon="6.16753">
        <ele>329</ele>
        <time>2026-08-25T15:31:27+00:00</time>
      </trkpt>
      <trkpt lat="49.92013" lon="6.16787">
        <ele>324</ele>
        <time>2026-08-25T15:31:30+00:00</time>
      </trkpt>
      <trkpt lat="49.92004" lon="6.16824">
        <ele>325</ele>
        <time>2026-08-25T15:31:33+00:00</time>
      </trkpt>
      <trkpt lat="49.91995" lon="6.16845">
        <ele>326</ele>
        <time>2026-08-25T15:31:36+00:00</time>
      </trkpt>
      <trkpt lat="49.91987" lon="6.16882">
        <ele>324</ele>
        <time>2026-08-25T15:31:39+00:00</time>
      </trkpt>
      <trkpt lat="49.91978" lon="6.16918">
        <ele>324</ele>
        <time>2026-08-25T15:31:42+00:00</time>
      </trkpt>
      <trkpt lat="49.91968" lon="6.16964">
        <ele>325</ele>
        <time>2026-08-25T15:31:45+00:00</time>
      </trkpt>
      <trkpt lat="49.91955" lon="6.16994">
        <ele>326</ele>
        <time>2026-08-25T15:31:48+00:00</time>
      </trkpt>
      <trkpt lat="49.91929" lon="6.17042">
        <ele>325</ele>
        <time>2026-08-25T15:31:51+00:00</time>
      </trkpt>
      <trkpt lat="49.91915" lon="6.17075">
        <ele>325</ele>
        <time>2026-08-25T15:31:54+00:00</time>
      </trkpt>
      <trkpt lat="49.91905" lon="6.17116">
        <ele>322</ele>
        <time>2026-08-25T15:31:57+00:00</time>
      </trkpt>
      <trkpt lat="49.91887" lon="6.17195">
        <ele>319</ele>
        <time>2026-08-25T15:32:00+00:00</time>
      </trkpt>
      <trkpt lat="49.91881" lon="6.17239">
        <ele>315</ele>
        <time>2026-08-25T15:32:03+00:00</time>
      </trkpt>
      <trkpt lat="49.91874" lon="6.1727">
        <ele>312</ele>
        <time>2026-08-25T15:32:06+00:00</time>
      </trkpt>
      <trkpt lat="49.91877" lon="6.17272">
        <ele>310</ele>
        <time>2026-08-25T15:32:09+00:00</time>
      </trkpt>
      <trkpt lat="49.91879" lon="6.17274">
        <ele>310</ele>
        <time>2026-08-25T15:32:12+00:00</time>
      </trkpt>
      <trkpt lat="49.91889" lon="6.17284">
        <ele>302</ele>
        <time>2026-08-25T15:32:15+00:00</time>
      </trkpt>
      <trkpt lat="49.91896" lon="6.17298">
        <ele>297</ele>
        <time>2026-08-25T15:32:18+00:00</time>
      </trkpt>
      <trkpt lat="49.91907" lon="6.17313">
        <ele>301</ele>
        <time>2026-08-25T15:32:21+00:00</time>
      </trkpt>
      <trkpt lat="49.9193" lon="6.17326">
        <ele>301</ele>
        <time>2026-08-25T15:32:24+00:00</time>
      </trkpt>
      <trkpt lat="49.91942" lon="6.17338">
        <ele>305</ele>
        <time>2026-08-25T15:32:27+00:00</time>
      </trkpt>
      <trkpt lat="49.91937" lon="6.1734">
        <ele>296</ele>
        <time>2026-08-25T15:32:30+00:00</time>
      </trkpt>
      <trkpt lat="49.91929" lon="6.17344">
        <ele>295</ele>
        <time>2026-08-25T15:32:33+00:00</time>
      </trkpt>
      <trkpt lat="49.91916" lon="6.1735">
        <ele>292</ele>
        <time>2026-08-25T15:32:36+00:00</time>
      </trkpt>
      <trkpt lat="49.91906" lon="6.17357">
        <ele>290</ele>
        <time>2026-08-25T15:32:39+00:00</time>
      </trkpt>
      <trkpt lat="49.91898" lon="6.17371">
        <ele>292</ele>
        <time>2026-08-25T15:32:42+00:00</time>
      </trkpt>
      <trkpt lat="49.9189" lon="6.17393">
        <ele>288</ele>
        <time>2026-08-25T15:32:45+00:00</time>
      </trkpt>
      <trkpt lat="49.91884" lon="6.17417">
        <ele>290</ele>
        <time>2026-08-25T15:32:48+00:00</time>
      </trkpt>
      <trkpt lat="49.91877" lon="6.17447">
        <ele>292</ele>
        <time>2026-08-25T15:32:51+00:00</time>
      </trkpt>
      <trkpt lat="49.91872" lon="6.17477">
        <ele>290</ele>
        <time>2026-08-25T15:32:54+00:00</time>
      </trkpt>
      <trkpt lat="49.91867" lon="6.17513">
        <ele>290</ele>
        <time>2026-08-25T15:32:57+00:00</time>
      </trkpt>
      <trkpt lat="49.91864" lon="6.1757">
        <ele>287</ele>
        <time>2026-08-25T15:33:00+00:00</time>
      </trkpt>
      <trkpt lat="49.9186" lon="6.17592">
        <ele>283</ele>
        <time>2026-08-25T15:33:03+00:00</time>
      </trkpt>
      <trkpt lat="49.91852" lon="6.17619">
        <ele>285</ele>
        <time>2026-08-25T15:33:06+00:00</time>
      </trkpt>
      <trkpt lat="49.91837" lon="6.17653">
        <ele>285</ele>
        <time>2026-08-25T15:33:09+00:00</time>
      </trkpt>
      <trkpt lat="49.91813" lon="6.17708">
        <ele>283</ele>
        <time>2026-08-25T15:33:12+00:00</time>
      </trkpt>
      <trkpt lat="49.91804" lon="6.17722">
        <ele>287</ele>
        <time>2026-08-25T15:33:15+00:00</time>
      </trkpt>
      <trkpt lat="49.91792" lon="6.17737">
        <ele>282</ele>
        <time>2026-08-25T15:33:18+00:00</time>
      </trkpt>
      <trkpt lat="49.9178" lon="6.17753">
        <ele>282</ele>
        <time>2026-08-25T15:33:21+00:00</time>
      </trkpt>
      <trkpt lat="49.91758" lon="6.17784">
        <ele>281</ele>
        <time>2026-08-25T15:33:24+00:00</time>
      </trkpt>
      <trkpt lat="49.91737" lon="6.17831">
        <ele>284</ele>
        <time>2026-08-25T15:33:27+00:00</time>
      </trkpt>
      <trkpt lat="49.91748" lon="6.17822">
        <ele>285</ele>
        <time>2026-08-25T15:33:30+00:00</time>
      </trkpt>
      <trkpt lat="49.9175" lon="6.17821">
        <ele>285</ele>
        <time>2026-08-25T15:33:33+00:00</time>
      </trkpt>
      <trkpt lat="49.91755" lon="6.1782">
        <ele>288</ele>
        <time>2026-08-25T15:33:36+00:00</time>
      </trkpt>
      <trkpt lat="49.91765" lon="6.17825">
        <ele>292</ele>
        <time>2026-08-25T15:33:39+00:00</time>
      </trkpt>
      <trkpt lat="49.91779" lon="6.1784">
        <ele>296</ele>
        <time>2026-08-25T15:33:42+00:00</time>
      </trkpt>
      <trkpt lat="49.91801" lon="6.17871">
        <ele>297</ele>
        <time>2026-08-25T15:33:45+00:00</time>
      </trkpt>
      <trkpt lat="49.91823" lon="6.17908">
        <ele>304</ele>
        <time>2026-08-25T15:33:48+00:00</time>
      </trkpt>
      <trkpt lat="49.91845" lon="6.17945">
        <ele>306</ele>
        <time>2026-08-25T15:33:51+00:00</time>
      </trkpt>
      <trkpt lat="49.91867" lon="6.17982">
        <ele>306</ele>
        <time>2026-08-25T15:33:54+00:00</time>
      </trkpt>
      <trkpt lat="49.9189" lon="6.1802">
        <ele>306</ele>
        <time>2026-08-25T15:33:57+00:00</time>
      </trkpt>
      <trkpt lat="49.91908" lon="6.18054">
        <ele>305</ele>
        <time>2026-08-25T15:34:00+00:00</time>
      </trkpt>
      <trkpt lat="49.91941" lon="6.18116">
        <ele>305</ele>
        <time>2026-08-25T15:34:03+00:00</time>
      </trkpt>
      <trkpt lat="49.91967" lon="6.18154">
        <ele>303</ele>
        <time>2026-08-25T15:34:06+00:00</time>
      </trkpt>
      <trkpt lat="49.91975" lon="6.18175">
        <ele>303</ele>
        <time>2026-08-25T15:34:09+00:00</time>
      </trkpt>
      <trkpt lat="49.91983" lon="6.18187">
        <ele>301</ele>
        <time>2026-08-25T15:34:12+00:00</time>
      </trkpt>
      <trkpt lat="49.92005" lon="6.18228">
        <ele>301</ele>
        <time>2026-08-25T15:34:15+00:00</time>
      </trkpt>
      <trkpt lat="49.92017" lon="6.18255">
        <ele>301</ele>
        <time>2026-08-25T15:34:18+00:00</time>
      </trkpt>
      <trkpt lat="49.92021" lon="6.18268">
        <ele>302</ele>
        <time>2026-08-25T15:34:21+00:00</time>
      </trkpt>
      <trkpt lat="49.92027" lon="6.18299">
        <ele>304</ele>
        <time>2026-08-25T15:34:24+00:00</time>
      </trkpt>
      <trkpt lat="49.92036" lon="6.18341">
        <ele>304</ele>
        <time>2026-08-25T15:34:27+00:00</time>
      </trkpt>
      <trkpt lat="49.92039" lon="6.18351">
        <ele>308</ele>
        <time>2026-08-25T15:34:30+00:00</time>
      </trkpt>
      <trkpt lat="49.92051" lon="6.18372">
        <ele>305</ele>
        <time>2026-08-25T15:34:33+00:00</time>
      </trkpt>
      <trkpt lat="49.92055" lon="6.18402">
        <ele>310</ele>
        <time>2026-08-25T15:34:36+00:00</time>
      </trkpt>
      <trkpt lat="49.92057" lon="6.1842">
        <ele>311</ele>
        <time>2026-08-25T15:34:39+00:00</time>
      </trkpt>
      <trkpt lat="49.92062" lon="6.18444">
        <ele>315</ele>
        <time>2026-08-25T15:34:42+00:00</time>
      </trkpt>
      <trkpt lat="49.9207" lon="6.18456">
        <ele>315</ele>
        <time>2026-08-25T15:34:45+00:00</time>
      </trkpt>
      <trkpt lat="49.92073" lon="6.18469">
        <ele>315</ele>
        <time>2026-08-25T15:34:48+00:00</time>
      </trkpt>
      <trkpt lat="49.92071" lon="6.18479">
        <ele>314</ele>
        <time>2026-08-25T15:34:51+00:00</time>
      </trkpt>
      <trkpt lat="49.92068" lon="6.18484">
        <ele>317</ele>
        <time>2026-08-25T15:34:54+00:00</time>
      </trkpt>
      <trkpt lat="49.92058" lon="6.18484">
        <ele>317</ele>
        <time>2026-08-25T15:34:57+00:00</time>
      </trkpt>
      <trkpt lat="49.92034" lon="6.18463">
        <ele>320</ele>
        <time>2026-08-25T15:35:00+00:00</time>
      </trkpt>
      <trkpt lat="49.92025" lon="6.18459">
        <ele>319</ele>
        <time>2026-08-25T15:35:03+00:00</time>
      </trkpt>
      <trkpt lat="49.92016" lon="6.18457">
        <ele>321</ele>
        <time>2026-08-25T15:35:06+00:00</time>
      </trkpt>
      <trkpt lat="49.92009" lon="6.1845">
        <ele>323</ele>
        <time>2026-08-25T15:35:09+00:00</time>
      </trkpt>
      <trkpt lat="49.92001" lon="6.18425">
        <ele>322</ele>
        <time>2026-08-25T15:35:12+00:00</time>
      </trkpt>
      <trkpt lat="49.91992" lon="6.18398">
        <ele>324</ele>
        <time>2026-08-25T15:35:15+00:00</time>
      </trkpt>
      <trkpt lat="49.91984" lon="6.18382">
        <ele>326</ele>
        <time>2026-08-25T15:35:18+00:00</time>
      </trkpt>
      <trkpt lat="49.91969" lon="6.18361">
        <ele>330</ele>
        <time>2026-08-25T15:35:21+00:00</time>
      </trkpt>
      <trkpt lat="49.91958" lon="6.18348">
        <ele>330</ele>
        <time>2026-08-25T15:35:24+00:00</time>
      </trkpt>
      <trkpt lat="49.91931" lon="6.18326">
        <ele>332</ele>
        <time>2026-08-25T15:35:27+00:00</time>
      </trkpt>
      <trkpt lat="49.91903" lon="6.18303">
        <ele>336</ele>
        <time>2026-08-25T15:35:30+00:00</time>
      </trkpt>
      <trkpt lat="49.91876" lon="6.18281">
        <ele>343</ele>
        <time>2026-08-25T15:35:33+00:00</time>
      </trkpt>
      <trkpt lat="49.91832" lon="6.18245">
        <ele>362</ele>
        <time>2026-08-25T15:35:36+00:00</time>
      </trkpt>
      <trkpt lat="49.91815" lon="6.18235">
        <ele>364</ele>
        <time>2026-08-25T15:35:39+00:00</time>
      </trkpt>
      <trkpt lat="49.91808" lon="6.18235">
        <ele>365</ele>
        <time>2026-08-25T15:35:42+00:00</time>
      </trkpt>
      <trkpt lat="49.91801" lon="6.18239">
        <ele>365</ele>
        <time>2026-08-25T15:35:45+00:00</time>
      </trkpt>
      <trkpt lat="49.91813" lon="6.18271">
        <ele>369</ele>
        <time>2026-08-25T15:35:48+00:00</time>
      </trkpt>
      <trkpt lat="49.91821" lon="6.18294">
        <ele>370</ele>
        <time>2026-08-25T15:35:51+00:00</time>
      </trkpt>
      <trkpt lat="49.91827" lon="6.18332">
        <ele>369</ele>
        <time>2026-08-25T15:35:54+00:00</time>
      </trkpt>
      <trkpt lat="49.91832" lon="6.1837">
        <ele>369</ele>
        <time>2026-08-25T15:35:57+00:00</time>
      </trkpt>
      <trkpt lat="49.9184" lon="6.18419">
        <ele>366</ele>
        <time>2026-08-25T15:36:00+00:00</time>
      </trkpt>
      <trkpt lat="49.91848" lon="6.18455">
        <ele>364</ele>
        <time>2026-08-25T15:36:03+00:00</time>
      </trkpt>
      <trkpt lat="49.91858" lon="6.18501">
        <ele>364</ele>
        <time>2026-08-25T15:36:06+00:00</time>
      </trkpt>
      <trkpt lat="49.91858" lon="6.18518">
        <ele>364</ele>
        <time>2026-08-25T15:36:09+00:00</time>
      </trkpt>
      <trkpt lat="49.91855" lon="6.18558">
        <ele>364</ele>
        <time>2026-08-25T15:36:12+00:00</time>
      </trkpt>
      <trkpt lat="49.91853" lon="6.18598">
        <ele>363</ele>
        <time>2026-08-25T15:36:15+00:00</time>
      </trkpt>
      <trkpt lat="49.9185" lon="6.18641">
        <ele>360</ele>
        <time>2026-08-25T15:36:18+00:00</time>
      </trkpt>
      <trkpt lat="49.91849" lon="6.18659">
        <ele>360</ele>
        <time>2026-08-25T15:36:21+00:00</time>
      </trkpt>
      <trkpt lat="49.91851" lon="6.18686">
        <ele>359</ele>
        <time>2026-08-25T15:36:24+00:00</time>
      </trkpt>
      <trkpt lat="49.91853" lon="6.18716">
        <ele>358</ele>
        <time>2026-08-25T15:36:27+00:00</time>
      </trkpt>
      <trkpt lat="49.91859" lon="6.18759">
        <ele>357</ele>
        <time>2026-08-25T15:36:30+00:00</time>
      </trkpt>
      <trkpt lat="49.91871" lon="6.18839">
        <ele>357</ele>
        <time>2026-08-25T15:36:33+00:00</time>
      </trkpt>
      <trkpt lat="49.91875" lon="6.18861">
        <ele>356</ele>
        <time>2026-08-25T15:36:36+00:00</time>
      </trkpt>
      <trkpt lat="49.91884" lon="6.1889">
        <ele>356</ele>
        <time>2026-08-25T15:36:39+00:00</time>
      </trkpt>
      <trkpt lat="49.91899" lon="6.18938">
        <ele>355</ele>
        <time>2026-08-25T15:36:42+00:00</time>
      </trkpt>
      <trkpt lat="49.91911" lon="6.18978">
        <ele>355</ele>
        <time>2026-08-25T15:36:45+00:00</time>
      </trkpt>
      <trkpt lat="49.91935" lon="6.19054">
        <ele>354</ele>
        <time>2026-08-25T15:36:48+00:00</time>
      </trkpt>
      <trkpt lat="49.9196" lon="6.19043">
        <ele>354</ele>
        <time>2026-08-25T15:36:51+00:00</time>
      </trkpt>
      <trkpt lat="49.91971" lon="6.1904">
        <ele>356</ele>
        <time>2026-08-25T15:36:54+00:00</time>
      </trkpt>
      <trkpt lat="49.91995" lon="6.19039">
        <ele>357</ele>
        <time>2026-08-25T15:36:57+00:00</time>
      </trkpt>
      <trkpt lat="49.92037" lon="6.19038">
        <ele>361</ele>
        <time>2026-08-25T15:37:00+00:00</time>
      </trkpt>
      <trkpt lat="49.92065" lon="6.19033">
        <ele>364</ele>
        <time>2026-08-25T15:37:03+00:00</time>
      </trkpt>
      <trkpt lat="49.92117" lon="6.19025">
        <ele>366</ele>
        <time>2026-08-25T15:37:06+00:00</time>
      </trkpt>
      <trkpt lat="49.92153" lon="6.19024">
        <ele>367</ele>
        <time>2026-08-25T15:37:09+00:00</time>
      </trkpt>
      <trkpt lat="49.92189" lon="6.19023">
        <ele>369</ele>
        <time>2026-08-25T15:37:12+00:00</time>
      </trkpt>
      <trkpt lat="49.92225" lon="6.19022">
        <ele>370</ele>
        <time>2026-08-25T15:37:15+00:00</time>
      </trkpt>
      <trkpt lat="49.92261" lon="6.19022">
        <ele>372</ele>
        <time>2026-08-25T15:37:18+00:00</time>
      </trkpt>
      <trkpt lat="49.92325" lon="6.1902">
        <ele>375</ele>
        <time>2026-08-25T15:37:21+00:00</time>
      </trkpt>
      <trkpt lat="49.92321" lon="6.19014">
        <ele>375</ele>
        <time>2026-08-25T15:37:24+00:00</time>
      </trkpt>
      <trkpt lat="49.92325" lon="6.1902">
        <ele>375</ele>
        <time>2026-08-25T15:37:27+00:00</time>
      </trkpt>
      <trkpt lat="49.92347" lon="6.19015">
        <ele>376</ele>
        <time>2026-08-25T15:37:30+00:00</time>
      </trkpt>
      <trkpt lat="49.92373" lon="6.19001">
        <ele>379</ele>
        <time>2026-08-25T15:37:33+00:00</time>
      </trkpt>
      <trkpt lat="49.924" lon="6.1899">
        <ele>379</ele>
        <time>2026-08-25T15:37:36+00:00</time>
      </trkpt>
      <trkpt lat="49.92423" lon="6.18985">
        <ele>381</ele>
        <time>2026-08-25T15:37:39+00:00</time>
      </trkpt>
      <trkpt lat="49.92442" lon="6.18984">
        <ele>381</ele>
        <time>2026-08-25T15:37:42+00:00</time>
      </trkpt>
      <trkpt lat="49.92473" lon="6.18989">
        <ele>381</ele>
        <time>2026-08-25T15:37:45+00:00</time>
      </trkpt>
      <trkpt lat="49.92503" lon="6.18994">
        <ele>383</ele>
        <time>2026-08-25T15:37:48+00:00</time>
      </trkpt>
      <trkpt lat="49.92548" lon="6.19002">
        <ele>384</ele>
        <time>2026-08-25T15:37:51+00:00</time>
      </trkpt>
      <trkpt lat="49.92563" lon="6.19002">
        <ele>385</ele>
        <time>2026-08-25T15:37:54+00:00</time>
      </trkpt>
      <trkpt lat="49.92581" lon="6.19001">
        <ele>386</ele>
        <time>2026-08-25T15:37:57+00:00</time>
      </trkpt>
      <trkpt lat="49.92603" lon="6.18999">
        <ele>387</ele>
        <time>2026-08-25T15:38:00+00:00</time>
      </trkpt>
      <trkpt lat="49.92628" lon="6.19">
        <ele>388</ele>
        <time>2026-08-25T15:38:03+00:00</time>
      </trkpt>
      <trkpt lat="49.92665" lon="6.19002">
        <ele>392</ele>
        <time>2026-08-25T15:38:06+00:00</time>
      </trkpt>
      <trkpt lat="49.92689" lon="6.19">
        <ele>394</ele>
        <time>2026-08-25T15:38:09+00:00</time>
      </trkpt>
      <trkpt lat="49.9272" lon="6.18997">
        <ele>395</ele>
        <time>2026-08-25T15:38:12+00:00</time>
      </trkpt>
      <trkpt lat="49.92747" lon="6.18998">
        <ele>398</ele>
        <time>2026-08-25T15:38:15+00:00</time>
      </trkpt>
      <trkpt lat="49.92794" lon="6.19001">
        <ele>398</ele>
        <time>2026-08-25T15:38:18+00:00</time>
      </trkpt>
      <trkpt lat="49.92803" lon="6.19001">
        <ele>398</ele>
        <time>2026-08-25T15:38:21+00:00</time>
      </trkpt>
      <trkpt lat="49.92796" lon="6.18966">
        <ele>401</ele>
        <time>2026-08-25T15:38:24+00:00</time>
      </trkpt>
      <trkpt lat="49.92784" lon="6.18911">
        <ele>405</ele>
        <time>2026-08-25T15:38:27+00:00</time>
      </trkpt>
      <trkpt lat="49.92781" lon="6.18889">
        <ele>405</ele>
        <time>2026-08-25T15:38:30+00:00</time>
      </trkpt>
      <trkpt lat="49.92779" lon="6.18857">
        <ele>405</ele>
        <time>2026-08-25T15:38:33+00:00</time>
      </trkpt>
      <trkpt lat="49.92777" lon="6.18808">
        <ele>406</ele>
        <time>2026-08-25T15:38:36+00:00</time>
      </trkpt>
      <trkpt lat="49.92776" lon="6.18771">
        <ele>406</ele>
        <time>2026-08-25T15:38:39+00:00</time>
      </trkpt>
      <trkpt lat="49.92778" lon="6.18732">
        <ele>406</ele>
        <time>2026-08-25T15:38:42+00:00</time>
      </trkpt>
      <trkpt lat="49.92787" lon="6.18707">
        <ele>407</ele>
        <time>2026-08-25T15:38:45+00:00</time>
      </trkpt>
      <trkpt lat="49.92789" lon="6.18695">
        <ele>408</ele>
        <time>2026-08-25T15:38:48+00:00</time>
      </trkpt>
      <trkpt lat="49.92796" lon="6.18691">
        <ele>408</ele>
        <time>2026-08-25T15:38:51+00:00</time>
      </trkpt>
      <trkpt lat="49.92809" lon="6.18673">
        <ele>410</ele>
        <time>2026-08-25T15:38:54+00:00</time>
      </trkpt>
      <trkpt lat="49.92836" lon="6.1864">
        <ele>413</ele>
        <time>2026-08-25T15:38:57+00:00</time>
      </trkpt>
      <trkpt lat="49.92857" lon="6.18617">
        <ele>414</ele>
        <time>2026-08-25T15:39:00+00:00</time>
      </trkpt>
      <trkpt lat="49.92887" lon="6.18583">
        <ele>415</ele>
        <time>2026-08-25T15:39:03+00:00</time>
      </trkpt>
      <trkpt lat="49.9291" lon="6.18554">
        <ele>418</ele>
        <time>2026-08-25T15:39:06+00:00</time>
      </trkpt>
      <trkpt lat="49.92927" lon="6.18529">
        <ele>420</ele>
        <time>2026-08-25T15:39:09+00:00</time>
      </trkpt>
      <trkpt lat="49.92946" lon="6.185">
        <ele>422</ele>
        <time>2026-08-25T15:39:12+00:00</time>
      </trkpt>
      <trkpt lat="49.92967" lon="6.18478">
        <ele>423</ele>
        <time>2026-08-25T15:39:15+00:00</time>
      </trkpt>
      <trkpt lat="49.92982" lon="6.18467">
        <ele>424</ele>
        <time>2026-08-25T15:39:18+00:00</time>
      </trkpt>
      <trkpt lat="49.92994" lon="6.18455">
        <ele>425</ele>
        <time>2026-08-25T15:39:21+00:00</time>
      </trkpt>
      <trkpt lat="49.93007" lon="6.18443">
        <ele>425</ele>
        <time>2026-08-25T15:39:24+00:00</time>
      </trkpt>
      <trkpt lat="49.93016" lon="6.18484">
        <ele>425</ele>
        <time>2026-08-25T15:39:27+00:00</time>
      </trkpt>
      <trkpt lat="49.93023" lon="6.18537">
        <ele>424</ele>
        <time>2026-08-25T15:39:30+00:00</time>
      </trkpt>
      <trkpt lat="49.9303" lon="6.1859">
        <ele>424</ele>
        <time>2026-08-25T15:39:33+00:00</time>
      </trkpt>
      <trkpt lat="49.93037" lon="6.18642">
        <ele>423</ele>
        <time>2026-08-25T15:39:36+00:00</time>
      </trkpt>
      <trkpt lat="49.93045" lon="6.18695">
        <ele>422</ele>
        <time>2026-08-25T15:39:39+00:00</time>
      </trkpt>
      <trkpt lat="49.93052" lon="6.1875">
        <ele>421</ele>
        <time>2026-08-25T15:39:42+00:00</time>
      </trkpt>
      <trkpt lat="49.93053" lon="6.18775">
        <ele>421</ele>
        <time>2026-08-25T15:39:45+00:00</time>
      </trkpt>
      <trkpt lat="49.93052" lon="6.18792">
        <ele>420</ele>
        <time>2026-08-25T15:39:48+00:00</time>
      </trkpt>
      <trkpt lat="49.93047" lon="6.18805">
        <ele>420</ele>
        <time>2026-08-25T15:39:51+00:00</time>
      </trkpt>
      <trkpt lat="49.93036" lon="6.18821">
        <ele>420</ele>
        <time>2026-08-25T15:39:54+00:00</time>
      </trkpt>
      <trkpt lat="49.93021" lon="6.18836">
        <ele>420</ele>
        <time>2026-08-25T15:39:57+00:00</time>
      </trkpt>
      <trkpt lat="49.93018" lon="6.18843">
        <ele>420</ele>
        <time>2026-08-25T15:40:00+00:00</time>
      </trkpt>
      <trkpt lat="49.93018" lon="6.18843">
        <ele>420</ele>
        <time>2026-08-25T15:40:03+00:00</time>
      </trkpt>
      <trkpt lat="49.93018" lon="6.18843">
        <ele>420</ele>
        <time>2026-08-25T15:40:06+00:00</time>
      </trkpt>
      <trkpt lat="49.93015" lon="6.18864">
        <ele>420</ele>
        <time>2026-08-25T15:40:09+00:00</time>
      </trkpt>
      <trkpt lat="49.93016" lon="6.18876">
        <ele>419</ele>
        <time>2026-08-25T15:40:12+00:00</time>
      </trkpt>
      <trkpt lat="49.93022" lon="6.18912">
        <ele>418</ele>
        <time>2026-08-25T15:40:15+00:00</time>
      </trkpt>
      <trkpt lat="49.93031" lon="6.18969">
        <ele>417</ele>
        <time>2026-08-25T15:40:18+00:00</time>
      </trkpt>
      <trkpt lat="49.93036" lon="6.19009">
        <ele>416</ele>
        <time>2026-08-25T15:40:21+00:00</time>
      </trkpt>
      <trkpt lat="49.93045" lon="6.19069">
        <ele>413</ele>
        <time>2026-08-25T15:40:24+00:00</time>
      </trkpt>
      <trkpt lat="49.93055" lon="6.19128">
        <ele>411</ele>
        <time>2026-08-25T15:40:27+00:00</time>
      </trkpt>
      <trkpt lat="49.93062" lon="6.19156">
        <ele>410</ele>
        <time>2026-08-25T15:40:30+00:00</time>
      </trkpt>
      <trkpt lat="49.93072" lon="6.19188">
        <ele>408</ele>
        <time>2026-08-25T15:40:33+00:00</time>
      </trkpt>
      <trkpt lat="49.93082" lon="6.19222">
        <ele>407</ele>
        <time>2026-08-25T15:40:36+00:00</time>
      </trkpt>
      <trkpt lat="49.93091" lon="6.19255">
        <ele>405</ele>
        <time>2026-08-25T15:40:39+00:00</time>
      </trkpt>
      <trkpt lat="49.93101" lon="6.19293">
        <ele>403</ele>
        <time>2026-08-25T15:40:42+00:00</time>
      </trkpt>
      <trkpt lat="49.93112" lon="6.19331">
        <ele>401</ele>
        <time>2026-08-25T15:40:45+00:00</time>
      </trkpt>
      <trkpt lat="49.93131" lon="6.19394">
        <ele>399</ele>
        <time>2026-08-25T15:40:48+00:00</time>
      </trkpt>
      <trkpt lat="49.9314" lon="6.19427">
        <ele>397</ele>
        <time>2026-08-25T15:40:51+00:00</time>
      </trkpt>
      <trkpt lat="49.9315" lon="6.19475">
        <ele>396</ele>
        <time>2026-08-25T15:40:54+00:00</time>
      </trkpt>
      <trkpt lat="49.93154" lon="6.19495">
        <ele>396</ele>
        <time>2026-08-25T15:40:57+00:00</time>
      </trkpt>
      <trkpt lat="49.93159" lon="6.19524">
        <ele>395</ele>
        <time>2026-08-25T15:41:00+00:00</time>
      </trkpt>
      <trkpt lat="49.93166" lon="6.19563">
        <ele>395</ele>
        <time>2026-08-25T15:41:03+00:00</time>
      </trkpt>
      <trkpt lat="49.93178" lon="6.1962">
        <ele>395</ele>
        <time>2026-08-25T15:41:06+00:00</time>
      </trkpt>
      <trkpt lat="49.93189" lon="6.1965">
        <ele>394</ele>
        <time>2026-08-25T15:41:09+00:00</time>
      </trkpt>
      <trkpt lat="49.93202" lon="6.19684">
        <ele>393</ele>
        <time>2026-08-25T15:41:12+00:00</time>
      </trkpt>
      <trkpt lat="49.93213" lon="6.1972">
        <ele>392</ele>
        <time>2026-08-25T15:41:15+00:00</time>
      </trkpt>
      <trkpt lat="49.9323" lon="6.19771">
        <ele>387</ele>
        <time>2026-08-25T15:41:18+00:00</time>
      </trkpt>
      <trkpt lat="49.93233" lon="6.19782">
        <ele>389</ele>
        <time>2026-08-25T15:41:21+00:00</time>
      </trkpt>
      <trkpt lat="49.93228" lon="6.19811">
        <ele>385</ele>
        <time>2026-08-25T15:41:24+00:00</time>
      </trkpt>
      <trkpt lat="49.93222" lon="6.19846">
        <ele>387</ele>
        <time>2026-08-25T15:41:27+00:00</time>
      </trkpt>
      <trkpt lat="49.93223" lon="6.19859">
        <ele>382</ele>
        <time>2026-08-25T15:41:30+00:00</time>
      </trkpt>
      <trkpt lat="49.93228" lon="6.19868">
        <ele>382</ele>
        <time>2026-08-25T15:41:33+00:00</time>
      </trkpt>
      <trkpt lat="49.93243" lon="6.19876">
        <ele>390</ele>
        <time>2026-08-25T15:41:36+00:00</time>
      </trkpt>
      <trkpt lat="49.93257" lon="6.19877">
        <ele>392</ele>
        <time>2026-08-25T15:41:39+00:00</time>
      </trkpt>
      <trkpt lat="49.93272" lon="6.19867">
        <ele>391</ele>
        <time>2026-08-25T15:41:42+00:00</time>
      </trkpt>
      <trkpt lat="49.93277" lon="6.19867">
        <ele>396</ele>
        <time>2026-08-25T15:41:45+00:00</time>
      </trkpt>
      <trkpt lat="49.93279" lon="6.1987">
        <ele>396</ele>
        <time>2026-08-25T15:41:48+00:00</time>
      </trkpt>
      <trkpt lat="49.93279" lon="6.19876">
        <ele>395</ele>
        <time>2026-08-25T15:41:51+00:00</time>
      </trkpt>
      <trkpt lat="49.93265" lon="6.19898">
        <ele>389</ele>
        <time>2026-08-25T15:41:54+00:00</time>
      </trkpt>
      <trkpt lat="49.93245" lon="6.19928">
        <ele>387</ele>
        <time>2026-08-25T15:41:57+00:00</time>
      </trkpt>
      <trkpt lat="49.9323" lon="6.19944">
        <ele>381</ele>
        <time>2026-08-25T15:42:00+00:00</time>
      </trkpt>
      <trkpt lat="49.9322" lon="6.19951">
        <ele>377</ele>
        <time>2026-08-25T15:42:03+00:00</time>
      </trkpt>
      <trkpt lat="49.93214" lon="6.19953">
        <ele>377</ele>
        <time>2026-08-25T15:42:06+00:00</time>
      </trkpt>
      <trkpt lat="49.93197" lon="6.19948">
        <ele>378</ele>
        <time>2026-08-25T15:42:09+00:00</time>
      </trkpt>
      <trkpt lat="49.93193" lon="6.19951">
        <ele>370</ele>
        <time>2026-08-25T15:42:12+00:00</time>
      </trkpt>
      <trkpt lat="49.93193" lon="6.19956">
        <ele>370</ele>
        <time>2026-08-25T15:42:15+00:00</time>
      </trkpt>
      <trkpt lat="49.93195" lon="6.19961">
        <ele>371</ele>
        <time>2026-08-25T15:42:18+00:00</time>
      </trkpt>
      <trkpt lat="49.93217" lon="6.19991">
        <ele>378</ele>
        <time>2026-08-25T15:42:21+00:00</time>
      </trkpt>
      <trkpt lat="49.93222" lon="6.19995">
        <ele>375</ele>
        <time>2026-08-25T15:42:24+00:00</time>
      </trkpt>
      <trkpt lat="49.93227" lon="6.19996">
        <ele>375</ele>
        <time>2026-08-25T15:42:27+00:00</time>
      </trkpt>
      <trkpt lat="49.93251" lon="6.19986">
        <ele>378</ele>
        <time>2026-08-25T15:42:30+00:00</time>
      </trkpt>
      <trkpt lat="49.93263" lon="6.19975">
        <ele>379</ele>
        <time>2026-08-25T15:42:33+00:00</time>
      </trkpt>
      <trkpt lat="49.93283" lon="6.19954">
        <ele>378</ele>
        <time>2026-08-25T15:42:36+00:00</time>
      </trkpt>
      <trkpt lat="49.93294" lon="6.19945">
        <ele>381</ele>
        <time>2026-08-25T15:42:39+00:00</time>
      </trkpt>
      <trkpt lat="49.93317" lon="6.19933">
        <ele>378</ele>
        <time>2026-08-25T15:42:42+00:00</time>
      </trkpt>
      <trkpt lat="49.93364" lon="6.1991">
        <ele>371</ele>
        <time>2026-08-25T15:42:45+00:00</time>
      </trkpt>
      <trkpt lat="49.93399" lon="6.19901">
        <ele>356</ele>
        <time>2026-08-25T15:42:48+00:00</time>
      </trkpt>
      <trkpt lat="49.9341" lon="6.19895">
        <ele>354</ele>
        <time>2026-08-25T15:42:51+00:00</time>
      </trkpt>
      <trkpt lat="49.93422" lon="6.19887">
        <ele>348</ele>
        <time>2026-08-25T15:42:54+00:00</time>
      </trkpt>
      <trkpt lat="49.93426" lon="6.19878">
        <ele>347</ele>
        <time>2026-08-25T15:42:57+00:00</time>
      </trkpt>
      <trkpt lat="49.93425" lon="6.19866">
        <ele>345</ele>
        <time>2026-08-25T15:43:00+00:00</time>
      </trkpt>
      <trkpt lat="49.93423" lon="6.19861">
        <ele>348</ele>
        <time>2026-08-25T15:43:03+00:00</time>
      </trkpt>
      <trkpt lat="49.93425" lon="6.19866">
        <ele>345</ele>
        <time>2026-08-25T15:43:06+00:00</time>
      </trkpt>
      <trkpt lat="49.93426" lon="6.19878">
        <ele>347</ele>
        <time>2026-08-25T15:43:09+00:00</time>
      </trkpt>
      <trkpt lat="49.93422" lon="6.19887">
        <ele>348</ele>
        <time>2026-08-25T15:43:12+00:00</time>
      </trkpt>
      <trkpt lat="49.9341" lon="6.19895">
        <ele>354</ele>
        <time>2026-08-25T15:43:15+00:00</time>
      </trkpt>
      <trkpt lat="49.9343" lon="6.19893">
        <ele>349</ele>
        <time>2026-08-25T15:43:18+00:00</time>
      </trkpt>
      <trkpt lat="49.93419" lon="6.19918">
        <ele>348</ele>
        <time>2026-08-25T15:43:21+00:00</time>
      </trkpt>
      <trkpt lat="49.93433" lon="6.1992">
        <ele>347</ele>
        <time>2026-08-25T15:43:24+00:00</time>
      </trkpt>
      <trkpt lat="49.93428" lon="6.19938">
        <ele>347</ele>
        <time>2026-08-25T15:43:27+00:00</time>
      </trkpt>
      <trkpt lat="49.93444" lon="6.1993">
        <ele>340</ele>
        <time>2026-08-25T15:43:30+00:00</time>
      </trkpt>
      <trkpt lat="49.93446" lon="6.19921">
        <ele>340</ele>
        <time>2026-08-25T15:43:33+00:00</time>
      </trkpt>
      <trkpt lat="49.93449" lon="6.19917">
        <ele>340</ele>
        <time>2026-08-25T15:43:36+00:00</time>
      </trkpt>
      <trkpt lat="49.93451" lon="6.19921">
        <ele>332</ele>
        <time>2026-08-25T15:43:39+00:00</time>
      </trkpt>
      <trkpt lat="49.93455" lon="6.19942">
        <ele>329</ele>
        <time>2026-08-25T15:43:42+00:00</time>
      </trkpt>
      <trkpt lat="49.93467" lon="6.19932">
        <ele>325</ele>
        <time>2026-08-25T15:43:45+00:00</time>
      </trkpt>
      <trkpt lat="49.93478" lon="6.19911">
        <ele>321</ele>
        <time>2026-08-25T15:43:48+00:00</time>
      </trkpt>
      <trkpt lat="49.93483" lon="6.19905">
        <ele>319</ele>
        <time>2026-08-25T15:43:51+00:00</time>
      </trkpt>
      <trkpt lat="49.93489" lon="6.19888">
        <ele>320</ele>
        <time>2026-08-25T15:43:54+00:00</time>
      </trkpt>
      <trkpt lat="49.93489" lon="6.19879">
        <ele>319</ele>
        <time>2026-08-25T15:43:57+00:00</time>
      </trkpt>
      <trkpt lat="49.93485" lon="6.19876">
        <ele>319</ele>
        <time>2026-08-25T15:44:00+00:00</time>
      </trkpt>
      <trkpt lat="49.93481" lon="6.19875">
        <ele>319</ele>
        <time>2026-08-25T15:44:03+00:00</time>
      </trkpt>
      <trkpt lat="49.93483" lon="6.19869">
        <ele>320</ele>
        <time>2026-08-25T15:44:06+00:00</time>
      </trkpt>
      <trkpt lat="49.93485" lon="6.19857">
        <ele>321</ele>
        <time>2026-08-25T15:44:09+00:00</time>
      </trkpt>
      <trkpt lat="49.93482" lon="6.19848">
        <ele>322</ele>
        <time>2026-08-25T15:44:12+00:00</time>
      </trkpt>
      <trkpt lat="49.93475" lon="6.19844">
        <ele>321</ele>
        <time>2026-08-25T15:44:15+00:00</time>
      </trkpt>
      <trkpt lat="49.93469" lon="6.19831">
        <ele>321</ele>
        <time>2026-08-25T15:44:18+00:00</time>
      </trkpt>
      <trkpt lat="49.93448" lon="6.19813">
        <ele>322</ele>
        <time>2026-08-25T15:44:21+00:00</time>
      </trkpt>
      <trkpt lat="49.93444" lon="6.19806">
        <ele>322</ele>
        <time>2026-08-25T15:44:24+00:00</time>
      </trkpt>
      <trkpt lat="49.9343" lon="6.19776">
        <ele>322</ele>
        <time>2026-08-25T15:44:27+00:00</time>
      </trkpt>
      <trkpt lat="49.93423" lon="6.1975">
        <ele>321</ele>
        <time>2026-08-25T15:44:30+00:00</time>
      </trkpt>
      <trkpt lat="49.93422" lon="6.19749">
        <ele>316</ele>
        <time>2026-08-25T15:44:33+00:00</time>
      </trkpt>
      <trkpt lat="49.93417" lon="6.19712">
        <ele>321</ele>
        <time>2026-08-25T15:44:36+00:00</time>
      </trkpt>
      <trkpt lat="49.93414" lon="6.19704">
        <ele>323</ele>
        <time>2026-08-25T15:44:39+00:00</time>
      </trkpt>
      <trkpt lat="49.93405" lon="6.19677">
        <ele>321</ele>
        <time>2026-08-25T15:44:42+00:00</time>
      </trkpt>
      <trkpt lat="49.93396" lon="6.19649">
        <ele>321</ele>
        <time>2026-08-25T15:44:45+00:00</time>
      </trkpt>
      <trkpt lat="49.93391" lon="6.19625">
        <ele>327</ele>
        <time>2026-08-25T15:44:48+00:00</time>
      </trkpt>
      <trkpt lat="49.93387" lon="6.19595">
        <ele>325</ele>
        <time>2026-08-25T15:44:51+00:00</time>
      </trkpt>
      <trkpt lat="49.93381" lon="6.1955">
        <ele>342</ele>
        <time>2026-08-25T15:44:54+00:00</time>
      </trkpt>
      <trkpt lat="49.93378" lon="6.19516">
        <ele>343</ele>
        <time>2026-08-25T15:44:57+00:00</time>
      </trkpt>
      <trkpt lat="49.93375" lon="6.19479">
        <ele>348</ele>
        <time>2026-08-25T15:45:00+00:00</time>
      </trkpt>
      <trkpt lat="49.93373" lon="6.19434">
        <ele>355</ele>
        <time>2026-08-25T15:45:03+00:00</time>
      </trkpt>
      <trkpt lat="49.93369" lon="6.19345">
        <ele>364</ele>
        <time>2026-08-25T15:45:06+00:00</time>
      </trkpt>
      <trkpt lat="49.93369" lon="6.19303">
        <ele>364</ele>
        <time>2026-08-25T15:45:09+00:00</time>
      </trkpt>
      <trkpt lat="49.9337" lon="6.19235">
        <ele>380</ele>
        <time>2026-08-25T15:45:12+00:00</time>
      </trkpt>
      <trkpt lat="49.93372" lon="6.19202">
        <ele>384</ele>
        <time>2026-08-25T15:45:15+00:00</time>
      </trkpt>
      <trkpt lat="49.9337" lon="6.19187">
        <ele>389</ele>
        <time>2026-08-25T15:45:18+00:00</time>
      </trkpt>
      <trkpt lat="49.93358" lon="6.19153">
        <ele>388</ele>
        <time>2026-08-25T15:45:21+00:00</time>
      </trkpt>
      <trkpt lat="49.93349" lon="6.19101">
        <ele>394</ele>
        <time>2026-08-25T15:45:24+00:00</time>
      </trkpt>
      <trkpt lat="49.93345" lon="6.19063">
        <ele>399</ele>
        <time>2026-08-25T15:45:27+00:00</time>
      </trkpt>
      <trkpt lat="49.93339" lon="6.19015">
        <ele>404</ele>
        <time>2026-08-25T15:45:30+00:00</time>
      </trkpt>
      <trkpt lat="49.93333" lon="6.18982">
        <ele>404</ele>
        <time>2026-08-25T15:45:33+00:00</time>
      </trkpt>
      <trkpt lat="49.93328" lon="6.18949">
        <ele>404</ele>
        <time>2026-08-25T15:45:36+00:00</time>
      </trkpt>
      <trkpt lat="49.93325" lon="6.18923">
        <ele>406</ele>
        <time>2026-08-25T15:45:39+00:00</time>
      </trkpt>
      <trkpt lat="49.93327" lon="6.18893">
        <ele>404</ele>
        <time>2026-08-25T15:45:42+00:00</time>
      </trkpt>
      <trkpt lat="49.93337" lon="6.18862">
        <ele>405</ele>
        <time>2026-08-25T15:45:45+00:00</time>
      </trkpt>
      <trkpt lat="49.93334" lon="6.18899">
        <ele>406</ele>
        <time>2026-08-25T15:45:48+00:00</time>
      </trkpt>
      <trkpt lat="49.93334" lon="6.18925">
        <ele>410</ele>
        <time>2026-08-25T15:45:51+00:00</time>
      </trkpt>
      <trkpt lat="49.93338" lon="6.18947">
        <ele>407</ele>
        <time>2026-08-25T15:45:54+00:00</time>
      </trkpt>
      <trkpt lat="49.93351" lon="6.18989">
        <ele>410</ele>
        <time>2026-08-25T15:45:57+00:00</time>
      </trkpt>
      <trkpt lat="49.93363" lon="6.19031">
        <ele>409</ele>
        <time>2026-08-25T15:46:00+00:00</time>
      </trkpt>
      <trkpt lat="49.93378" lon="6.1908">
        <ele>410</ele>
        <time>2026-08-25T15:46:03+00:00</time>
      </trkpt>
      <trkpt lat="49.93391" lon="6.19105">
        <ele>412</ele>
        <time>2026-08-25T15:46:06+00:00</time>
      </trkpt>
      <trkpt lat="49.93407" lon="6.19136">
        <ele>412</ele>
        <time>2026-08-25T15:46:09+00:00</time>
      </trkpt>
      <trkpt lat="49.93415" lon="6.19156">
        <ele>413</ele>
        <time>2026-08-25T15:46:12+00:00</time>
      </trkpt>
      <trkpt lat="49.93421" lon="6.19195">
        <ele>411</ele>
        <time>2026-08-25T15:46:15+00:00</time>
      </trkpt>
      <trkpt lat="49.93426" lon="6.19234">
        <ele>410</ele>
        <time>2026-08-25T15:46:18+00:00</time>
      </trkpt>
      <trkpt lat="49.93434" lon="6.19287">
        <ele>408</ele>
        <time>2026-08-25T15:46:21+00:00</time>
      </trkpt>
      <trkpt lat="49.93443" lon="6.19319">
        <ele>407</ele>
        <time>2026-08-25T15:46:24+00:00</time>
      </trkpt>
      <trkpt lat="49.93453" lon="6.19341">
        <ele>405</ele>
        <time>2026-08-25T15:46:27+00:00</time>
      </trkpt>
      <trkpt lat="49.93467" lon="6.19366">
        <ele>407</ele>
        <time>2026-08-25T15:46:30+00:00</time>
      </trkpt>
      <trkpt lat="49.93493" lon="6.1941">
        <ele>406</ele>
        <time>2026-08-25T15:46:33+00:00</time>
      </trkpt>
      <trkpt lat="49.93506" lon="6.19425">
        <ele>408</ele>
        <time>2026-08-25T15:46:36+00:00</time>
      </trkpt>
      <trkpt lat="49.93521" lon="6.19433">
        <ele>406</ele>
        <time>2026-08-25T15:46:39+00:00</time>
      </trkpt>
      <trkpt lat="49.93532" lon="6.19432">
        <ele>406</ele>
        <time>2026-08-25T15:46:42+00:00</time>
      </trkpt>
      <trkpt lat="49.93555" lon="6.19414">
        <ele>408</ele>
        <time>2026-08-25T15:46:45+00:00</time>
      </trkpt>
      <trkpt lat="49.93578" lon="6.19397">
        <ele>411</ele>
        <time>2026-08-25T15:46:48+00:00</time>
      </trkpt>
      <trkpt lat="49.93602" lon="6.19378">
        <ele>418</ele>
        <time>2026-08-25T15:46:51+00:00</time>
      </trkpt>
      <trkpt lat="49.93615" lon="6.1937">
        <ele>422</ele>
        <time>2026-08-25T15:46:54+00:00</time>
      </trkpt>
      <trkpt lat="49.93629" lon="6.19365">
        <ele>420</ele>
        <time>2026-08-25T15:46:57+00:00</time>
      </trkpt>
      <trkpt lat="49.93641" lon="6.19366">
        <ele>424</ele>
        <time>2026-08-25T15:47:00+00:00</time>
      </trkpt>
      <trkpt lat="49.93651" lon="6.19374">
        <ele>420</ele>
        <time>2026-08-25T15:47:03+00:00</time>
      </trkpt>
      <trkpt lat="49.93657" lon="6.19389">
        <ele>422</ele>
        <time>2026-08-25T15:47:06+00:00</time>
      </trkpt>
      <trkpt lat="49.93668" lon="6.19426">
        <ele>420</ele>
        <time>2026-08-25T15:47:09+00:00</time>
      </trkpt>
      <trkpt lat="49.93678" lon="6.19464">
        <ele>421</ele>
        <time>2026-08-25T15:47:12+00:00</time>
      </trkpt>
      <trkpt lat="49.93691" lon="6.1951">
        <ele>422</ele>
        <time>2026-08-25T15:47:15+00:00</time>
      </trkpt>
      <trkpt lat="49.93701" lon="6.19537">
        <ele>422</ele>
        <time>2026-08-25T15:47:18+00:00</time>
      </trkpt>
      <trkpt lat="49.93717" lon="6.19575">
        <ele>421</ele>
        <time>2026-08-25T15:47:21+00:00</time>
      </trkpt>
      <trkpt lat="49.93733" lon="6.19613">
        <ele>421</ele>
        <time>2026-08-25T15:47:24+00:00</time>
      </trkpt>
      <trkpt lat="49.93751" lon="6.19655">
        <ele>425</ele>
        <time>2026-08-25T15:47:27+00:00</time>
      </trkpt>
      <trkpt lat="49.93766" lon="6.19686">
        <ele>428</ele>
        <time>2026-08-25T15:47:30+00:00</time>
      </trkpt>
      <trkpt lat="49.93786" lon="6.19727">
        <ele>428</ele>
        <time>2026-08-25T15:47:33+00:00</time>
      </trkpt>
      <trkpt lat="49.93798" lon="6.19767">
        <ele>427</ele>
        <time>2026-08-25T15:47:36+00:00</time>
      </trkpt>
      <trkpt lat="49.9382" lon="6.19846">
        <ele>426</ele>
        <time>2026-08-25T15:47:39+00:00</time>
      </trkpt>
      <trkpt lat="49.93823" lon="6.19856">
        <ele>426</ele>
        <time>2026-08-25T15:47:42+00:00</time>
      </trkpt>
      <trkpt lat="49.93827" lon="6.19861">
        <ele>426</ele>
        <time>2026-08-25T15:47:45+00:00</time>
      </trkpt>
      <trkpt lat="49.93825" lon="6.19874">
        <ele>426</ele>
        <time>2026-08-25T15:47:48+00:00</time>
      </trkpt>
      <trkpt lat="49.93825" lon="6.19874">
        <ele>426</ele>
        <time>2026-08-25T15:47:51+00:00</time>
      </trkpt>
      <trkpt lat="49.93825" lon="6.19898">
        <ele>425</ele>
        <time>2026-08-25T15:47:54+00:00</time>
      </trkpt>
      <trkpt lat="49.9382" lon="6.19923">
        <ele>423</ele>
        <time>2026-08-25T15:47:57+00:00</time>
      </trkpt>
      <trkpt lat="49.93811" lon="6.19944">
        <ele>420</ele>
        <time>2026-08-25T15:48:00+00:00</time>
      </trkpt>
      <trkpt lat="49.93801" lon="6.19959">
        <ele>418</ele>
        <time>2026-08-25T15:48:03+00:00</time>
      </trkpt>
      <trkpt lat="49.9379" lon="6.19975">
        <ele>412</ele>
        <time>2026-08-25T15:48:06+00:00</time>
      </trkpt>
      <trkpt lat="49.93782" lon="6.19983">
        <ele>411</ele>
        <time>2026-08-25T15:48:09+00:00</time>
      </trkpt>
      <trkpt lat="49.93781" lon="6.19986">
        <ele>411</ele>
        <time>2026-08-25T15:48:12+00:00</time>
      </trkpt>
      <trkpt lat="49.93785" lon="6.19996">
        <ele>411</ele>
        <time>2026-08-25T15:48:15+00:00</time>
      </trkpt>
      <trkpt lat="49.93792" lon="6.19999">
        <ele>410</ele>
        <time>2026-08-25T15:48:18+00:00</time>
      </trkpt>
      <trkpt lat="49.93819" lon="6.19996">
        <ele>410</ele>
        <time>2026-08-25T15:48:21+00:00</time>
      </trkpt>
      <trkpt lat="49.93812" lon="6.20009">
        <ele>407</ele>
        <time>2026-08-25T15:48:24+00:00</time>
      </trkpt>
      <trkpt lat="49.93817" lon="6.2001">
        <ele>407</ele>
        <time>2026-08-25T15:48:27+00:00</time>
      </trkpt>
      <trkpt lat="49.93819" lon="6.20011">
        <ele>402</ele>
        <time>2026-08-25T15:48:30+00:00</time>
      </trkpt>
      <trkpt lat="49.93812" lon="6.2002">
        <ele>402</ele>
        <time>2026-08-25T15:48:33+00:00</time>
      </trkpt>
      <trkpt lat="49.93825" lon="6.20024">
        <ele>399</ele>
        <time>2026-08-25T15:48:36+00:00</time>
      </trkpt>
      <trkpt lat="49.93812" lon="6.2004">
        <ele>395</ele>
        <time>2026-08-25T15:48:39+00:00</time>
      </trkpt>
      <trkpt lat="49.93823" lon="6.20044">
        <ele>392</ele>
        <time>2026-08-25T15:48:42+00:00</time>
      </trkpt>
      <trkpt lat="49.93791" lon="6.20066">
        <ele>390</ele>
        <time>2026-08-25T15:48:45+00:00</time>
      </trkpt>
      <trkpt lat="49.93788" lon="6.20068">
        <ele>384</ele>
        <time>2026-08-25T15:48:48+00:00</time>
      </trkpt>
      <trkpt lat="49.93783" lon="6.20065">
        <ele>384</ele>
        <time>2026-08-25T15:48:51+00:00</time>
      </trkpt>
      <trkpt lat="49.93774" lon="6.20055">
        <ele>388</ele>
        <time>2026-08-25T15:48:54+00:00</time>
      </trkpt>
      <trkpt lat="49.93771" lon="6.20044">
        <ele>391</ele>
        <time>2026-08-25T15:48:57+00:00</time>
      </trkpt>
      <trkpt lat="49.93768" lon="6.20051">
        <ele>386</ele>
        <time>2026-08-25T15:49:00+00:00</time>
      </trkpt>
      <trkpt lat="49.93762" lon="6.20056">
        <ele>386</ele>
        <time>2026-08-25T15:49:03+00:00</time>
      </trkpt>
      <trkpt lat="49.93749" lon="6.20058">
        <ele>375</ele>
        <time>2026-08-25T15:49:06+00:00</time>
      </trkpt>
      <trkpt lat="49.93742" lon="6.20062">
        <ele>373</ele>
        <time>2026-08-25T15:49:09+00:00</time>
      </trkpt>
      <trkpt lat="49.93733" lon="6.20068">
        <ele>370</ele>
        <time>2026-08-25T15:49:12+00:00</time>
      </trkpt>
      <trkpt lat="49.93733" lon="6.20068">
        <ele>370</ele>
        <time>2026-08-25T15:49:15+00:00</time>
      </trkpt>
      <trkpt lat="49.93723" lon="6.20068">
        <ele>366</ele>
        <time>2026-08-25T15:49:18+00:00</time>
      </trkpt>
      <trkpt lat="49.9372" lon="6.2007">
        <ele>364</ele>
        <time>2026-08-25T15:49:21+00:00</time>
      </trkpt>
      <trkpt lat="49.9372" lon="6.20078">
        <ele>362</ele>
        <time>2026-08-25T15:49:24+00:00</time>
      </trkpt>
      <trkpt lat="49.93723" lon="6.20087">
        <ele>362</ele>
        <time>2026-08-25T15:49:27+00:00</time>
      </trkpt>
      <trkpt lat="49.93724" lon="6.2009">
        <ele>362</ele>
        <time>2026-08-25T15:49:30+00:00</time>
      </trkpt>
      <trkpt lat="49.93721" lon="6.20091">
        <ele>364</ele>
        <time>2026-08-25T15:49:33+00:00</time>
      </trkpt>
      <trkpt lat="49.93719" lon="6.20093">
        <ele>359</ele>
        <time>2026-08-25T15:49:36+00:00</time>
      </trkpt>
      <trkpt lat="49.93714" lon="6.20098">
        <ele>359</ele>
        <time>2026-08-25T15:49:39+00:00</time>
      </trkpt>
      <trkpt lat="49.93714" lon="6.20097">
        <ele>359</ele>
        <time>2026-08-25T15:49:42+00:00</time>
      </trkpt>
      <trkpt lat="49.93708" lon="6.20079">
        <ele>362</ele>
        <time>2026-08-25T15:49:45+00:00</time>
      </trkpt>
      <trkpt lat="49.93705" lon="6.20078">
        <ele>362</ele>
        <time>2026-08-25T15:49:48+00:00</time>
      </trkpt>
      <trkpt lat="49.93704" lon="6.20081">
        <ele>360</ele>
        <time>2026-08-25T15:49:51+00:00</time>
      </trkpt>
      <trkpt lat="49.93703" lon="6.20106">
        <ele>355</ele>
        <time>2026-08-25T15:49:54+00:00</time>
      </trkpt>
      <trkpt lat="49.93688" lon="6.20089">
        <ele>352</ele>
        <time>2026-08-25T15:49:57+00:00</time>
      </trkpt>
      <trkpt lat="49.93683" lon="6.20087">
        <ele>352</ele>
        <time>2026-08-25T15:50:00+00:00</time>
      </trkpt>
      <trkpt lat="49.93684" lon="6.20102">
        <ele>348</ele>
        <time>2026-08-25T15:50:03+00:00</time>
      </trkpt>
      <trkpt lat="49.93687" lon="6.2011">
        <ele>348</ele>
        <time>2026-08-25T15:50:06+00:00</time>
      </trkpt>
      <trkpt lat="49.93685" lon="6.20112">
        <ele>345</ele>
        <time>2026-08-25T15:50:09+00:00</time>
      </trkpt>
      <trkpt lat="49.93679" lon="6.20109">
        <ele>343</ele>
        <time>2026-08-25T15:50:12+00:00</time>
      </trkpt>
      <trkpt lat="49.93665" lon="6.20089">
        <ele>344</ele>
        <time>2026-08-25T15:50:15+00:00</time>
      </trkpt>
      <trkpt lat="49.93665" lon="6.20096">
        <ele>337</ele>
        <time>2026-08-25T15:50:18+00:00</time>
      </trkpt>
      <trkpt lat="49.93671" lon="6.20118">
        <ele>341</ele>
        <time>2026-08-25T15:50:21+00:00</time>
      </trkpt>
      <trkpt lat="49.93671" lon="6.20122">
        <ele>340</ele>
        <time>2026-08-25T15:50:24+00:00</time>
      </trkpt>
      <trkpt lat="49.93649" lon="6.201">
        <ele>335</ele>
        <time>2026-08-25T15:50:27+00:00</time>
      </trkpt>
      <trkpt lat="49.93651" lon="6.20129">
        <ele>330</ele>
        <time>2026-08-25T15:50:30+00:00</time>
      </trkpt>
      <trkpt lat="49.93653" lon="6.20137">
        <ele>328</ele>
        <time>2026-08-25T15:50:33+00:00</time>
      </trkpt>
      <trkpt lat="49.93642" lon="6.20128">
        <ele>323</ele>
        <time>2026-08-25T15:50:36+00:00</time>
      </trkpt>
      <trkpt lat="49.93636" lon="6.20119">
        <ele>316</ele>
        <time>2026-08-25T15:50:39+00:00</time>
      </trkpt>
      <trkpt lat="49.93635" lon="6.20125">
        <ele>314</ele>
        <time>2026-08-25T15:50:42+00:00</time>
      </trkpt>
      <trkpt lat="49.93638" lon="6.20135">
        <ele>318</ele>
        <time>2026-08-25T15:50:45+00:00</time>
      </trkpt>
      <trkpt lat="49.9364" lon="6.20139">
        <ele>310</ele>
        <time>2026-08-25T15:50:48+00:00</time>
      </trkpt>
      <trkpt lat="49.93654" lon="6.20163">
        <ele>317</ele>
        <time>2026-08-25T15:50:51+00:00</time>
      </trkpt>
      <trkpt lat="49.93678" lon="6.2019">
        <ele>316</ele>
        <time>2026-08-25T15:50:54+00:00</time>
      </trkpt>
      <trkpt lat="49.93686" lon="6.20197">
        <ele>314</ele>
        <time>2026-08-25T15:50:57+00:00</time>
      </trkpt>
      <trkpt lat="49.93687" lon="6.20202">
        <ele>308</ele>
        <time>2026-08-25T15:51:00+00:00</time>
      </trkpt>
      <trkpt lat="49.93662" lon="6.20193">
        <ele>306</ele>
        <time>2026-08-25T15:51:03+00:00</time>
      </trkpt>
      <trkpt lat="49.93664" lon="6.20198">
        <ele>306</ele>
        <time>2026-08-25T15:51:06+00:00</time>
      </trkpt>
      <trkpt lat="49.93688" lon="6.20219">
        <ele>303</ele>
        <time>2026-08-25T15:51:09+00:00</time>
      </trkpt>
      <trkpt lat="49.93688" lon="6.20223">
        <ele>299</ele>
        <time>2026-08-25T15:51:12+00:00</time>
      </trkpt>
      <trkpt lat="49.93652" lon="6.20207">
        <ele>298</ele>
        <time>2026-08-25T15:51:15+00:00</time>
      </trkpt>
      <trkpt lat="49.93629" lon="6.20194">
        <ele>285</ele>
        <time>2026-08-25T15:51:18+00:00</time>
      </trkpt>
      <trkpt lat="49.93605" lon="6.20177">
        <ele>281</ele>
        <time>2026-08-25T15:51:21+00:00</time>
      </trkpt>
      <trkpt lat="49.93578" lon="6.20166">
        <ele>275</ele>
        <time>2026-08-25T15:51:24+00:00</time>
      </trkpt>
      <trkpt lat="49.93574" lon="6.20157">
        <ele>274</ele>
        <time>2026-08-25T15:51:27+00:00</time>
      </trkpt>
      <trkpt lat="49.93573" lon="6.20159">
        <ele>274</ele>
        <time>2026-08-25T15:51:30+00:00</time>
      </trkpt>
      <trkpt lat="49.93567" lon="6.20171">
        <ele>275</ele>
        <time>2026-08-25T15:51:33+00:00</time>
      </trkpt>
      <trkpt lat="49.93559" lon="6.2018">
        <ele>273</ele>
        <time>2026-08-25T15:51:36+00:00</time>
      </trkpt>
      <trkpt lat="49.93558" lon="6.20181">
        <ele>274</ele>
        <time>2026-08-25T15:51:39+00:00</time>
      </trkpt>
      <trkpt lat="49.93567" lon="6.2022">
        <ele>278</ele>
        <time>2026-08-25T15:51:42+00:00</time>
      </trkpt>
      <trkpt lat="49.93572" lon="6.2024">
        <ele>279</ele>
        <time>2026-08-25T15:51:45+00:00</time>
      </trkpt>
      <trkpt lat="49.93571" lon="6.20249">
        <ele>279</ele>
        <time>2026-08-25T15:51:48+00:00</time>
      </trkpt>
      <trkpt lat="49.93568" lon="6.20268">
        <ele>282</ele>
        <time>2026-08-25T15:51:51+00:00</time>
      </trkpt>
      <trkpt lat="49.93555" lon="6.20298">
        <ele>283</ele>
        <time>2026-08-25T15:51:54+00:00</time>
      </trkpt>
      <trkpt lat="49.9355" lon="6.20304">
        <ele>286</ele>
        <time>2026-08-25T15:51:57+00:00</time>
      </trkpt>
      <trkpt lat="49.93538" lon="6.20313">
        <ele>283</ele>
        <time>2026-08-25T15:52:00+00:00</time>
      </trkpt>
      <trkpt lat="49.93514" lon="6.2035">
        <ele>284</ele>
        <time>2026-08-25T15:52:03+00:00</time>
      </trkpt>
      <trkpt lat="49.93508" lon="6.20355">
        <ele>284</ele>
        <time>2026-08-25T15:52:06+00:00</time>
      </trkpt>
      <trkpt lat="49.93493" lon="6.20368">
        <ele>285</ele>
        <time>2026-08-25T15:52:09+00:00</time>
      </trkpt>
      <trkpt lat="49.93485" lon="6.2038">
        <ele>287</ele>
        <time>2026-08-25T15:52:12+00:00</time>
      </trkpt>
      <trkpt lat="49.93479" lon="6.20394">
        <ele>285</ele>
        <time>2026-08-25T15:52:15+00:00</time>
      </trkpt>
      <trkpt lat="49.93451" lon="6.20435">
        <ele>262</ele>
        <time>2026-08-25T15:52:18+00:00</time>
      </trkpt>
      <trkpt lat="49.93441" lon="6.20455">
        <ele>253</ele>
        <time>2026-08-25T15:52:21+00:00</time>
      </trkpt>
      <trkpt lat="49.93426" lon="6.20472">
        <ele>245</ele>
        <time>2026-08-25T15:52:24+00:00</time>
      </trkpt>
      <trkpt lat="49.93406" lon="6.20496">
        <ele>239</ele>
        <time>2026-08-25T15:52:27+00:00</time>
      </trkpt>
      <trkpt lat="49.93389" lon="6.20522">
        <ele>239</ele>
        <time>2026-08-25T15:52:30+00:00</time>
      </trkpt>
      <trkpt lat="49.93388" lon="6.20522">
        <ele>232</ele>
        <time>2026-08-25T15:52:33+00:00</time>
      </trkpt>
      <trkpt lat="49.93389" lon="6.20522">
        <ele>232</ele>
        <time>2026-08-25T15:52:36+00:00</time>
      </trkpt>
      <trkpt lat="49.93389" lon="6.20483">
        <ele>239</ele>
        <time>2026-08-25T15:52:39+00:00</time>
      </trkpt>
      <trkpt lat="49.93388" lon="6.20428">
        <ele>252</ele>
        <time>2026-08-25T15:52:42+00:00</time>
      </trkpt>
      <trkpt lat="49.93386" lon="6.2041">
        <ele>257</ele>
        <time>2026-08-25T15:52:45+00:00</time>
      </trkpt>
      <trkpt lat="49.93381" lon="6.20384">
        <ele>255</ele>
        <time>2026-08-25T15:52:48+00:00</time>
      </trkpt>
      <trkpt lat="49.93376" lon="6.20355">
        <ele>258</ele>
        <time>2026-08-25T15:52:51+00:00</time>
      </trkpt>
      <trkpt lat="49.93381" lon="6.20351">
        <ele>263</ele>
        <time>2026-08-25T15:52:54+00:00</time>
      </trkpt>
      <trkpt lat="49.93384" lon="6.20342">
        <ele>262</ele>
        <time>2026-08-25T15:52:57+00:00</time>
      </trkpt>
      <trkpt lat="49.93387" lon="6.2034">
        <ele>260</ele>
        <time>2026-08-25T15:53:00+00:00</time>
      </trkpt>
      <trkpt lat="49.93391" lon="6.2035">
        <ele>267</ele>
        <time>2026-08-25T15:53:03+00:00</time>
      </trkpt>
      <trkpt lat="49.93397" lon="6.20349">
        <ele>267</ele>
        <time>2026-08-25T15:53:06+00:00</time>
      </trkpt>
      <trkpt lat="49.93402" lon="6.20351">
        <ele>269</ele>
        <time>2026-08-25T15:53:09+00:00</time>
      </trkpt>
      <trkpt lat="49.93406" lon="6.20352">
        <ele>269</ele>
        <time>2026-08-25T15:53:12+00:00</time>
      </trkpt>
      <trkpt lat="49.9341" lon="6.20354">
        <ele>271</ele>
        <time>2026-08-25T15:53:15+00:00</time>
      </trkpt>
      <trkpt lat="49.93418" lon="6.20339">
        <ele>274</ele>
        <time>2026-08-25T15:53:18+00:00</time>
      </trkpt>
      <trkpt lat="49.93426" lon="6.20314">
        <ele>273</ele>
        <time>2026-08-25T15:53:21+00:00</time>
      </trkpt>
      <trkpt lat="49.93436" lon="6.20283">
        <ele>274</ele>
        <time>2026-08-25T15:53:24+00:00</time>
      </trkpt>
      <trkpt lat="49.93432" lon="6.20308">
        <ele>278</ele>
        <time>2026-08-25T15:53:27+00:00</time>
      </trkpt>
      <trkpt lat="49.93443" lon="6.2029">
        <ele>273</ele>
        <time>2026-08-25T15:53:30+00:00</time>
      </trkpt>
      <trkpt lat="49.93463" lon="6.20259">
        <ele>272</ele>
        <time>2026-08-25T15:53:33+00:00</time>
      </trkpt>
      <trkpt lat="49.93489" lon="6.20232">
        <ele>271</ele>
        <time>2026-08-25T15:53:36+00:00</time>
      </trkpt>
      <trkpt lat="49.93526" lon="6.202">
        <ele>272</ele>
        <time>2026-08-25T15:53:39+00:00</time>
      </trkpt>
      <trkpt lat="49.93529" lon="6.20197">
        <ele>270</ele>
        <time>2026-08-25T15:53:42+00:00</time>
      </trkpt>
      <trkpt lat="49.93558" lon="6.20181">
        <ele>274</ele>
        <time>2026-08-25T15:53:45+00:00</time>
      </trkpt>
      <trkpt lat="49.93567" lon="6.20171">
        <ele>275</ele>
        <time>2026-08-25T15:53:48+00:00</time>
      </trkpt>
      <trkpt lat="49.93573" lon="6.20159">
        <ele>274</ele>
        <time>2026-08-25T15:53:51+00:00</time>
      </trkpt>
      <trkpt lat="49.93574" lon="6.20157">
        <ele>274</ele>
        <time>2026-08-25T15:53:54+00:00</time>
      </trkpt>
      <trkpt lat="49.93573" lon="6.2015">
        <ele>272</ele>
        <time>2026-08-25T15:53:57+00:00</time>
      </trkpt>
      <trkpt lat="49.93572" lon="6.20147">
        <ele>272</ele>
        <time>2026-08-25T15:54:00+00:00</time>
      </trkpt>
      <trkpt lat="49.93572" lon="6.20114">
        <ele>269</ele>
        <time>2026-08-25T15:54:03+00:00</time>
      </trkpt>
      <trkpt lat="49.93573" lon="6.20071">
        <ele>269</ele>
        <time>2026-08-25T15:54:06+00:00</time>
      </trkpt>
      <trkpt lat="49.93569" lon="6.20049">
        <ele>268</ele>
        <time>2026-08-25T15:54:09+00:00</time>
      </trkpt>
      <trkpt lat="49.93562" lon="6.20032">
        <ele>269</ele>
        <time>2026-08-25T15:54:12+00:00</time>
      </trkpt>
      <trkpt lat="49.93554" lon="6.2004">
        <ele>273</ele>
        <time>2026-08-25T15:54:15+00:00</time>
      </trkpt>
      <trkpt lat="49.93543" lon="6.2005">
        <ele>268</ele>
        <time>2026-08-25T15:54:18+00:00</time>
      </trkpt>
      <trkpt lat="49.93538" lon="6.20061">
        <ele>267</ele>
        <time>2026-08-25T15:54:21+00:00</time>
      </trkpt>
      <trkpt lat="49.93535" lon="6.2006">
        <ele>273</ele>
        <time>2026-08-25T15:54:24+00:00</time>
      </trkpt>
      <trkpt lat="49.9351" lon="6.2008">
        <ele>267</ele>
        <time>2026-08-25T15:54:27+00:00</time>
      </trkpt>
      <trkpt lat="49.93487" lon="6.2009">
        <ele>263</ele>
        <time>2026-08-25T15:54:30+00:00</time>
      </trkpt>
      <trkpt lat="49.93486" lon="6.20093">
        <ele>260</ele>
        <time>2026-08-25T15:54:33+00:00</time>
      </trkpt>
      <trkpt lat="49.93485" lon="6.20096">
        <ele>260</ele>
        <time>2026-08-25T15:54:36+00:00</time>
      </trkpt>
      <trkpt lat="49.93484" lon="6.20099">
        <ele>260</ele>
        <time>2026-08-25T15:54:39+00:00</time>
      </trkpt>
      <trkpt lat="49.93482" lon="6.20104">
        <ele>257</ele>
        <time>2026-08-25T15:54:42+00:00</time>
      </trkpt>
      <trkpt lat="49.93482" lon="6.20104">
        <ele>257</ele>
        <time>2026-08-25T15:54:45+00:00</time>
      </trkpt>
      <trkpt lat="49.93479" lon="6.20102">
        <ele>258</ele>
        <time>2026-08-25T15:54:48+00:00</time>
      </trkpt>
      <trkpt lat="49.93476" lon="6.201">
        <ele>260</ele>
        <time>2026-08-25T15:54:51+00:00</time>
      </trkpt>
      <trkpt lat="49.93471" lon="6.20097">
        <ele>265</ele>
        <time>2026-08-25T15:54:54+00:00</time>
      </trkpt>
      <trkpt lat="49.93469" lon="6.20097">
        <ele>262</ele>
        <time>2026-08-25T15:54:57+00:00</time>
      </trkpt>
      <trkpt lat="49.93458" lon="6.20095">
        <ele>264</ele>
        <time>2026-08-25T15:55:00+00:00</time>
      </trkpt>
      <trkpt lat="49.93448" lon="6.20097">
        <ele>268</ele>
        <time>2026-08-25T15:55:03+00:00</time>
      </trkpt>
      <trkpt lat="49.93406" lon="6.20111">
        <ele>269</ele>
        <time>2026-08-25T15:55:06+00:00</time>
      </trkpt>
      <trkpt lat="49.93406" lon="6.20113">
        <ele>269</ele>
        <time>2026-08-25T15:55:09+00:00</time>
      </trkpt>
      <trkpt lat="49.93397" lon="6.20121">
        <ele>265</ele>
        <time>2026-08-25T15:55:12+00:00</time>
      </trkpt>
      <trkpt lat="49.93396" lon="6.20118">
        <ele>275</ele>
        <time>2026-08-25T15:55:15+00:00</time>
      </trkpt>
      <trkpt lat="49.93393" lon="6.20117">
        <ele>275</ele>
        <time>2026-08-25T15:55:18+00:00</time>
      </trkpt>
      <trkpt lat="49.93392" lon="6.2012">
        <ele>271</ele>
        <time>2026-08-25T15:55:21+00:00</time>
      </trkpt>
      <trkpt lat="49.93384" lon="6.20129">
        <ele>272</ele>
        <time>2026-08-25T15:55:24+00:00</time>
      </trkpt>
      <trkpt lat="49.93375" lon="6.20136">
        <ele>268</ele>
        <time>2026-08-25T15:55:27+00:00</time>
      </trkpt>
      <trkpt lat="49.93371" lon="6.20143">
        <ele>269</ele>
        <time>2026-08-25T15:55:30+00:00</time>
      </trkpt>
      <trkpt lat="49.93369" lon="6.20144">
        <ele>274</ele>
        <time>2026-08-25T15:55:33+00:00</time>
      </trkpt>
      <trkpt lat="49.93366" lon="6.20152">
        <ele>270</ele>
        <time>2026-08-25T15:55:36+00:00</time>
      </trkpt>
      <trkpt lat="49.93351" lon="6.20175">
        <ele>266</ele>
        <time>2026-08-25T15:55:39+00:00</time>
      </trkpt>
      <trkpt lat="49.93332" lon="6.20211">
        <ele>257</ele>
        <time>2026-08-25T15:55:42+00:00</time>
      </trkpt>
      <trkpt lat="49.93328" lon="6.20214">
        <ele>261</ele>
        <time>2026-08-25T15:55:45+00:00</time>
      </trkpt>
      <trkpt lat="49.93327" lon="6.20221">
        <ele>256</ele>
        <time>2026-08-25T15:55:48+00:00</time>
      </trkpt>
      <trkpt lat="49.93324" lon="6.20227">
        <ele>256</ele>
        <time>2026-08-25T15:55:51+00:00</time>
      </trkpt>
      <trkpt lat="49.9332" lon="6.20235">
        <ele>252</ele>
        <time>2026-08-25T15:55:54+00:00</time>
      </trkpt>
      <trkpt lat="49.93319" lon="6.20243">
        <ele>251</ele>
        <time>2026-08-25T15:55:57+00:00</time>
      </trkpt>
      <trkpt lat="49.93316" lon="6.2025">
        <ele>251</ele>
        <time>2026-08-25T15:56:00+00:00</time>
      </trkpt>
      <trkpt lat="49.93313" lon="6.20253">
        <ele>250</ele>
        <time>2026-08-25T15:56:03+00:00</time>
      </trkpt>
      <trkpt lat="49.93312" lon="6.2026">
        <ele>250</ele>
        <time>2026-08-25T15:56:06+00:00</time>
      </trkpt>
      <trkpt lat="49.93302" lon="6.20287">
        <ele>250</ele>
        <time>2026-08-25T15:56:09+00:00</time>
      </trkpt>
      <trkpt lat="49.93298" lon="6.20291">
        <ele>255</ele>
        <time>2026-08-25T15:56:12+00:00</time>
      </trkpt>
      <trkpt lat="49.93298" lon="6.20299">
        <ele>255</ele>
        <time>2026-08-25T15:56:15+00:00</time>
      </trkpt>
      <trkpt lat="49.93293" lon="6.20313">
        <ele>250</ele>
        <time>2026-08-25T15:56:18+00:00</time>
      </trkpt>
      <trkpt lat="49.9328" lon="6.20304">
        <ele>261</ele>
        <time>2026-08-25T15:56:21+00:00</time>
      </trkpt>
      <trkpt lat="49.93283" lon="6.20308">
        <ele>243</ele>
        <time>2026-08-25T15:56:24+00:00</time>
      </trkpt>
      <trkpt lat="49.93287" lon="6.20318">
        <ele>255</ele>
        <time>2026-08-25T15:56:27+00:00</time>
      </trkpt>
      <trkpt lat="49.93301" lon="6.20332">
        <ele>236</ele>
        <time>2026-08-25T15:56:30+00:00</time>
      </trkpt>
      <trkpt lat="49.93311" lon="6.20338">
        <ele>235</ele>
        <time>2026-08-25T15:56:33+00:00</time>
      </trkpt>
      <trkpt lat="49.93317" lon="6.20342">
        <ele>232</ele>
        <time>2026-08-25T15:56:36+00:00</time>
      </trkpt>
      <trkpt lat="49.9332" lon="6.20339">
        <ele>235</ele>
        <time>2026-08-25T15:56:39+00:00</time>
      </trkpt>
      <trkpt lat="49.93327" lon="6.2034">
        <ele>234</ele>
        <time>2026-08-25T15:56:42+00:00</time>
      </trkpt>
      <trkpt lat="49.93326" lon="6.20371">
        <ele>231</ele>
        <time>2026-08-25T15:56:45+00:00</time>
      </trkpt>
      <trkpt lat="49.93327" lon="6.20379">
        <ele>231</ele>
        <time>2026-08-25T15:56:48+00:00</time>
      </trkpt>
      <trkpt lat="49.93329" lon="6.20392">
        <ele>230</ele>
        <time>2026-08-25T15:56:51+00:00</time>
      </trkpt>
      <trkpt lat="49.93337" lon="6.20434">
        <ele>230</ele>
        <time>2026-08-25T15:56:54+00:00</time>
      </trkpt>
      <trkpt lat="49.9334" lon="6.20435">
        <ele>230</ele>
        <time>2026-08-25T15:56:57+00:00</time>
      </trkpt>
      <trkpt lat="49.9334" lon="6.20446">
        <ele>231</ele>
        <time>2026-08-25T15:57:00+00:00</time>
      </trkpt>
      <trkpt lat="49.93339" lon="6.20475">
        <ele>230</ele>
        <time>2026-08-25T15:57:03+00:00</time>
      </trkpt>
      <trkpt lat="49.93337" lon="6.2051">
        <ele>224</ele>
        <time>2026-08-25T15:57:06+00:00</time>
      </trkpt>
      <trkpt lat="49.93336" lon="6.20549">
        <ele>223</ele>
        <time>2026-08-25T15:57:09+00:00</time>
      </trkpt>
      <trkpt lat="49.93336" lon="6.20563">
        <ele>223</ele>
        <time>2026-08-25T15:57:12+00:00</time>
      </trkpt>
      <trkpt lat="49.93335" lon="6.20582">
        <ele>221</ele>
        <time>2026-08-25T15:57:15+00:00</time>
      </trkpt>
      <trkpt lat="49.93317" lon="6.2058">
        <ele>221</ele>
        <time>2026-08-25T15:57:18+00:00</time>
      </trkpt>
      <trkpt lat="49.93307" lon="6.2059">
        <ele>221</ele>
        <time>2026-08-25T15:57:21+00:00</time>
      </trkpt>
      <trkpt lat="49.93308" lon="6.2061">
        <ele>219</ele>
        <time>2026-08-25T15:57:24+00:00</time>
      </trkpt>
      <trkpt lat="49.93318" lon="6.20612">
        <ele>216</ele>
        <time>2026-08-25T15:57:27+00:00</time>
      </trkpt>
    </trkseg>
  </trk>
</gpx>
